GFSMA_con_mucape_003.txt.gz
CAPE
2434 2262 1800 1559 1709 2227 2047 1435 1345 1305 1220 1341 781 433 305 83 38 25 184 1828 1461 1384 1810 2022 1759 1631 1796 1615 1927 1803 1607 1217 992 1051 1402 869 1079 1033 1207 868 628 760 864
2325 1752 2861 2206 1995 2027 2238 1099 1721 1471 1562 1066 389 350 217 180 172 197 130 938 1914 1381 1296 1972 1968 1819 1755 1777 1636 1976 1798 1583 1297 1114 1045 1505 1780 1327 1190 912 719 671 896
1711 2158 2351 1889 1461 1613 1861 1736 1874 1596 1088 88 98 81 146 134 111 227 197 108 1032 2054 1401 1484 2319 2294 2059 1937 1891 1985 2373 2195 1838 2045 2102 2151 2133 2036 1975 1750 1312 1325 1436
2174 2268 1780 1533 2182 1421 2122 1488 1303 760 87 34 23 63 62 81 127 166 155 148 100 158 2014 2108 1661 2498 1900 1741 1959 1811 2133 2252 2348 2166 2219 1910 2227 2085 1969 1958 1989 2009 1847
2374 2256 1875 1920 2196 1725 1372 1222 1060 892 11 20 30 15 62 92 52 80 56 166 422 420 263 2160 1953 1705 1828 1673 1833 1863 1792 1944 1917 1961 2039 2223 2200 2172 2118 2078 2209 2162 2128
2360 2320 1788 1863 1737 2028 1164 1049 783 76 25 75 5 2 75 139 63 19 7 8 56 234 644 911 1608 1671 1898 1657 1746 1972 1897 1888 2111 2158 2019 2078 2176 2188 2186 2092 1980 2005 1963
2288 2191 2070 2331 1508 1929 1386 394 146 27 27 62 0 51 134 103 63 22 4 0 0 0 78 475 973 1633 1680 1355 1431 1499 1472 1367 1341 1654 2138 1844 1900 2121 2136 2074 2059 2088 2179
2684 2137 2846 1546 1430 1316 961 362 131 0 26 124 45 12 169 317 130 137 2 0 0 0 0 49 399 817 1167 1205 1063 368 404 628 967 1104 1211 1415 1540 1696 1947 1907 1953 2011 2035
2398 2423 2204 2218 2001 907 0 281 46 9 5 290 299 43 28 379 233 317 84 0 0 0 0 0 0 0 7 84 469 32 6 150 247 229 250 415 536 693 953 1512 1739 1761 1852
2501 2364 2383 1662 1586 152 465 38 16 26 73 29 32 20 58 123 87 112 350 42 0 0 0 0 0 0 0 0 0 0 0 0 0 0 0 0 5 7 72 357 1048 1334 1660
1927 1486 1417 1842 1045 68 171 93 2 84 158 12 7 19 117 11 0 0 12 47 32 33 5 0 0 0 0 0 0 0 0 0 0 0 0 0 0 0 0 0 23 192 875
1772 1410 1122 1772 887 12 112 114 33 91 106 118 51 40 25 13 35 27 13 18 31 41 33 13 1 1 0 0 0 0 0 0 0 0 0 0 0 0 0 0 0 0 0
861 2417 1622 2173 933 323 166 98 146 170 65 66 71 51 539 147 91 44 29 40 36 54 61 61 37 29 0 0 1 0 0 0 0 0 0 0 0 0 0 0 0 0 0
741 1571 1665 1642 1141 273 287 234 27 1 306 33 30 641 47 46 112 72 147 273 83 73 82 199 180 81 26 0 3 0 0 10 0 0 0 0 0 0 0 0 0 0 0
846 521 1240 1729 1320 579 426 399 39 510 35 9 192 738 211 21 31 42 52 174 121 62 92 91 48 146 63 73 54 17 40 61 3 0 0 0 0 0 0 0 0 0 0
1857 1860 1267 1324 1102 937 982 915 506 528 343 16 4 541 688 52 6 32 57 72 42 27 37 41 52 110 105 57 94 91 58 138 34 0 0 0 0 0 0 0 0 0 0
2798 2110 2168 1628 974 740 395 475 363 153 730 774 602 285 544 966 103 30 46 56 42 44 21 48 20 133 781 713 453 351 138 422 84 35 19 0 0 0 0 0 0 0 0
2901 2194 1975 1412 665 606 624 678 274 108 234 103 134 710 514 307 1357 1546 205 1282 690 436 94 591 264 21 427 780 891 882 222 43 97 43 38 0 0 0 0 0 0 0 0
2884 1813 1647 1344 794 656 764 684 682 458 188 142 130 657 611 1191 1394 700 1152 545 316 660 380 117 81 113 127 179 232 694 895 361 139 41 7 9 2 0 0 0 0 0 0
2492 1550 1372 951 803 602 477 445 494 390 588 506 460 746 822 1035 1205 1211 1163 1454 1188 759 465 189 89 100 166 90 217 140 139 120 112 67 41 1 4 42 5 0 0 0 0
2010 1180 919 703 585 318 441 709 452 466 970 656 499 433 855 1071 677 640 1103 367 1135 677 385 310 225 169 204 146 184 234 189 173 80 104 74 112 240 260 115 61 156 120 3
1548 999 458 424 427 101 0 43 465 239 863 911 738 756 1150 854 366 286 306 168 69 167 427 252 141 206 428 444 417 492 339 67 21 123 212 117 92 185 314 446 233 10 0
1510 1108 515 522 337 487 33 34 107 256 487 830 1167 1019 1099 535 330 443 439 219 167 84 63 226 361 584 494 366 525 499 333 169 30 9 126 49 85 237 412 356 28 0 0
1846 1286 668 862 560 517 357 288 174 216 328 571 885 1000 1246 1130 964 480 633 526 496 796 579 211 286 519 418 157 65 38 75 60 71 87 255 115 111 140 294 361 8 0 0
2330 1209 811 775 757 673 464 177 178 434 612 999 1142 1050 1268 756 338 145 110 150 589 824 305 127 39 1 0 0 0 0 3 7 14 25 18 54 73 16 14 4 63 0 0
1915 960 904 893 769 1178 348 79 80 316 285 409 1733 1379 245 114 147 103 144 227 425 533 306 190 135 0 10 8 0 6 38 55 41 29 7 3 0 0 45 16 31 11 0

GFSMA_con_mucape_006.txt.gz
CAPE
2251 977 2858 2698 2856 2380 1869 2276 1810 1778 2134 1824 820 721 376 406 256 154 1078 2279 1637 1236 1674 1801 1573 282 1144 1779 1699 1730 1543 1168 1171 1442 1450 1552 1646 1555 1373 1365 1442 1243 922
3069 1374 2277 1937 2197 1871 2697 2175 2489 2283 1734 1359 1546 389 377 478 352 436 288 1933 2170 1832 1425 1797 1913 1654 1602 1545 2065 1722 1750 1816 1762 1203 1565 1823 1638 1690 1627 1857 1536 1162 1124
3636 3297 2688 2898 2260 2119 2646 2192 2214 998 516 573 575 416 371 346 469 215 311 321 1743 2447 2061 1972 1985 2150 2036 1911 1891 2122 2119 1608 1865 1962 1832 1817 2068 2042 2007 1975 1694 1337 1288
3243 3224 2691 1459 593 2161 2278 1544 1445 1504 544 369 352 636 462 292 194 333 320 98 554 908 2241 2225 2305 2080 2008 1926 1638 1998 1930 2525 2370 2137 2118 2087 2288 2375 2309 2154 1943 1903 1820
2781 2818 2748 1564 2023 2036 2192 1176 575 1204 279 504 141 217 347 447 224 32 98 240 482 876 1356 2076 2293 2380 1876 1623 1821 2029 1905 1676 1671 1872 2050 2053 2081 2088 2044 2063 2089 2106 2167
2817 2800 2767 2191 2622 2897 1428 1703 1167 847 577 289 104 14 359 434 357 25 27 37 47 394 741 1380 1531 1600 1796 1493 1724 1709 1588 1869 2007 2012 1925 1911 1979 1903 2026 2063 1929 2029 2102
2643 3012 2735 2202 1791 2602 874 1185 870 487 603 425 218 136 429 357 381 206 0 0 0 9 237 654 1068 1615 1388 1364 1551 1574 1311 1226 1343 1592 1934 1850 1942 1951 1851 1840 2016 2164 2151
3468 2412 2629 2350 1865 1803 1803 1353 692 387 421 773 194 403 257 558 123 175 13 0 0 0 0 138 611 686 1177 1235 664 411 353 594 970 1163 1263 1248 1423 1526 1749 1789 1889 2014 2087
3213 1726 2535 2687 2426 1634 1276 1400 839 358 291 1161 307 398 413 514 458 475 229 10 2 0 0 0 0 0 0 520 455 16 0 0 123 219 299 444 488 535 707 994 1423 1735 1774
3074 3032 3101 2939 2629 1322 1729 1204 688 284 829 419 809 360 215 132 223 198 556 53 21 0 0 0 0 0 0 0 0 0 0 0 0 0 0 0 0 0 0 52 384 789 1286
2942 2578 2841 2833 2224 1435 1645 765 617 416 839 564 412 611 831 479 146 54 87 73 83 48 3 0 0 0 0 0 0 0 0 0 0 0 0 0 0 0 0 0 0 0 5
2818 2939 2353 2445 2115 1156 1341 852 807 960 590 665 508 731 400 423 43 297 70 46 69 114 44 31 17 2 0 0 0 0 0 0 0 0 0 0 0 0 0 0 0 0 0
2095 2351 2594 2419 1682 1294 1423 1147 1131 1162 757 604 808 537 451 333 217 122 150 48 50 70 101 55 84 77 14 0 0 0 0 0 0 0 0 0 0 0 0 0 0 0 0
1884 1771 2166 2473 2308 1100 1049 1057 827 535 713 601 191 562 475 523 409 219 130 95 55 67 56 118 123 276 123 37 13 0 0 0 0 0 0 0 0 0 0 0 0 0 0
2348 2193 1935 2350 1813 1382 1167 1344 404 571 608 993 847 669 470 145 311 334 199 271 47 57 22 92 77 117 48 75 57 43 10 117 50 0 0 0 0 0 0 0 0 0 0
2479 1646 2117 1674 1848 1118 1331 1217 596 852 674 558 434 614 592 325 472 340 52 243 64 95 43 102 115 152 206 149 106 125 132 163 118 16 0 0 0 0 0 0 0 0 0
2119 2152 1671 1845 1708 1300 1257 940 681 580 623 679 524 651 547 1003 606 410 658 314 152 199 240 118 87 116 132 160 125 154 237 149 124 52 35 9 0 0 0 0 0 0 0
2541 2003 2129 1907 1700 887 1112 800 509 159 734 684 842 890 675 468 1014 782 854 672 734 623 384 356 294 210 169 268 318 275 191 25 44 39 62 33 15 0 0 0 0 0 0
2835 2572 2076 1925 1306 768 933 670 573 569 700 523 530 712 720 824 1014 1003 740 810 553 419 266 149 128 239 84 33 48 81 45 293 349 108 22 0 11 4 0 0 0 0 0
2987 2920 2175 1906 1245 751 683 624 682 686 660 621 918 933 1039 809 925 1047 760 924 933 625 217 126 115 100 196 97 245 92 39 152 175 49 36 15 6 4 0 0 0 0 0
3581 3256 2284 1796 1178 617 560 698 656 665 784 868 672 999 965 1029 685 806 914 718 992 468 180 34 40 15 40 132 100 102 70 61 39 50 53 31 0 3 0 0 0 10 0
3474 3008 1934 1312 746 487 310 305 723 740 888 940 640 1000 1228 411 321 129 91 151 652 379 137 42 36 42 51 159 163 112 101 42 0 0 49 0 0 0 0 0 0 0 0
3062 2374 1590 849 456 575 188 104 380 564 561 871 675 1049 678 538 507 792 341 173 142 93 63 20 35 71 118 194 158 104 80 45 0 0 0 0 0 7 0 5 10 15 19
2569 2257 1767 1264 624 560 148 222 126 129 406 851 710 830 307 827 1099 1218 729 825 302 245 194 133 85 95 245 414 167 30 0 0 0 0 3 4 0 0 0 0 0 0 0
2977 2399 1889 1325 975 707 300 373 420 517 528 425 655 621 769 1314 1195 393 230 236 236 592 546 260 174 246 235 87 37 8 0 0 0 0 1 0 5 1 0 0 0 0 0
2333 2279 1480 1210 880 1226 825 699 503 300 321 556 741 905 444 523 783 223 143 385 656 617 629 480 120 61 68 61 6 11 5 8 19 16 5 0 0 0 0 0 0 0 0

GFSMA_con_mucape_009.txt.gz
CAPE
900 452 667 688 858 833 919 751 1151 1091 1103 1021 660 97 16 3 6 130 989 1689 1690 1736 1966 1808 1354 274 1586 1888 1737 1668 1491 1240 1469 1431 1207 1213 1433 1330 1506 1172 1238 1381 930
1071 1002 1098 927 1250 1402 1449 1221 1014 738 504 351 531 43 9 71 46 48 353 1225 1815 1439 1660 2007 1737 620 617 2098 1832 1841 1862 1783 1376 1111 1627 1458 1763 1644 1725 1309 1105 984 1146
1174 1671 1407 981 1351 1345 1494 810 777 314 49 93 6 3 17 20 7 0 9 54 1273 2002 1471 2073 2114 1697 1261 1845 1884 1967 2129 2271 2047 1817 1747 1681 1890 1911 1885 1689 1789 1567 1399
1860 1670 1284 1298 827 1128 998 878 798 513 311 0 0 18 11 13 10 14 79 0 650 1062 1786 1716 2161 2273 1924 1734 1655 2030 2399 2321 2102 2059 2040 1823 1736 1934 2264 2162 2007 1698 1765
1745 1173 1404 1084 886 1139 945 613 514 339 34 0 0 9 2 5 4 4 3 25 36 439 1052 1476 1588 1557 1325 1451 1640 1753 1513 2276 2351 2257 2256 2119 1995 1936 1925 1980 1988 2101 2092
1182 1227 1240 1305 1176 1035 519 430 223 9 0 0 0 0 9 20 3 0 0 7 127 816 792 951 803 1027 1714 1594 1560 1737 1758 1847 1901 1837 1938 1966 2030 1999 1998 2021 1920 1918 1815
1418 1366 1310 1348 1466 1028 517 467 68 0 0 3 1 11 33 28 24 0 0 0 0 0 295 350 431 735 1336 1432 1576 1604 1253 1137 1332 1396 1365 1842 2059 1925 1685 1928 1897 1905 1961
1609 1432 1341 1321 1154 1135 547 268 13 0 0 0 0 0 23 67 40 3 9 0 0 0 0 0 90 591 876 676 406 431 369 491 752 1118 1270 1136 1024 1042 1371 1342 1343 1249 1609
1747 1362 1455 1163 995 809 529 275 0 0 0 0 0 2 29 26 34 35 19 0 0 0 0 0 0 0 442 104 43 0 0 0 4 113 224 370 444 421 467 613 919 1208 1405
2001 1193 1216 1385 1041 441 175 28 48 1 39 0 88 0 0 9 31 48 27 10 0 0 0 0 0 0 0 27 0 0 0 0 0 0 0 0 0 0 0 0 14 103 351
1859 1597 1653 1610 1126 463 108 82 18 0 110 7 27 52 2 0 0 2 28 8 11 2 0 0 0 0 0 0 0 0 0 0 0 0 0 0 0 0 0 0 0 0 0
1492 1909 1461 1369 974 567 69 46 60 15 91 86 9 10 0 0 0 1 3 0 10 10 12 1 0 0 0 0 0 0 0 0 0 0 0 0 0 0 0 0 0 0 0
1899 1769 1637 1246 801 339 134 49 61 111 56 59 0 1 21 0 0 0 0 0 0 2 19 25 8 1 0 0 0 0 0 0 0 0 0 0 0 0 0 0 0 0 0
1611 1415 1214 894 688 379 372 301 102 108 75 6 74 0 0 0 0 0 2 1 0 1 0 1 9 13 2 0 0 30 0 0 0 0 0 0 0 0 0 0 0 0 0
1708 1292 1303 1124 875 718 280 244 135 16 269 94 0 0 2 0 0 1 23 11 0 0 0 8 0 10 16 13 1 6 0 0 0 0 0 0 0 0 0 0 0 0 0
1280 1222 1362 1421 1245 799 315 231 132 117 44 89 63 31 0 0 0 39 23 13 8 8 6 0 23 3 54 40 25 54 9 54 15 15 0 0 0 0 0 2 0 0 0
1411 1146 1050 1717 1291 827 349 374 104 37 180 5 1 0 54 62 34 21 90 59 28 41 15 22 8 21 20 11 0 0 7 28 35 15 1 0 0 0 0 2 8 0 0
1570 1362 1331 1043 1453 1037 604 436 213 124 39 116 20 16 7 0 102 87 169 154 175 187 120 53 74 80 49 54 9 9 32 63 24 8 3 7 0 0 6 6 0 0 0
1780 1328 1357 1270 1106 1003 758 490 334 148 179 105 130 92 60 59 92 205 174 231 209 151 122 76 54 49 33 23 36 10 2 25 23 94 64 35 29 4 0 0 3 4 0
2264 1721 1373 1382 1249 1044 841 570 497 296 143 231 160 265 243 70 109 345 227 153 176 176 160 97 71 41 31 34 22 60 4 0 0 10 12 6 6 4 0 0 0 0 0
2707 2476 2144 1789 1475 1237 984 601 458 336 239 312 202 327 266 345 342 286 217 257 210 171 151 129 81 16 3 2 13 10 0 0 0 0 0 0 0 0 0 1 0 2 0
2817 2619 2315 2019 1774 1530 1237 716 472 397 430 440 354 455 218 519 494 411 386 301 284 303 201 82 50 36 7 4 16 29 13 0 0 0 0 0 0 0 0 0 0 0 0
3065 2971 2762 2432 2188 2036 1671 1148 416 415 394 362 384 465 393 388 326 344 303 146 131 226 181 108 33 3 0 2 43 35 7 15 0 0 0 0 0 0 0 0 0 0 0
3288 3217 3116 2750 2521 2210 1746 1091 572 357 507 466 496 537 504 265 208 259 289 298 296 295 185 118 89 85 77 78 112 106 39 8 0 0 0 0 0 0 0 0 0 0 0
3303 3369 2876 2770 2670 2362 1759 915 561 354 335 421 303 307 271 97 174 358 293 271 119 100 100 370 496 407 203 179 237 131 28 2 0 0 0 0 0 0 0 0 0 0 0
2592 2402 2883 2734 2212 1583 1195 513 510 397 403 295 79 122 125 195 464 376 229 171 76 117 128 125 136 77 75 3 26 35 25 19 19 3 0 0 0 0 0 0 0 0 0

GFSMA_con_mucape_012.txt.gz
CAPE
723 327 373 512 631 624 606 845 782 1035 934 571 397 75 9 21 266 440 537 1813 1695 2467 2026 1420 457 1083 1710 1771 1589 1612 1598 1076 909 977 1214 1175 893 1045 968 944 804 799 971
774 496 476 721 904 872 792 924 864 542 206 38 220 508 16 30 7 53 524 1041 1609 2076 2534 1941 1558 524 1257 1988 1866 1671 1586 1353 1450 1352 1455 1395 1547 1399 827 1131 1211 1160 1014
850 821 936 779 996 967 1128 728 498 244 57 14 1 18 20 24 5 2 6 466 839 1746 2127 2147 2036 1079 716 1796 2081 1885 1939 2166 2123 1618 1740 1567 1368 1518 1188 1309 1330 1291 1319
967 1275 1173 1178 949 654 912 702 620 451 201 18 0 12 21 17 15 12 21 116 532 810 1687 2170 2636 2094 1419 1357 1482 2103 2395 1657 1683 1945 1885 1592 1113 1304 1640 1826 1543 1712 1719
1360 1245 931 947 823 799 699 601 527 252 59 0 0 5 17 13 4 19 5 17 38 463 724 1204 1366 1609 1337 1042 1450 1667 1905 1993 2114 2236 1923 1729 1602 1636 1807 1816 1950 1955 1862
1494 1170 1100 1043 703 1010 891 434 218 16 0 0 0 0 21 27 7 0 0 357 675 756 721 752 614 905 1600 1327 1437 1742 1619 1519 1569 1742 1769 1933 1750 1718 1722 1872 1957 1851 1810
1215 920 964 1131 1098 1039 665 255 89 0 0 0 0 0 21 27 9 0 0 8 170 314 278 382 732 911 1303 1325 1710 1511 1316 1219 1308 1342 1809 1641 1485 1544 1381 1253 1327 1459 1826
820 1076 984 1069 1231 1014 693 347 78 0 0 0 0 0 5 34 20 9 7 9 1 80 23 200 321 423 500 196 466 692 615 693 904 1187 1102 1045 1077 931 1014 1185 1298 1399 1489
1007 1249 1265 1051 928 954 888 245 110 0 0 5 0 0 0 1 16 8 5 9 0 0 0 0 98 257 551 33 26 0 0 0 5 70 178 360 453 433 404 435 557 685 866
1279 1406 898 923 759 689 535 290 2 0 0 0 69 0 0 0 5 1 4 1 0 0 0 0 0 0 307 31 0 0 0 0 0 0 0 0 0 0 0 0 0 8 68
1514 1292 1110 869 875 674 324 54 29 0 44 5 50 0 0 0 0 3 5 1 0 0 0 0 0 0 0 26 0 0 0 0 0 0 0 0 0 0 0 0 0 0 0
1589 1461 1127 1142 1171 677 280 7 0 0 57 78 4 24 7 0 0 0 0 0 0 0 0 0 0 0 0 0 0 0 2 0 0 0 0 0 0 0 0 0 0 0 0
1617 1505 1337 1419 1284 807 510 69 7 1 18 45 0 0 0 0 0 0 0 0 0 0 0 0 0 0 0 0 0 19 48 0 0 0 0 0 0 0 0 0 0 0 0
1630 1388 1407 1124 965 800 521 3 5 13 36 11 24 0 0 0 0 0 0 0 0 0 0 0 0 0 0 0 0 215 0 0 0 0 0 0 0 0 0 0 0 0 0
1320 1144 1234 1364 1132 813 314 73 13 15 57 16 13 24 0 0 0 8 7 8 2 0 0 0 0 0 7 0 0 0 0 0 0 0 0 0 0 0 4 6 10 8 0
1285 1250 1432 1523 1139 695 417 269 67 64 35 110 8 0 0 0 0 2 1 29 25 2 0 0 0 0 0 0 0 9 1 4 1 0 0 0 3 2 10 19 24 18 14
1288 1285 1302 1198 831 643 628 480 127 58 4 62 61 11 1 0 3 2 3 13 33 17 9 18 20 0 9 3 3 0 0 0 3 1 10 9 11 3 9 17 13 17 11
1639 1385 1423 1180 881 783 815 601 236 54 32 3 20 48 13 3 39 47 25 72 87 71 17 25 52 47 37 45 36 27 31 12 4 1 0 0 2 13 0 0 0 0 0
1495 1555 1487 1340 1282 968 953 733 398 81 62 23 63 11 0 6 10 9 32 43 99 134 108 90 91 75 51 41 14 16 8 6 2 5 0 0 0 0 12 3 0 0 0
1558 1650 1616 1540 1364 1307 1283 1151 1021 684 254 119 0 47 2 4 17 14 81 132 154 153 139 130 105 81 59 25 16 0 0 0 0 0 0 0 0 0 0 0 0 0 0
1832 1874 1700 1510 1496 1441 1370 1264 1200 949 712 204 107 134 147 85 205 156 73 173 136 129 137 133 81 57 26 0 11 0 0 0 0 0 0 0 0 0 0 0 0 0 0
2489 2408 2188 1752 1542 1554 1511 1505 1391 1123 823 482 181 95 210 207 216 183 156 203 125 170 118 62 50 25 7 0 0 0 0 0 0 0 0 0 0 0 0 0 0 0 0
2370 2618 2792 2773 2563 2168 2094 1783 1427 1328 1345 657 211 96 145 200 237 206 209 173 238 166 222 139 74 39 8 9 16 0 13 13 4 3 0 0 0 0 0 0 0 0 0
2880 2750 2526 2683 2746 1984 1702 1733 1948 1732 1762 435 288 183 339 343 338 124 81 85 124 87 84 99 90 80 75 114 146 108 73 77 62 36 0 0 0 0 0 0 0 0 0
3029 3106 3052 2797 2284 828 1954 2535 1997 1355 882 318 199 287 344 395 315 192 116 89 95 135 116 96 118 151 176 207 121 78 142 56 2 0 0 13 0 0 0 0 0 0 0
3049 3126 3160 2668 726 757 2411 2139 1028 482 306 272 318 430 543 386 243 110 63 45 32 82 111 49 82 65 33 0 0 0 0 0 1 2 0 0 0 0 0 0 0 0 0

GFSMA_con_mucape_015.txt.gz
CAPE
636 476 364 412 437 505 494 544 683 847 923 312 150 50 10 294 535 510 405 1633 1646 1939 1924 1240 1532 1711 1759 1644 1536 1485 1311 1472 1389 1233 956 1228 744 527 593 828 791 759 759
856 384 172 404 597 662 661 740 910 641 173 63 256 351 20 25 199 313 294 431 1664 1771 2185 1585 1275 836 1613 1791 1709 1644 1612 1168 990 1074 1214 1323 1628 949 769 924 1033 1080 1155
884 683 399 654 785 773 867 930 533 226 75 36 15 5 12 15 18 13 72 276 609 1435 1700 1891 1412 890 775 1830 1548 1799 1840 1899 1648 1685 1509 1505 1442 1342 1317 1008 1157 1215 1043
907 754 732 779 814 654 957 662 595 393 157 39 2 1 12 19 15 10 17 21 141 473 941 1281 1693 1601 1193 1087 1432 1912 1899 1863 1878 1875 2026 1386 1519 1507 1512 1454 1245 1383 1221
1007 894 1052 955 693 749 809 648 530 391 64 0 0 1 20 7 17 3 13 24 95 445 512 704 1459 1698 1456 1216 1217 1331 1749 2023 1944 1582 1527 1665 1776 1760 1825 1853 1836 1948 1645
976 984 962 734 635 741 742 731 408 148 0 0 0 2 12 20 12 0 123 413 548 641 575 690 475 690 1314 1395 1291 1276 1373 1302 1175 1489 2016 2002 1957 1934 1834 1883 1835 1831 1719
1098 1093 920 881 815 686 879 645 223 0 0 0 0 6 13 16 3 0 20 40 296 470 283 498 632 737 856 1098 1374 1397 1192 1029 1213 1187 931 992 1681 1568 1561 1553 1510 1621 1624
1139 1235 949 809 949 926 905 463 197 25 0 0 0 0 17 12 8 0 1 20 34 32 6 168 472 402 275 214 514 915 821 902 1088 1123 980 1072 1060 912 919 1002 1085 1206 1204
1178 1056 787 766 865 1063 931 672 210 66 0 0 0 0 0 1 0 2 0 5 7 11 0 32 247 407 188 11 40 0 0 34 169 212 160 333 441 452 419 376 437 509 521
888 875 896 998 954 941 757 759 210 28 0 30 34 0 0 0 0 0 0 1 0 0 0 0 0 7 308 2 0 0 0 0 0 0 0 0 0 0 0 0 0 0 0
993 949 939 1166 760 632 840 647 261 0 0 0 20 0 0 0 27 0 0 0 0 0 0 0 0 0 46 45 15 0 0 0 0 0 0 0 0 0 0 0 0 0 0
1233 1231 1189 1096 765 620 539 395 153 0 0 0 0 10 0 0 0 0 0 0 0 0 0 0 0 0 1 0 27 10 27 0 0 0 0 0 0 0 0 0 0 0 0
1217 1377 1330 1154 1000 929 865 252 122 0 0 11 0 0 0 0 0 0 0 0 0 0 0 0 0 0 0 0 0 69 37 24 0 0 0 0 0 0 0 0 0 0 0
1181 1312 1421 1250 1163 1131 875 382 213 0 0 19 3 0 0 0 0 0 0 0 0 0 0 0 0 0 0 0 0 1 4 45 0 0 0 0 0 0 0 0 0 0 0
1230 1372 1308 1421 1347 1293 930 605 247 8 5 0 3 1 0 0 0 0 0 0 0 0 0 0 0 0 0 0 0 0 0 0 0 0 0 0 0 0 14 27 39 33 34
1059 1260 1293 1459 1351 1230 877 683 233 3 0 2 0 0 0 0 0 0 0 0 0 0 1 5 0 0 0 0 0 0 0 0 0 0 0 0 0 6 23 36 38 42 45
1148 1105 1269 1527 1141 1157 1101 822 294 136 0 0 6 0 0 0 0 0 1 0 0 0 0 20 22 6 0 0 0 0 0 0 0 0 0 0 0 0 12 26 31 25 23
1373 1451 1376 1274 1123 1140 1330 922 518 486 133 0 3 18 1 0 0 0 0 0 0 0 6 13 19 33 35 42 6 0 0 0 0 0 0 0 0 0 0 0 1 0 0
1420 1310 1320 1237 1158 1285 1304 1008 750 687 565 153 11 0 21 26 8 0 25 20 0 14 33 24 15 27 56 47 38 7 0 0 0 0 0 7 0 0 0 0 0 0 0
1554 1527 1327 1357 1443 1389 1240 1059 986 908 921 703 339 139 0 2 3 0 4 0 0 8 46 74 70 71 48 51 39 3 0 0 0 0 0 0 0 0 0 0 0 0 0
1437 1448 1502 1459 1607 1636 1430 1325 1247 1221 1037 932 779 446 96 22 35 8 11 53 16 57 99 89 106 86 32 21 14 1 0 0 0 0 0 0 0 0 0 0 0 0 0
1567 1565 1488 1385 1351 1430 1628 1655 1530 1365 1031 943 800 559 252 66 72 111 63 192 37 41 83 79 73 48 42 24 5 0 0 0 0 1 0 0 0 0 0 0 0 0 0
1695 1646 1602 1472 1443 1562 1680 1564 1539 1353 930 1005 915 1016 688 105 55 161 181 198 95 75 67 56 39 35 14 15 3 4 10 30 16 36 26 14 0 0 0 0 0 0 0
1960 1865 1792 1681 1584 1655 1754 1729 1922 395 271 742 1095 1155 361 217 15 163 232 154 64 47 49 12 16 33 54 25 40 55 36 11 23 104 43 4 0 0 0 0 0 0 0
2207 2161 1990 2032 2170 2231 2390 2566 2390 288 1257 1528 1097 755 469 255 47 258 149 21 32 60 35 34 23 38 42 26 19 16 24 1 0 1 0 0 0 0 0 0 0 0 0
2371 2309 2431 2385 2433 2473 2510 2625 967 959 2094 1527 824 418 355 146 248 395 193 37 29 24 15 38 57 20 8 0 0 0 0 0 0 0 0 0 0 0 0 0 0 0 0

GFSMA_con_mucape_018.txt.gz
CAPE
613 463 265 280 328 379 474 652 665 995 795 325 177 25 30 462 611 597 455 1022 1067 1420 1059 1156 1247 1593 1733 1527 1471 1505 1436 1191 1252 1322 1209 1136 719 757 571 710 808 920 603
789 593 398 218 420 423 508 783 829 546 145 70 180 112 11 37 258 315 297 386 1020 1097 1359 1177 1097 1387 1450 1523 1559 1539 1534 1276 1538 1425 1063 1441 1254 872 700 914 1028 986 1023
723 859 304 271 597 625 732 817 618 272 53 29 28 14 13 19 26 54 96 268 493 858 1089 1147 1250 967 823 1461 1569 1741 1711 1947 1410 1148 1729 1419 1489 1410 1283 1038 926 1181 1250
686 876 616 441 618 723 729 798 570 421 180 91 23 6 4 14 10 19 4 0 74 561 789 1303 1773 974 932 934 1456 1603 1649 1798 1795 1901 2003 1821 1727 1548 1521 1469 1346 1432 1196
759 855 702 660 768 624 688 675 565 383 104 5 0 0 11 1 8 0 15 66 82 547 674 622 1034 1187 819 1126 1323 1222 1531 1774 1792 1940 1704 1848 1816 1802 1783 2010 1940 1938 1861
863 768 556 796 702 562 651 602 587 243 0 0 0 1 6 9 7 4 74 218 637 660 697 875 863 833 956 950 1022 859 1066 1173 1229 1394 1876 2005 1862 1792 1604 1763 1747 1713 1633
826 877 722 804 566 518 645 679 325 90 0 0 0 0 8 8 0 4 25 102 264 157 267 586 718 1010 1110 987 879 1105 1068 987 953 971 1108 1274 1235 1196 1338 954 1026 1269 1382
862 860 850 845 686 664 633 741 288 87 0 0 0 0 3 11 1 0 0 16 27 13 0 256 471 462 465 572 892 888 842 954 1129 1062 1049 972 1006 907 787 884 918 1024 1004
903 903 858 933 709 741 814 857 529 148 36 1 0 0 0 9 0 0 0 0 4 0 0 30 286 418 117 110 4 0 0 54 157 222 180 114 258 337 332 280 277 303 332
776 897 1034 987 725 708 864 894 598 280 57 0 0 0 0 0 0 0 0 0 0 0 0 0 1 20 322 30 0 0 0 0 0 0 0 0 0 0 0 0 0 0 0
866 804 840 792 737 919 802 732 597 352 74 0 6 0 0 0 0 0 0 0 0 0 0 0 0 0 51 111 36 0 0 0 0 0 0 0 0 0 0 0 0 0 0
1026 1030 853 870 822 967 574 559 658 269 22 0 0 0 0 0 0 0 0 0 0 0 0 0 0 0 0 27 68 63 31 12 0 0 0 0 0 0 0 0 0 0 0
893 954 1013 978 972 1108 773 593 481 211 0 0 0 0 0 0 0 0 0 0 0 0 0 0 0 0 0 2 7 88 151 63 0 0 0 0 0 0 0 0 0 0 0
769 934 1001 1174 1198 1204 968 859 657 142 0 0 0 0 0 0 0 0 0 0 0 0 0 0 0 0 0 0 0 0 45 0 25 0 0 0 0 0 0 12 24 9 1
690 827 951 1119 1250 1281 1105 1005 694 218 64 0 0 0 0 0 0 0 0 0 0 0 0 0 0 0 0 0 0 0 0 3 6 10 0 0 0 0 10 26 35 34 27
831 848 1006 1181 1274 1270 1215 1121 829 424 204 0 0 0 0 0 0 0 0 0 0 0 0 0 0 0 0 0 0 25 1 0 0 0 0 0 0 3 11 22 38 53 60
925 882 953 1171 1231 1239 1352 1259 1026 625 314 0 0 0 0 0 0 0 0 0 0 0 0 0 0 0 10 25 14 8 0 0 0 0 0 0 0 0 0 8 8 14 24
978 963 873 1071 1133 1176 1389 1271 1078 807 495 162 0 0 0 0 0 0 0 0 0 0 0 5 0 11 19 20 31 43 3 0 0 0 0 0 0 0 0 0 0 0 0
967 966 886 982 1091 1086 1422 1279 1122 1088 807 495 418 121 5 0 0 0 0 0 0 0 0 0 5 2 7 16 10 0 0 2 0 0 0 0 0 0 0 0 0 0 0
1004 1021 1058 1209 1250 1426 1353 1345 1115 1310 1116 737 685 549 276 53 4 4 0 0 1 1 0 2 6 51 56 54 19 0 0 0 0 0 0 0 0 0 0 0 0 0 0
1039 1122 1080 1276 1381 1370 1370 1288 1283 1346 1295 974 924 835 606 341 128 81 2 0 0 12 5 8 24 59 56 33 14 18 0 0 0 0 10 0 0 0 0 0 0 0 0
1196 1186 1105 1168 1424 1353 1322 1453 1537 1519 1258 1295 1331 1142 871 550 395 145 15 0 19 38 30 27 23 34 61 15 12 10 19 21 53 0 0 22 7 12 1 0 0 0 0
1268 1320 1291 1215 1311 1469 1425 1494 1693 1759 1527 1601 1612 1488 1176 940 707 134 32 22 43 93 45 52 48 28 21 15 7 9 4 0 22 30 14 47 25 4 0 0 0 0 0
1304 1363 1424 1367 1320 1379 1439 1505 1519 1593 1571 1704 1700 1535 1064 1069 936 229 89 45 90 85 69 38 40 71 19 11 9 0 0 5 9 0 0 2 0 0 0 0 0 0 0
1475 1483 1512 1587 1516 1486 1587 1513 1441 1509 1784 1816 1775 743 1140 1089 948 671 199 57 56 62 38 30 18 9 7 1 0 0 0 0 0 0 0 0 0 0 0 0 0 0 0
1751 1737 1562 1722 1759 1727 1589 1606 1515 1710 1827 2007 2377 1436 1320 1108 859 392 117 88 124 85 44 1 9 6 8 0 0 0 0 0 0 0 0 0 0 0 0 0 0 0 0

GFSMA_con_mucape_021.txt.gz
CAPE
1712 1524 1141 1053 1194 1300 1372 1475 1571 1910 1066 391 676 108 189 276 557 275 550 859 956 919 718 1060 1059 1562 1451 1340 1435 1254 958 736 1339 1161 1284 1182 945 1088 754 649 763 936 593
1332 1398 1597 937 1400 1473 1417 1470 1622 1019 313 547 688 492 87 59 463 422 192 555 872 829 822 1184 908 1386 1568 1532 1532 1575 1547 1561 1431 1416 1262 1279 1192 835 633 751 1014 964 1060
1673 1854 1759 1085 1162 1733 1908 1868 1090 1054 68 20 17 102 117 124 41 229 275 309 517 731 818 879 1085 1191 1183 1420 1488 1644 1675 1668 1509 1597 1563 1142 1400 1439 1331 1034 875 1077 1240
1772 1891 1737 1281 1318 1801 2076 1970 1876 1543 403 30 39 83 168 120 94 77 147 201 490 379 664 991 875 1028 751 838 1363 1484 1526 1623 1766 1728 1659 1531 1666 1677 1568 1500 1470 1384 1307
1570 1809 1825 1621 1778 1565 1901 1961 1258 1017 201 25 16 52 95 122 60 40 274 374 568 669 714 721 1152 946 739 872 1055 1095 1259 1395 1576 1646 1627 1703 1791 1808 1942 1892 1809 1798 1581
1695 2021 1803 1807 1769 1605 1482 1290 1240 384 43 104 0 40 43 39 36 289 341 452 937 930 947 1001 873 845 880 875 958 865 925 1211 1339 1499 1885 1996 1893 1989 1866 1879 1797 1806 1789
2090 2134 1805 1814 1717 1554 1572 1482 868 408 41 141 61 121 152 22 17 123 278 145 103 184 506 858 919 1148 958 947 973 1096 1031 984 895 925 953 1091 1304 1402 1455 1291 1031 1035 800
2092 2117 2086 1944 1750 1470 1635 1421 922 209 53 82 42 50 13 26 0 0 70 70 145 0 0 304 984 1144 830 505 614 417 723 980 1161 1148 1097 990 975 1027 891 770 733 699 766
2176 2230 2183 2022 2008 1760 1588 1552 1005 575 124 105 60 33 0 1 34 0 1 5 33 3 3 93 211 571 474 79 0 0 0 111 120 189 171 101 102 168 207 179 148 130 133
2131 2210 2248 2123 2146 1807 1794 1655 1073 676 179 43 104 41 127 218 1 4 0 0 0 0 24 1 5 38 249 0 0 0 0 0 0 0 0 0 0 0 0 0 0 0 0
2096 2027 2222 2213 2198 1939 1903 1758 1073 628 383 64 64 64 27 59 107 37 8 0 0 0 0 13 1 14 49 68 21 0 0 0 0 0 0 0 0 0 0 0 0 0 0
1680 2027 2075 2307 2307 2054 2044 1793 1255 859 378 118 169 170 18 0 0 76 96 14 0 0 0 0 7 10 26 37 46 45 34 0 0 0 0 0 0 0 0 0 0 0 0
1467 2198 2214 2253 2128 2140 2039 1727 1262 880 489 201 253 173 216 92 13 0 0 22 28 0 0 30 26 20 14 41 26 86 292 87 10 0 0 0 0 0 0 0 0 0 0
1566 1971 2287 2290 2248 2133 1981 1553 1192 898 531 425 345 242 172 190 40 12 4 6 3 8 0 11 0 16 59 33 18 4 35 39 2 0 0 0 0 0 0 0 0 0 0
1541 1860 2146 2300 2317 2194 2002 1625 1237 936 479 416 289 326 208 151 21 0 0 0 0 0 0 7 0 24 59 81 43 31 69 15 25 12 0 0 0 0 0 0 1 13 38
1880 1725 1982 2208 2316 2219 2020 1735 1435 1055 586 319 176 306 219 108 110 39 0 0 0 2 0 0 0 52 72 59 71 184 143 0 0 0 0 0 0 0 0 11 20 31 45
2196 2149 2158 2137 2208 2216 2027 1825 1683 1244 758 588 279 303 323 302 95 59 54 52 50 2 4 12 7 79 202 241 63 146 65 175 91 0 0 0 0 0 0 0 5 9 22
2153 2644 2559 2228 2236 2277 2083 1837 1756 1347 988 790 642 342 235 124 231 159 50 155 58 78 35 253 118 144 306 313 387 532 247 9 84 5 0 0 0 0 0 0 0 0 0
2412 1954 2515 2629 2220 2170 2109 1874 1921 1732 1259 1087 832 528 409 276 139 35 51 38 27 123 118 80 88 115 115 139 271 415 464 188 39 0 0 0 0 0 0 0 0 0 0
2436 2491 2566 2582 2400 2097 2064 1911 1845 1897 1578 1250 1073 643 406 261 242 197 217 205 152 139 183 175 81 96 189 271 224 194 148 132 44 1 0 0 0 0 0 0 0 0 0
2382 2461 2607 2616 2444 2172 1909 2137 1868 1866 1826 1430 1156 882 717 657 521 275 221 300 290 234 147 118 88 67 68 228 296 139 147 132 103 130 92 118 147 184 151 5 0 0 0
2482 2514 2507 2586 2571 2050 1468 1213 1688 2102 1919 1765 1593 1077 1009 947 900 674 394 169 269 308 334 225 220 203 651 573 223 158 150 176 168 178 266 168 398 441 411 410 0 0 0
2494 2547 2510 2576 2624 2621 1370 1207 1341 2033 1903 1978 1802 1461 1146 1266 1321 1164 794 340 133 0 63 718 641 495 349 489 295 202 204 211 234 275 336 296 363 431 207 71 0 0 0
2576 2655 2554 2582 2679 2599 1517 1233 1240 1590 2117 2149 1820 1712 1662 1490 1631 1378 1045 528 188 211 57 62 537 771 449 389 318 225 374 343 231 214 301 93 54 106 33 0 0 0 0
2768 2692 2698 2684 2627 2707 1531 1317 1280 1438 2167 2126 1822 1670 1748 1667 1789 1126 1128 771 748 756 156 15 20 7 1 0 42 113 66 50 108 41 44 19 3 4 0 0 0 0 0
2723 2593 2771 2774 2233 2710 1738 1326 1269 1665 2089 1871 1711 1488 1507 1712 1280 933 1057 965 853 703 305 0 0 0 9 0 0 38 0 0 0 0 13 0 0 0 0 0 0 0 0

GFSMA_con_mucape_024.txt.gz
CAPE
1933 1734 1559 1344 1535 1154 1190 1665 1011 806 1347 1089 927 53 46 53 51 52 381 834 832 590 686 998 1288 1535 1318 1451 1445 1222 548 544 1294 1109 1152 1161 1078 1073 830 614 626 888 604
1748 1588 1664 1367 1441 1438 1658 1003 969 1607 506 634 493 57 49 66 46 40 86 480 799 688 618 1303 916 1641 1435 1331 1527 1555 1480 1199 1224 1355 1268 1451 1159 785 652 556 922 902 955
2122 2381 1797 1494 1202 2237 1261 1138 1085 1221 431 117 249 61 67 41 47 55 69 231 493 735 682 952 1025 1182 1225 1439 1634 1598 1469 1570 1547 1590 1638 1418 1400 1311 1384 1077 832 873 1168
2306 2456 1912 1388 1508 1577 1168 1018 921 898 620 221 51 56 57 55 45 41 48 87 198 488 615 668 815 1065 1060 910 1304 1441 1621 1525 1638 1620 1561 1554 1452 1594 1590 1522 1465 1446 1415
2047 2364 2159 1568 1992 1869 1284 1005 1132 1062 343 90 21 45 47 44 24 67 92 53 115 296 468 562 576 610 771 891 1017 1188 1406 1392 1509 1379 1548 1970 1718 1829 1972 1842 1770 1750 1687
1977 2490 2081 1477 1448 1716 1404 1563 1211 837 216 0 5 27 54 40 27 52 59 59 183 237 394 625 904 615 666 838 918 794 869 1104 1415 1460 1605 1727 1710 1878 2072 1947 1787 1775 1611
2431 2785 2254 1588 1475 1594 1428 1348 1336 988 168 15 35 32 82 28 15 39 44 29 5 14 96 256 662 1212 795 1007 1017 1022 963 909 834 890 961 912 1081 1559 1444 1253 1097 1305 1233
2743 2799 2937 2189 1693 1672 1677 1630 1479 561 198 17 54 35 54 40 28 29 21 12 4 3 2 8 328 565 464 663 308 356 749 1025 1129 1109 982 878 938 963 809 687 609 736 806
2553 2851 2439 2399 2127 1935 2845 2076 1675 1140 301 38 106 94 29 39 42 14 16 13 14 18 8 2 3 100 20 0 0 0 0 8 20 67 45 12 16 71 96 77 66 71 96
2335 2411 2666 2484 2721 1967 1961 2345 1725 1442 1396 99 30 0 206 394 34 48 31 24 5 9 4 11 7 0 3 9 0 0 0 0 0 0 0 0 0 0 0 0 0 0 0
2546 2214 2556 2526 2654 2775 2274 2390 2106 2042 1247 431 0 83 125 60 95 39 117 47 29 8 5 0 14 21 19 13 21 0 0 0 0 0 0 0 0 0 0 0 0 0 0
2047 2412 2379 2251 2356 2571 2582 2597 2454 2036 1698 812 16 66 28 0 0 6 8 22 29 39 24 22 18 20 37 50 36 38 4 3 0 0 0 0 0 0 0 0 0 0 0
1459 2543 2573 2746 2603 2876 2583 2692 2725 2048 2015 1243 867 8 40 77 11 0 0 0 3 17 13 28 36 22 18 30 45 27 295 75 0 0 0 0 0 0 0 0 0 0 0
1683 1736 2241 2513 2598 2564 2786 2802 2628 2227 1898 1593 958 309 20 98 115 46 3 0 3 6 18 63 11 11 5 4 38 72 7 61 61 12 1 0 0 0 0 18 29 57 37
1802 1926 2085 2561 2540 2654 2761 2866 2599 2447 1946 1791 1186 672 203 37 128 46 19 5 0 1 10 60 4 0 3 1 44 53 30 171 33 10 0 0 0 0 4 21 34 64 141
2876 2216 2401 2431 2462 2628 2810 2958 2553 2511 2315 1694 1039 679 549 44 120 67 13 0 0 0 0 0 1 6 0 5 46 49 86 44 22 0 2 0 0 0 0 0 0 44 93
3529 2955 2885 2508 2371 2601 2847 3091 3146 2385 2498 2140 1309 908 831 287 48 29 32 0 0 0 0 0 0 64 263 408 84 57 178 194 146 9 0 0 0 0 0 0 1 0 0
3678 3624 3142 2900 2598 2424 3039 2996 3021 2272 2479 2308 1887 1337 1005 434 510 527 116 461 253 107 0 133 37 43 539 427 679 666 455 133 135 35 0 0 0 0 0 0 0 0 0
3946 2880 3444 3800 3410 2916 3103 2944 3178 2931 2559 2501 2202 1862 1419 735 780 347 272 138 81 58 267 18 37 182 118 274 578 777 624 609 265 22 0 0 0 0 0 0 0 0 0
4041 3883 3943 4100 3680 3128 2940 2911 2908 3019 2943 2628 2555 2222 1742 1132 1015 669 374 435 179 128 405 113 12 11 163 311 179 65 458 696 395 110 27 4 5 0 0 0 0 0 0
3965 4086 4048 4112 3946 3046 2451 3426 3443 3007 3324 3165 2996 2558 2157 1340 563 574 392 989 1286 417 44 158 81 31 39 113 279 82 93 91 256 381 247 163 151 227 223 83 126 148 43
4102 4166 3980 4092 4098 3067 1901 1729 2625 3508 3680 3787 3482 2988 2427 1227 807 670 691 590 933 981 1058 175 143 353 457 383 359 206 155 112 127 280 368 334 263 331 475 490 125 55 7
4156 4213 4167 4155 4254 4129 1960 1581 1655 3086 3583 3553 3739 3204 2651 1980 1045 1094 1007 1020 1006 875 455 971 936 765 681 698 1041 718 421 341 273 303 586 394 275 263 219 114 0 0 0
4016 4130 4131 4180 4251 4113 2602 1743 1484 2679 3523 3536 3122 3093 3158 2809 1908 1403 1406 1246 1161 1054 714 483 490 1015 1242 881 832 743 586 409 521 453 445 229 71 13 10 5 0 0 0
4095 4082 4089 4269 4274 4165 2663 2224 1612 2456 2666 3812 3386 3195 3291 3258 2339 1644 1579 1617 1269 1111 869 617 82 228 446 183 282 335 219 146 154 94 181 25 6 8 1 0 0 0 0
3987 3341 3824 4109 3590 4165 3022 2343 1997 2174 2590 2668 3550 3896 2207 2715 2276 1757 1632 1895 1856 1385 950 741 390 122 118 4 0 134 115 124 29 0 22 0 0 0 0 0 0 0 0

GFSMA_con_mucape_027.txt.gz
CAPE
1726 1906 1529 2080 1889 1554 1164 899 1582 1149 1046 828 815 37 46 9 37 457 407 1482 995 577 848 963 1522 1096 1228 1391 1464 820 299 953 1269 949 1132 1130 1070 1052 751 506 492 823 745
1851 2450 1919 1904 1926 1893 1560 1216 1023 1632 646 730 159 39 50 46 2 113 289 601 1420 736 576 1185 1260 1662 1403 1385 1568 1377 1153 366 829 1423 1196 1410 1095 791 735 446 622 859 883
2085 2440 2370 1869 1990 1927 1760 1537 1348 531 585 38 20 32 206 37 39 13 284 321 504 1091 829 1237 1041 1602 1494 1436 1613 1612 1515 1494 1606 1517 1354 1277 1395 1382 1224 1149 878 756 796
2037 2467 1939 1436 1700 1417 1172 1534 1754 284 478 85 36 48 39 42 28 23 24 151 434 262 823 1015 981 1251 1162 1379 1470 1672 1658 1575 1538 1603 1655 1634 1616 1382 1474 1537 1525 1447 1408
2105 2369 1664 2535 2030 1730 968 962 910 702 121 26 35 39 45 35 162 34 12 53 76 416 247 1016 1152 949 1055 746 1084 1274 1394 1543 1659 1731 1601 1629 1679 1666 1726 1890 1729 1783 1761
2074 2405 2249 1798 1803 1235 1644 1215 1581 406 124 0 21 57 52 27 40 52 35 49 20 98 390 601 484 641 813 862 829 809 803 1027 1304 1454 1495 1678 1653 1626 1558 1465 1647 1595 1760
2115 2602 1973 2048 1727 2340 1589 1255 1176 758 45 22 26 40 28 21 35 33 39 14 0 20 34 297 986 636 596 1075 915 896 818 824 853 925 913 974 1037 1192 1350 1455 1134 1292 1630
2383 2743 2586 1897 1851 1828 1677 1660 1409 1501 39 0 271 69 87 19 16 27 18 7 7 6 2 15 303 928 801 833 478 572 939 1115 1277 1192 1043 901 1042 1119 967 759 643 788 920
2260 2851 2184 2086 2027 2308 2581 2067 1522 1237 793 0 184 182 101 590 36 16 0 18 1 8 6 1 16 32 143 3 0 0 6 46 36 63 22 0 3 39 71 47 33 30 65
2165 2350 2449 1932 2914 1956 2955 2365 1578 1849 1404 240 0 19 259 584 797 380 144 16 1 7 5 34 19 11 0 17 0 0 0 0 0 0 0 0 0 0 0 0 0 0 0
2655 2062 3083 2924 2905 2255 3027 2147 2113 2113 1428 1070 0 0 20 0 0 306 56 381 11 10 13 0 38 44 19 31 20 0 0 0 0 0 0 0 0 0 0 0 0 0 0
2350 3229 2600 3602 3204 3225 2669 2549 2789 2317 2190 1315 267 92 90 74 84 65 32 381 50 206 13 15 6 1 27 37 33 6 8 0 0 0 0 0 0 0 0 0 0 0 0
1173 2988 3584 3800 2664 3696 2845 3607 3615 2920 2282 1863 1688 29 55 71 53 7 1 6 8 38 12 10 26 14 8 10 44 70 95 0 0 0 0 0 0 0 0 0 0 0 0
1324 3007 3842 3557 3435 3392 3159 3760 2811 2499 2958 2008 1565 1431 71 83 108 65 25 17 13 10 20 32 26 14 23 10 108 157 22 118 73 19 0 0 0 0 0 25 20 16 0
1622 3193 3551 3592 3485 3566 3817 3944 2464 3348 3149 2719 2290 1847 502 32 65 84 39 18 4 52 440 175 0 188 9 14 33 0 20 113 145 8 0 0 2 19 43 47 27 27 75
3768 3496 3207 3314 3455 3732 3924 4201 3067 3456 3724 2565 1716 2607 1782 96 122 82 23 12 0 0 0 40 23 115 41 16 33 0 9 47 93 0 0 0 0 0 0 3 7 36 108
4479 3894 4220 3691 3721 3817 4065 4275 3806 3485 3751 3568 3003 2842 2248 2084 83 56 48 20 7 0 0 0 10 663 995 265 90 41 68 593 53 0 0 0 0 0 0 0 7 12 16
4300 4581 4332 4289 4130 3814 4017 4215 3946 2684 3727 3415 2977 2882 2053 1022 1924 1710 171 1502 319 564 0 1186 774 276 989 1359 1357 1637 430 73 385 35 1 0 0 0 0 0 0 0 0
4408 4203 4368 4539 4418 4009 4011 4278 4243 3966 3769 3675 3400 3277 2546 2247 2252 500 685 499 172 440 486 109 62 100 174 468 1223 1328 1646 1142 417 61 7 0 0 0 0 0 0 0 0
4425 4389 4353 4467 4461 4335 3944 3947 4083 4129 3947 3685 3677 3563 3229 2659 2321 2122 1618 1508 1236 627 492 215 58 3 80 858 425 401 899 747 657 257 59 44 3 0 0 0 0 0 42
4411 4463 4443 4410 4591 4420 3556 3926 3769 4018 4228 4022 3822 3849 3640 2823 1792 1824 1117 1399 1205 866 51 141 170 83 30 461 869 507 407 792 716 640 646 487 364 34 33 9 24 39 51
4550 4546 4510 4401 4378 4221 2825 2270 3002 3808 4224 4401 4206 4265 3999 2256 1667 1190 756 734 1099 1741 1129 203 154 292 1700 727 352 287 461 350 656 515 504 495 773 834 421 181 25 35 2
4631 4608 4520 4512 4464 4480 2964 2187 2108 3603 4059 4294 4405 4295 3918 2750 2126 1893 1107 540 651 700 797 1667 1348 1292 1424 1567 1508 754 1441 860 335 773 975 331 319 138 9 0 0 0 0
4594 4621 4616 4654 4573 4422 3465 2648 2067 2867 3701 4243 4197 4263 4300 3535 3063 2671 2278 1373 1122 970 1062 934 1350 1723 1766 1701 1093 1214 1390 1151 676 489 1021 211 103 6 0 0 0 0 0
4635 4556 4629 4671 4642 4540 3544 3204 2566 2671 3184 3566 4132 4177 4078 4140 3260 2110 2721 2600 1819 1249 1154 1213 980 695 426 348 545 1001 287 252 94 184 820 114 10 0 0 0 0 0 0
4654 4486 4562 4620 4280 4652 3996 3403 3054 2905 3104 3261 3662 4175 2903 3489 3305 2503 2470 2867 2565 1751 1355 1248 895 614 477 163 224 1062 313 327 243 258 65 11 2 0 0 0 0 0 0

GFSMA_con_mucape_030.txt.gz
CAPE
2279 2688 2803 891 762 533 376 894 1766 1824 1659 197 899 630 41 79 388 263 577 1896 1716 1583 1130 1462 1386 1412 1434 1485 827 364 990 1260 1057 1039 1260 1126 1056 1006 728 495 457 799 808
2399 2943 2788 1187 1829 873 687 1061 630 274 447 537 1313 314 45 23 145 643 339 1202 1583 1382 1592 1359 1699 1389 1412 1415 1549 1298 583 426 957 1309 1137 1335 1161 922 872 510 492 841 886
3154 1966 2393 1945 2149 2561 2628 2277 1107 465 86 273 178 360 44 208 25 66 143 190 947 1396 1280 1837 1887 2149 1499 1390 1661 1502 1439 1412 1224 1440 1265 1231 1604 1569 1310 1267 1156 836 878
2755 3439 1787 1294 626 2179 1972 1829 1892 885 660 372 272 121 166 48 20 82 226 435 283 287 1302 1901 1601 1952 1393 1432 1382 1517 1537 1821 1855 1830 1867 1860 1729 1639 1750 1894 1630 1781 1642
2805 3152 2729 2271 2337 815 2021 1828 1919 1996 467 208 190 68 342 73 34 32 66 414 435 213 309 1746 1682 1647 1158 980 1208 1254 1431 1878 1929 1801 1809 1708 1598 1899 1850 1759 1847 2049 1954
2962 3497 2675 2610 2088 991 2398 2462 2436 1355 871 141 31 202 166 84 264 137 89 154 783 445 236 496 1112 924 1322 1025 918 812 877 1162 1537 1652 1635 1782 1844 1904 1844 1713 1697 1751 1786
3213 3793 2812 1001 2360 1894 2456 2025 1918 1587 501 264 346 403 294 36 93 145 30 10 48 156 214 514 722 358 771 1316 990 926 792 809 854 1000 1096 1124 1117 1177 1145 1231 1094 1088 1380
3022 3200 2882 2237 2397 2357 2597 2673 2448 1720 526 105 960 157 197 181 44 46 64 0 39 20 27 808 634 778 688 777 908 1059 1150 1174 1197 1157 1018 991 1201 1358 1152 896 647 732 894
2789 3025 2840 3208 2281 2651 2306 2780 2633 2340 1493 321 1102 1233 207 147 365 117 23 13 3 12 0 82 371 793 862 0 30 29 233 241 251 160 73 41 171 213 101 28 0 0 15
2954 3162 3166 3207 3432 2800 2378 2413 3068 2575 2175 883 191 187 1036 971 552 136 253 97 104 2 93 44 27 22 136 0 3 0 0 0 0 0 0 0 0 0 0 0 0 0 0
2705 2778 2967 3338 3627 3036 2630 2485 2959 2931 2972 1602 537 431 702 783 790 597 526 386 147 145 108 89 38 22 115 0 0 0 0 0 0 0 0 0 0 0 0 0 0 0 0
2634 3095 3441 3086 3489 2751 3152 2923 3079 3487 2932 2802 1775 1617 581 423 574 580 389 300 169 301 146 47 10 80 108 30 0 0 0 0 0 0 0 0 0 0 0 0 0 0 0
2345 2538 3282 3382 2884 3123 3308 2846 3381 3566 3167 2775 2277 1563 1112 1348 1182 939 524 414 354 180 181 154 113 105 48 103 0 0 0 0 0 0 0 0 0 0 0 0 0 0 0
1644 2990 2584 3098 3156 3102 3103 3711 2984 2964 3077 2682 2977 1871 1224 1143 1053 742 692 787 291 129 510 250 152 236 121 144 0 0 0 0 0 0 0 0 0 0 0 9 54 146 183
2316 3280 2763 2789 2773 3130 3166 3308 2884 3245 3330 2872 2540 2628 1753 794 1065 936 810 611 573 460 320 631 171 70 421 3 29 0 18 0 0 0 0 0 0 0 0 0 22 31 31
2544 3824 3120 3062 3097 3164 3514 3367 3225 3197 3003 3149 2347 2154 1754 420 511 1043 759 648 514 304 235 152 358 33 21 241 32 193 146 6 0 0 0 0 0 0 0 0 0 1 8
4129 2858 4036 3351 3236 3180 3267 3530 3032 2804 3364 2875 2706 2576 1767 1115 910 849 649 765 611 507 125 231 780 699 522 143 1 65 57 20 0 1 0 0 0 0 0 0 0 0 0
2935 4060 3603 3444 3431 3123 3209 3183 3222 2415 3046 3125 2774 2675 2067 1353 1531 1582 1620 686 679 803 468 866 935 818 647 648 993 953 296 2 174 86 42 11 0 0 0 0 0 0 0
3931 3094 4036 3804 3283 3250 3126 3342 3204 3147 2522 3287 3071 2633 2307 1773 1606 858 1088 1399 892 1289 1574 554 722 1021 856 924 798 988 1186 805 582 150 27 20 10 0 0 0 0 0 0
3276 3674 3471 3601 3814 3351 3275 3157 3258 3312 3099 2857 3252 3055 2653 1978 1752 1622 1197 732 1369 638 740 1007 468 316 996 763 774 449 721 766 652 318 113 26 16 9 1 4 8 3 0
3481 3416 3551 3610 3509 3703 3438 3216 3161 3278 3385 3155 3005 3274 3007 2460 1858 1792 1122 1405 590 1512 904 468 477 592 480 790 582 473 567 418 637 468 187 42 25 48 28 18 18 7 0
3771 3860 3789 3656 3689 3613 3390 3112 2934 3197 3387 3332 3269 3116 3185 2770 2299 1842 1586 918 1133 660 701 413 391 349 449 646 818 435 389 376 158 738 318 324 388 291 89 53 23 14 0
4023 4004 3992 3968 3713 3717 3430 3230 2991 3103 3207 3283 3318 3353 3278 2946 2600 2244 1946 1708 955 819 666 576 401 512 933 1096 901 1181 924 790 433 554 232 141 207 253 9 1 3 0 0
4216 4117 4176 4186 4068 3919 3534 3391 3131 2749 3091 3147 3229 3301 3280 3137 2908 2519 2226 1974 1731 802 657 724 832 663 1275 1599 1630 1348 955 894 694 470 356 82 203 217 8 0 0 0 0
4288 4317 4257 4301 4294 4144 3774 3517 3333 3032 2681 2946 3250 3330 3345 3318 3131 2694 2396 2154 1967 1726 756 488 603 895 843 720 1158 574 542 377 285 216 242 146 148 120 0 0 0 0 0
4442 4404 4393 4341 4233 4298 4048 3845 3555 3285 2838 2640 2904 3228 3257 3316 3277 3014 2531 2270 2129 1801 1395 732 551 700 866 869 671 641 340 189 165 140 165 153 59 0 0 0 0 0 0

GFSMA_con_mucape_033.txt.gz
CAPE
773 788 1211 825 697 634 267 554 845 366 637 249 69 24 391 264 181 253 884 1737 1945 1976 1769 1488 1603 1431 1247 737 795 1191 1203 1137 1218 1231 1250 1127 1014 1117 697 486 500 837 855
1161 1102 902 551 571 492 506 516 395 1 215 195 153 35 132 180 131 163 719 1288 1874 1956 1791 1783 1427 1420 1375 1553 1258 493 431 1190 1293 1130 1164 1406 1210 1196 1018 623 489 843 974
1388 973 649 883 836 1206 860 931 504 361 118 156 226 55 30 116 108 75 296 802 1166 1409 2104 1964 2178 1841 1579 1422 1551 1482 1294 884 796 1177 1372 1203 1528 1510 1397 1252 1254 1036 1008
1450 1134 1208 867 973 1062 1442 1081 688 604 302 272 46 61 33 23 165 68 136 181 371 424 1661 2011 1946 2209 1479 1342 1544 1618 1577 1910 1806 1746 1813 1742 1724 1592 1645 1671 1592 1749 1667
1503 1720 1141 865 1142 649 874 929 904 1120 316 235 64 51 35 32 36 57 131 140 187 344 931 1953 1682 1757 1365 1288 1281 1459 1550 1925 1827 1761 1773 1840 1779 1811 1967 1780 1602 1824 1859
1528 1692 1415 1059 784 499 1038 1167 480 31 0 1 17 20 19 23 17 36 188 113 126 209 495 1000 1027 1171 1226 1141 1099 1082 1188 1452 1578 1784 2032 2023 1884 1961 1958 1765 1453 1579 1611
1663 1977 1649 1210 1215 716 1221 822 385 399 0 0 17 8 0 9 25 21 70 114 103 72 130 381 302 473 613 1203 764 747 782 784 1181 1241 1301 1122 1115 1176 1156 1062 903 1010 1225
1885 1857 1311 1147 1234 1133 1162 857 970 525 59 0 101 27 4 0 9 1 4 23 29 31 122 144 190 187 511 318 751 1437 1509 1198 1197 1138 1021 1088 1285 1285 1096 779 647 706 707
1892 1545 1546 1382 1492 1315 1373 1171 1263 799 58 4 13 88 5 0 12 12 9 0 13 15 194 541 291 172 174 239 414 328 762 781 712 482 270 197 269 227 124 23 0 0 0
1655 1636 1592 1206 1508 1089 791 1158 1270 839 538 0 0 22 54 91 0 0 0 0 0 0 34 156 171 177 56 0 0 0 7 0 0 0 0 0 0 0 0 0 0 0 0
1754 2020 1744 1527 1506 1741 1307 993 1139 1323 1281 451 0 0 0 7 22 39 1 3 0 0 0 0 0 141 2 0 0 0 0 0 0 0 0 0 0 0 0 0 0 0 0
1262 1716 2094 1777 1754 1583 1346 987 1314 1550 957 1478 329 187 0 0 0 0 1 4 0 0 0 0 0 0 0 0 0 0 0 0 0 0 0 0 0 0 0 0 0 0 0
1368 1608 2086 1820 2051 1581 1714 1355 1333 2005 1307 1210 1394 83 183 0 32 0 39 15 0 0 0 0 0 0 0 0 0 0 0 0 0 0 0 0 0 0 0 0 0 0 3
1559 1505 1864 2213 1783 1777 1831 1615 1602 1799 2014 1254 1638 649 61 102 152 0 0 0 0 0 0 0 0 0 0 0 0 0 0 0 0 0 0 0 0 0 0 0 4 53 76
1095 1714 1660 2370 2028 1736 1705 2122 1826 1583 2215 1624 1108 1482 546 66 42 115 14 0 0 0 0 0 0 0 0 0 0 0 0 0 0 0 0 0 0 0 0 0 0 0 7
1274 1221 1788 1679 2139 2070 1916 1782 2412 2293 1848 2114 1655 1332 1255 696 85 74 76 13 0 0 0 99 0 0 0 0 3 0 0 0 0 0 0 0 0 0 0 0 0 0 0
1588 1300 2087 1748 1942 1935 2321 2053 1802 2344 2391 2095 2023 1663 1297 1098 282 52 134 98 20 0 0 0 0 0 4 0 0 0 0 0 0 0 0 0 0 0 0 0 0 0 0
1716 2492 2447 2152 2252 2023 2048 2459 2173 2138 2235 2363 2173 1927 1682 1333 831 159 601 51 50 27 0 0 351 189 0 1 0 0 0 0 0 0 0 0 0 0 0 0 0 0 0
2196 1730 2676 2572 2391 2327 2395 2237 2397 2484 2228 2212 2332 2172 1908 1598 1289 845 470 608 157 18 150 0 290 146 65 143 64 30 15 7 13 67 141 73 8 0 0 4 0 0 0
1927 2829 2046 2536 2617 2454 2290 2404 2350 2359 2447 2038 2397 2525 2196 1982 1650 1433 1005 402 506 352 515 429 21 309 354 380 135 182 304 382 252 242 201 101 57 27 13 10 3 7 4
2174 2256 2733 2778 2694 2644 2525 2385 2444 2483 2445 2483 2063 2374 2657 2569 2303 1859 1333 949 315 577 361 292 262 97 40 514 482 256 80 106 309 313 319 192 68 22 1 14 7 9 11
2167 2445 2753 2390 2661 2825 2878 2633 2523 2539 2552 2532 2573 2242 2492 2700 2673 2471 2089 1562 724 88 558 417 217 246 157 16 379 334 239 219 273 184 184 181 94 74 19 17 46 19 4
2929 2547 2319 2821 2531 2768 2968 3081 2956 2716 2605 2625 2623 2640 2451 2556 2802 2740 2503 2264 1922 1288 599 387 344 154 114 153 138 339 266 177 128 37 164 79 80 29 50 52 9 0 0
3072 3174 3038 2679 3061 2907 2926 3091 3162 3184 2947 2659 2780 2764 2702 2638 2586 2776 2788 2615 2369 2129 1723 1188 323 234 148 71 140 205 211 203 115 71 84 43 15 14 2 2 0 0 0
3246 3262 3363 3328 3227 3271 3340 3249 3214 3317 3220 3076 2880 2823 2921 2842 2819 2776 2787 2743 2617 2491 2204 1855 1431 670 130 742 753 658 302 312 280 134 35 45 78 30 13 1 0 0 0
3513 3537 3462 3616 3508 3501 3534 3519 3527 3401 3233 3149 3077 3004 2886 2956 3040 2993 2875 2785 2764 2621 2397 2149 1849 1496 914 381 546 407 491 292 318 136 110 25 50 89 41 15 22 0 0

GFSMA_con_mucape_036.txt.gz
CAPE
580 663 675 498 488 419 289 459 636 527 286 56 50 661 713 406 113 671 1300 1968 2341 2057 1568 1550 1218 728 686 1117 1226 1158 1194 1347 1458 1256 1178 1174 1051 1055 652 500 531 789 835
817 800 754 544 637 419 351 317 484 19 64 102 71 466 473 186 67 327 640 1220 1958 2077 1946 1446 1573 1460 1384 848 617 965 1315 1322 1093 1138 1268 1298 1179 1234 1136 698 495 750 985
942 711 748 426 434 474 546 446 314 126 61 99 122 134 186 130 45 117 667 738 1289 2043 2057 1961 1726 1625 1389 1632 1621 1034 555 698 905 1255 1396 1304 1490 1368 1205 1161 1192 1171 989
1131 890 604 563 592 690 873 833 425 269 175 178 60 40 78 56 53 54 311 476 601 528 1900 2108 2069 2034 1592 1545 1678 1577 1581 1441 1441 1560 1739 1612 1628 1493 1517 1522 1574 1573 1457
1192 901 816 660 617 745 892 633 591 837 304 271 201 45 40 70 71 46 58 43 143 280 1230 1560 1691 1383 1431 1340 1438 1546 1654 1653 1697 1641 1621 1715 1719 1709 1631 1602 1494 1547 1523
1460 1183 863 728 881 471 724 799 231 0 0 33 19 34 31 26 68 48 66 38 86 201 642 841 726 728 1230 1253 1169 1244 1405 1508 1536 1601 1709 1870 1851 1718 1676 1600 1335 1271 1249
1151 1264 1139 1041 644 547 839 384 114 20 0 3 5 0 6 4 17 44 53 70 51 131 210 492 440 578 591 1071 832 751 684 789 1006 1080 1228 1639 1302 1146 999 870 867 948 872
1128 1353 1285 1048 958 672 897 670 678 209 0 0 7 0 0 0 16 19 50 60 52 53 64 161 105 161 388 453 449 1100 1207 922 1040 1108 968 940 1019 1039 862 642 531 384 314
1283 1504 1098 1073 883 881 945 761 804 362 0 0 16 6 1 0 0 5 45 36 50 29 67 86 112 70 248 77 692 686 970 835 713 588 457 377 362 255 97 9 0 0 0
1298 1429 1188 1194 1091 1249 1043 913 1052 492 172 0 0 37 19 7 0 0 0 0 12 9 28 118 124 139 48 83 13 5 506 296 160 0 0 0 0 0 0 0 0 0 0
1343 1339 1092 1130 932 1167 924 779 1113 719 584 3 0 4 0 0 1 0 0 0 0 0 10 192 132 133 121 1 0 0 0 0 0 0 0 0 0 0 0 0 0 0 0
1065 1390 1200 1211 1009 1240 1029 1007 752 1299 834 861 7 0 0 13 0 10 0 0 0 0 0 20 31 89 86 0 0 0 0 0 0 0 0 0 0 0 0 0 0 0 0
832 1134 1508 1398 1601 1320 1408 1168 938 1283 949 1168 458 154 0 0 4 0 0 16 6 0 0 0 0 0 65 0 0 0 0 0 0 0 0 0 0 0 0 0 0 3 5
682 739 1453 1782 1782 1551 1314 1054 1052 1155 1475 779 949 522 80 57 81 117 62 23 31 25 6 0 0 0 0 0 0 0 0 0 0 0 0 0 0 0 0 0 2 30 36
1013 882 1045 1530 1590 1630 1417 1323 1219 1031 1635 1626 818 1105 510 42 37 109 41 31 0 0 20 1 0 1 3 0 0 0 0 0 0 0 0 0 0 0 0 0 0 0 0
982 1280 1156 1536 1616 1715 1656 1410 1540 1299 1420 1694 1656 828 1020 528 73 33 123 45 17 0 3 11 13 17 22 1 0 0 0 0 0 0 0 0 0 0 0 0 0 0 0
1383 1072 1407 1348 1697 1673 1772 1547 1517 1775 1557 1551 1836 1702 1019 766 394 111 30 110 86 25 14 7 25 57 14 1 5 0 0 0 0 0 0 0 0 0 0 0 0 0 0
1071 1680 1255 1424 1544 1736 1732 1701 1440 1529 2190 2270 1870 1963 1858 1494 1048 390 61 47 136 118 71 7 0 72 21 22 8 14 1 0 0 0 0 0 0 13 19 7 0 0 0
980 1392 1694 1532 1514 1630 1747 1890 1698 1636 1610 1947 2164 2017 2024 1871 1621 1336 631 33 165 166 106 50 19 94 162 75 32 11 11 18 0 0 0 0 4 31 19 29 0 0 0
1595 1064 1671 2055 1971 1844 1753 1713 1959 1922 1791 1785 1837 2003 1980 2054 2000 1779 1454 915 131 317 249 81 27 16 171 47 30 21 9 1 13 0 4 17 70 95 35 4 5 0 0
1933 1918 1191 1663 2246 2287 2274 2135 1864 1889 2096 2138 2015 2066 2149 2083 2023 2019 1859 1676 1178 709 269 379 99 50 78 80 56 14 0 0 23 37 30 74 145 82 33 23 11 7 0
1346 1735 2000 1923 1822 2238 2373 2430 2377 2237 2016 1997 2049 1980 1929 2196 2331 2406 2458 2409 2308 1916 1249 226 238 152 53 38 76 39 22 19 45 38 72 89 104 116 65 45 25 27 23
2049 1747 1464 1951 2051 2133 2372 2515 2544 2484 2401 2270 2134 2075 2084 1947 2101 2216 2330 2512 2569 2475 2291 1735 988 192 112 51 8 56 97 53 52 43 40 36 54 49 60 73 35 23 10
2659 2579 2250 1964 2152 2092 2154 2552 2731 2698 2564 2488 2482 2471 2410 2321 2240 2170 2250 2168 2289 2479 2554 2423 2025 1611 1166 586 207 15 15 66 61 66 90 63 36 31 44 56 33 34 31
2663 2660 2732 2574 2343 2181 2493 2452 2632 2838 2863 2892 2870 2813 2782 2734 2690 2621 2522 2403 2330 2230 2270 2487 2415 2089 1764 1413 1070 675 82 21 33 63 83 69 65 65 10 14 18 33 5
2863 2799 2745 2839 2868 2797 2753 2828 2874 2811 2710 2727 2760 2891 2973 3001 3041 3037 2942 2858 2769 2631 2529 2422 2243 2201 2157 2009 1740 1424 938 104 7 15 114 55 56 99 23 0 1 5 1

GFSMA_con_mucape_039.txt.gz
CAPE
447 646 544 301 306 328 342 311 438 213 78 52 92 520 623 637 187 654 1104 1889 2218 1795 1488 882 622 1070 1349 1297 1200 1234 1445 1390 1310 1040 999 1195 1014 1021 679 502 521 744 842
492 533 606 395 501 543 389 268 447 25 50 70 389 535 511 485 130 524 963 1482 2357 1986 1426 1524 1161 741 703 919 1152 1219 1232 1218 1159 1218 1313 1270 1152 1229 1036 975 537 612 873
715 780 646 576 385 335 231 225 395 126 61 74 183 352 335 185 58 207 430 812 1269 1769 1559 1396 1603 1442 1363 1082 590 467 658 1208 1223 1289 1350 1321 1393 1395 1171 1255 1296 1425 1384
881 579 530 448 394 463 527 346 391 242 96 74 58 92 138 94 50 56 380 484 709 1043 1388 1581 1375 1596 1307 1346 1458 1489 1205 602 620 941 1422 1507 1335 1418 1365 1414 1282 1278 1394
817 798 700 570 518 659 707 591 537 644 157 167 84 30 75 62 49 25 111 212 237 206 1019 1430 1554 1653 1277 1093 1321 1285 1478 1514 1499 1522 1496 1497 1540 1459 1404 1434 1256 1046 967
1201 785 854 583 523 623 412 427 78 0 36 55 33 16 25 53 61 29 39 37 59 115 631 823 562 715 1070 1004 1127 1204 1257 1362 1501 1524 1500 1471 1417 1206 1189 1156 962 912 823
1295 874 792 730 685 498 569 494 50 0 0 12 5 0 4 6 46 54 57 68 82 87 216 386 262 284 487 992 961 793 685 711 849 1001 1113 1218 896 773 606 500 626 660 710
1103 1279 812 929 666 607 735 457 228 0 0 0 0 0 0 0 4 17 41 86 61 69 44 152 115 187 162 380 333 721 795 760 830 929 798 754 804 796 594 423 270 78 28
787 1191 1152 1080 877 804 596 531 569 30 0 0 3 0 0 0 0 4 16 46 37 32 16 14 46 27 92 179 368 515 834 702 652 527 410 360 323 224 45 0 0 0 0
794 1238 1170 929 879 881 858 738 695 387 0 0 0 0 0 0 0 0 0 7 5 19 9 8 58 96 69 44 120 131 600 368 425 119 3 0 0 0 0 0 0 0 0
788 1197 1292 981 1064 993 1110 944 825 706 301 0 0 0 0 0 0 0 0 0 0 4 0 11 66 138 133 75 0 0 172 89 7 0 0 0 0 0 0 0 0 0 0
706 1077 1226 1158 988 895 1067 930 680 781 524 92 0 0 0 0 0 0 0 0 0 0 0 0 41 173 160 105 0 0 45 0 0 0 0 0 0 0 0 0 0 0 0
718 892 1170 1177 985 991 964 973 804 731 1064 842 532 0 0 0 0 0 0 0 0 3 3 2 5 195 152 110 22 0 6 0 0 0 0 0 0 0 0 0 0 0 0
582 725 1093 1273 1081 1122 1379 1155 1201 1061 959 845 920 269 115 45 0 0 5 38 0 22 52 38 16 17 18 64 48 2 0 0 0 0 0 0 0 0 0 0 0 0 0
649 586 785 1099 1198 1240 1576 1535 1144 955 976 1186 789 772 454 98 68 66 112 120 56 70 16 28 44 19 18 17 2 0 0 0 0 0 0 0 0 0 0 0 0 0 0
697 578 619 905 1255 1418 1594 1579 1366 1020 1070 1079 1359 1135 845 746 203 57 87 124 105 87 33 31 53 46 45 54 34 0 0 0 0 0 0 0 0 0 0 0 0 0 0
648 817 827 829 1017 1108 1270 1482 1566 1356 1099 1025 1277 1509 1471 790 797 467 64 57 137 159 115 63 11 24 48 56 20 7 0 0 0 0 0 0 0 0 0 0 0 0 0
845 837 947 1032 1066 1202 1229 1320 1554 1639 1360 1336 1357 1420 1521 1681 1456 858 403 83 55 126 214 194 102 22 10 71 33 12 0 0 0 0 0 0 0 0 0 3 4 0 0
934 916 1120 1281 1212 1301 1427 1407 1425 1573 1636 1480 1439 1562 1740 1678 1735 1709 1546 1196 148 28 93 147 213 147 85 1 6 12 6 0 0 0 0 0 0 0 0 0 9 11 0
1245 1186 972 941 1174 1492 1439 1563 1615 1612 1599 1592 1633 1711 1859 1967 1894 1697 1707 1705 1454 790 5 4 79 139 113 60 29 23 10 3 1 0 1 0 0 0 0 0 16 4 3
1334 1364 1390 1254 1313 1461 1643 1615 1644 1737 1708 1648 1576 1573 1620 1692 1793 1846 1669 1652 1729 1643 1432 451 39 19 116 101 48 27 5 0 2 1 0 0 0 0 0 12 52 18 1
1510 1374 1275 1290 1305 1574 1716 1841 1877 1916 1820 1814 1727 1647 1614 1733 1816 1900 1937 1929 1802 1717 1650 1624 1484 1238 843 313 7 9 4 0 0 1 0 0 3 1 0 10 45 21 34
1256 1401 1487 1267 1190 1222 1516 2025 2064 1993 2028 2077 2110 2026 1948 1842 1899 1959 1973 2094 2133 2141 2109 1832 1719 1534 1281 1130 994 691 118 0 0 1 0 0 0 1 20 9 44 37 20
1606 1497 1373 1368 1478 1501 1631 1617 1995 2199 2046 2084 2075 2043 2082 2115 2145 2196 2219 2233 2213 2134 2033 1994 1991 1872 1749 1714 1669 1607 1300 945 694 406 108 0 4 1 18 57 65 86 59
2172 2074 1963 1830 1666 1535 1759 1971 2075 2145 2211 2215 2206 2258 2338 2390 2410 2483 2571 2625 2656 2679 2709 2707 2617 2484 2289 2065 1868 1926 1874 1646 1311 1073 781 425 45 0 7 43 36 54 129
2371 2415 2503 2518 2437 2363 2318 2258 2126 2114 2081 2115 2258 2413 2533 2635 2707 2829 2874 2888 2874 2765 2686 2761 2499 2483 2446 2460 2412 2343 2123 2001 1743 1498 1230 665 447 128 5 0 47 94 81

GFSMA_con_mucape_042.txt.gz
CAPE
491 549 443 198 298 314 282 239 427 46 66 66 60 665 623 361 219 825 1260 1584 1314 1201 645 719 1435 1291 1287 1316 1430 1458 1305 1349 1202 806 862 1179 938 1018 704 576 469 665 911
356 435 518 408 379 470 332 193 173 43 59 94 406 421 384 427 306 704 942 1543 1563 1265 1314 919 583 618 933 986 985 1029 1139 1263 1241 1228 1284 1227 1117 1156 937 968 810 955 1027
418 381 461 554 406 351 166 296 260 78 65 78 230 299 329 233 218 527 662 868 1442 1421 1005 1319 1221 851 714 658 609 810 994 1126 1043 1108 1306 1197 1274 1246 1263 1358 1314 1106 1037
589 660 485 492 338 441 441 440 302 224 87 69 103 139 179 87 56 153 473 602 812 937 1341 1082 1184 1425 1348 1329 1193 725 518 377 422 555 952 1022 1226 1138 1224 1180 1148 942 874
619 652 452 407 408 512 606 619 331 462 179 113 60 62 81 75 49 58 283 378 351 396 1035 1138 1232 1154 1230 1001 1079 1109 1138 1318 1383 1413 1377 1351 1303 1110 1068 946 893 833 866
693 827 508 463 492 517 396 355 82 34 68 88 81 25 49 51 60 35 46 68 62 194 522 1004 752 809 1028 825 1000 872 1153 1270 1317 1165 1273 1311 1152 828 895 878 645 625 625
968 955 705 446 442 412 446 339 63 0 28 14 27 19 13 1 25 39 37 33 57 101 299 544 411 427 469 838 996 870 674 659 759 946 1057 1224 927 789 489 536 466 385 407
1006 1068 658 567 453 408 545 333 102 12 0 0 0 0 0 0 1 14 19 22 32 35 136 272 260 285 271 364 374 437 598 621 680 844 697 613 662 597 421 253 105 0 0
740 1152 1119 656 695 564 576 472 255 0 0 0 0 0 0 0 0 0 0 4 32 14 17 45 138 125 122 249 205 500 680 513 563 446 346 329 315 214 50 0 0 0 0
582 917 989 1002 858 722 681 550 399 196 0 0 0 0 0 0 0 0 0 0 1 2 8 1 68 115 116 155 65 170 252 282 403 201 38 1 0 0 0 0 0 0 0
408 933 934 958 809 747 720 832 639 521 114 0 0 0 0 0 0 0 0 0 0 0 4 16 60 150 146 126 89 0 13 102 45 20 0 0 0 0 0 0 0 0 0
385 729 1009 1017 926 920 817 963 865 634 420 160 0 0 0 8 0 0 0 0 0 0 1 2 2 127 253 178 80 11 0 8 0 0 0 0 0 0 0 0 0 0 0
381 550 798 915 1015 929 826 945 943 691 584 527 300 57 0 0 0 0 0 0 0 11 18 16 9 17 171 236 99 78 0 0 0 0 0 0 0 0 5 2 0 0 0
327 519 699 823 878 948 879 851 931 849 922 782 816 697 317 0 0 0 0 0 9 24 8 129 60 32 40 252 161 106 18 0 0 0 0 0 0 0 0 0 2 2 7
261 445 628 927 906 962 948 993 1355 1024 1051 992 829 650 689 525 155 3 0 29 73 72 39 39 56 30 52 34 164 199 92 4 0 0 0 0 0 0 0 0 0 0 0
368 503 570 795 989 1034 1015 1024 1304 1509 1159 984 926 1044 887 632 654 310 49 45 48 65 89 55 23 24 33 54 66 142 43 8 0 0 0 0 0 0 0 0 0 0 0
155 360 583 579 899 1069 1142 1111 1345 1505 1426 1235 1035 1113 1108 1166 988 652 555 280 39 25 95 154 162 96 37 5 25 87 59 26 1 0 0 0 0 0 0 0 0 0 0
259 417 596 582 713 947 1047 1151 1218 1360 1419 1519 1358 1139 1321 1234 1325 1360 1368 901 371 123 20 37 71 132 158 124 48 3 24 21 1 0 0 0 0 0 0 0 0 0 0
400 383 508 706 776 978 1098 1133 1203 1325 1475 1479 1593 1471 1378 1317 1446 1379 1489 1544 1304 947 217 9 6 10 37 59 100 68 10 2 0 0 0 0 0 0 0 0 0 0 0
582 593 610 718 874 1025 1262 1343 1329 1344 1386 1578 1670 1613 1582 1531 1554 1720 1473 1567 1561 1525 1491 1413 826 418 97 0 7 47 49 7 0 0 0 0 0 0 0 0 0 0 0
728 699 731 764 849 1028 1141 1461 1595 1560 1520 1484 1539 1685 1771 1685 1525 1532 1705 1632 1290 1359 1290 1158 1076 927 931 912 729 403 347 223 108 10 0 0 0 0 0 0 0 2 0
1069 1033 1014 1012 854 966 935 1036 1323 1726 1757 1690 1627 1566 1625 1594 1637 1637 1630 1615 1555 1517 1349 1256 1037 1075 1042 831 828 872 867 839 558 267 72 45 1 0 2 7 10 24 29
1252 1125 1054 1030 997 1177 1198 1221 1284 1574 1740 1827 1847 1823 1791 1754 1777 1823 1759 1782 1747 1849 1896 1971 1884 1869 1784 1673 1570 1495 1373 1262 1150 1088 1088 1136 809 465 180 41 1 5 1
1103 1283 1397 1234 1113 1031 1004 1324 1411 1403 1673 1792 1844 1924 1964 2061 1983 1875 1979 2064 2005 2058 2167 2268 2385 2456 2486 2488 2525 2480 2435 2205 2182 1929 1808 1634 1457 1324 1082 688 263 18 0
1359 1291 1242 1326 1471 1420 1172 1071 1202 1331 1694 1846 1969 2061 2056 2069 1870 1851 1970 2094 2223 2333 2428 2489 2471 2459 2486 2478 2426 2367 2284 1966 2074 1810 1794 1627 1510 1245 1370 1379 1101 600 6
1856 1754 1574 1505 1488 1459 1420 1411 1460 1557 1453 1621 1992 2175 1978 2029 2091 2160 2330 2562 2750 2719 2636 2606 2629 2602 2666 2726 2761 2686 2576 2363 2118 1964 1607 1530 1653 1473 1210 1222 1164 908 535

GFSMA_con_mucape_045.txt.gz
CAPE
1492 1353 1212 927 1140 1267 878 1068 1084 710 869 555 904 1164 1165 1029 483 484 1120 1126 1187 825 637 1448 1554 1369 1173 1310 1484 1394 1275 1256 944 671 851 975 828 995 801 916 619 677 819
1462 1625 1912 1221 1446 1473 1240 1241 752 539 752 1040 1228 1127 1198 967 547 498 575 1238 1178 999 967 483 640 829 1093 943 853 977 1157 1277 1148 1085 1137 1031 1087 1094 1043 911 1100 1177 1035
1080 1442 1573 2036 1451 1356 1034 1491 1268 839 546 803 1190 1116 1072 906 564 425 452 639 1058 1009 884 987 828 575 539 574 676 892 988 1036 886 877 1040 1198 1006 858 1031 1164 1135 920 874
1078 1762 1618 1462 1424 1318 1239 1344 1187 630 475 397 787 833 902 680 479 265 343 414 551 559 1098 907 911 1195 1142 1087 945 611 419 429 384 446 606 1069 900 1008 957 800 800 818 805
1295 1678 1525 1576 1675 1638 1639 1400 1478 1259 805 303 240 491 690 591 307 74 443 504 520 547 753 1122 1054 917 968 820 1066 1078 1105 1244 1294 1265 1181 1175 1119 952 712 778 710 635 691
1383 1803 1562 1619 1552 1896 1447 1412 416 84 660 646 65 53 157 308 432 145 287 314 326 426 614 966 768 674 760 885 892 883 854 1124 965 1072 1045 1123 993 791 626 692 467 542 560
1638 2002 1651 1546 1596 1593 1547 1423 490 261 93 107 92 72 63 47 338 274 260 296 429 368 497 692 626 494 462 659 916 850 661 654 701 811 886 1011 800 685 438 429 420 305 385
1901 2127 1891 1652 1625 1472 1785 1431 1109 75 64 55 55 63 36 38 35 117 283 384 505 486 444 522 679 658 603 287 326 447 562 652 685 791 630 524 579 539 383 204 51 0 0
1864 2255 1946 1683 1674 2060 2382 1712 1157 331 46 137 57 32 21 23 47 27 139 327 682 641 586 554 552 617 665 487 278 183 680 401 485 400 315 294 302 239 69 0 0 0 0
1638 2017 2288 1956 2148 1678 2021 1725 1475 734 291 163 156 73 59 74 16 18 11 161 365 630 650 586 392 596 753 552 303 186 137 351 315 267 139 47 13 1 0 0 0 0 0
1629 1699 2035 1986 2236 2148 2030 1993 1923 1648 331 79 111 451 585 73 19 6 18 34 31 109 275 688 458 558 770 737 558 296 22 252 163 103 0 0 0 0 0 0 0 0 0
1431 1625 1819 2113 2138 2024 2143 2087 2170 1972 1592 691 74 297 365 331 244 137 66 308 234 216 307 479 542 513 664 837 803 303 15 48 55 0 0 0 0 0 0 0 0 0 0
1191 1594 1928 2111 2054 2300 2231 2093 2234 1952 1961 1566 1476 188 34 80 151 293 262 293 284 413 356 441 501 520 539 860 872 674 453 9 5 0 0 0 0 60 65 10 0 0 0
768 1422 1933 1927 2112 2230 2225 2196 1979 1986 1975 1947 1884 1792 1178 634 76 136 199 216 296 651 601 936 671 638 652 785 932 741 596 138 0 0 0 0 0 0 2 20 70 105 67
600 1326 1760 1886 1980 2083 2212 2292 2054 2301 2105 2270 2161 2213 1917 1420 914 514 257 276 463 559 442 589 515 813 700 746 844 996 988 564 145 0 0 0 0 0 0 0 0 0 0
991 990 1783 1893 2061 2097 2225 2394 2086 2313 2550 2347 2063 2182 2167 1526 1475 1124 842 624 497 516 584 499 575 689 725 452 559 649 848 503 236 37 0 0 0 0 0 0 0 0 0
1319 1550 1862 1947 2063 2133 2249 2476 2396 2245 2552 2633 2466 2300 2389 2413 1975 1699 1371 1092 898 643 600 546 663 557 909 1102 819 631 647 738 525 28 0 0 0 0 0 0 0 0 0
1389 1620 1702 1908 2031 2060 2141 2333 2266 1998 2454 2522 2597 2608 2458 2148 2449 2451 2150 2041 1507 1351 886 1646 1193 747 977 1010 1202 1170 826 400 438 154 0 0 0 0 0 0 0 0 0
1718 1325 1560 1775 1998 2002 2122 2237 2312 2378 2411 2398 2485 2695 2727 2619 2614 2278 2427 2238 2118 2023 1655 1281 1297 987 743 489 794 996 799 880 554 154 0 0 0 0 0 0 0 0 0
1816 1769 1764 1902 1849 1979 2062 2155 2268 2423 2495 2472 2561 2612 2709 2798 2855 2919 2779 2772 2652 2489 2451 1985 1695 1581 1574 1700 1122 854 848 802 661 375 202 206 114 16 0 0 0 0 0
1976 2018 1905 1743 1827 1801 1703 2128 2343 2521 2626 2672 2677 2737 2771 2584 2223 2409 2687 3236 2859 2604 2288 2041 1861 1730 1626 1567 1643 1333 1270 1246 1391 1058 835 625 487 266 147 19 0 0 0
1953 2180 1835 2059 1924 1656 1059 1156 1739 2301 2742 2869 2824 2806 2815 2097 1927 1703 1662 1638 1947 3437 2902 2574 2433 2534 3593 2846 2462 2260 2057 1903 2029 1944 1572 1475 1426 1407 1224 1114 920 528 1
2061 2213 1922 1983 2199 2480 1325 1063 1061 1927 2421 2699 2897 2954 2895 2495 2207 2657 2306 1977 1802 1814 1840 2891 3445 3551 3826 3350 3543 3310 3439 3065 2588 2324 2033 1839 1516 1458 1342 1315 1320 1460 1217
2608 2519 2198 2295 2304 2526 1589 1168 982 1411 2602 3004 3092 2898 3199 3240 2998 2579 2726 2738 2833 2951 2459 1846 2083 2685 3381 3487 4017 3513 3177 2895 2156 2081 2110 1678 1640 1623 1805 1789 1629 1538 1394
2151 2419 2321 2486 2460 2532 1536 1211 1132 1615 2093 2889 2997 2970 3002 3043 2510 2281 2591 2726 2966 3090 2497 2375 2322 2519 2553 2522 2543 2575 2591 2664 2423 2180 2359 1913 1800 1769 1808 1877 1238 777 1118
2136 2003 2115 2396 2240 2773 2031 1367 1165 1601 2071 2022 2899 3132 2122 2049 2311 2165 2221 2600 3074 3148 3286 3570 3591 2968 2675 2875 2972 3054 2885 2795 2742 2450 2260 2558 2034 1414 935 1191 945 666 635

GFSMA_con_mucape_048.txt.gz
CAPE
1219 1108 1201 1043 1030 971 813 843 758 854 1206 988 1032 946 721 345 167 464 1201 1165 1147 645 1245 1604 1590 1446 1168 1348 1492 1277 1295 1093 737 665 860 789 761 871 821 899 876 1104 961
1794 1061 954 1182 1506 1145 974 794 684 375 164 492 1134 858 705 558 484 289 629 1103 931 1040 649 528 899 1017 1134 981 885 1084 1243 1229 1107 946 951 814 1002 1045 958 1019 1028 959 791
1905 1114 1118 1079 1401 1313 1365 1057 663 355 116 148 768 826 615 714 542 527 478 591 967 918 952 1083 673 547 558 597 662 846 919 976 846 736 722 876 934 900 894 972 978 812 805
1718 1696 1067 1155 1385 1035 790 341 120 446 400 82 293 385 367 446 522 509 486 502 431 890 1000 821 914 1022 972 1080 1012 752 539 493 415 447 599 1079 1130 971 753 685 607 712 683
1829 1727 1300 1942 1474 1064 1088 454 234 304 149 74 73 88 91 212 212 214 530 341 336 394 611 982 882 785 852 666 802 1097 1111 1147 1136 1081 1093 1036 964 882 676 686 640 512 562
1854 2113 1553 1382 1242 753 967 959 529 314 202 87 44 40 73 68 182 152 189 144 90 201 266 769 1022 785 755 735 1020 909 815 925 1006 1027 1004 1023 744 694 581 621 361 461 472
1971 2410 1870 1118 1258 795 862 1220 585 952 176 133 74 29 21 41 357 229 145 76 204 142 244 286 437 524 793 801 867 780 575 540 642 706 790 763 748 548 396 343 301 225 187
2198 2085 1594 1157 1449 1425 819 867 1161 220 111 101 86 51 44 56 68 139 177 158 222 176 213 365 181 370 176 21 176 423 499 503 499 651 546 421 416 400 317 127 18 0 0
2167 2243 1626 1430 1050 1192 976 1255 1352 681 113 222 410 500 40 318 64 90 299 185 346 271 274 397 363 258 385 363 332 278 389 325 306 310 311 252 274 244 105 0 0 0 0
2062 2227 2307 1777 1503 1895 1309 1268 1243 404 728 137 72 41 315 505 110 317 86 150 288 346 421 438 349 441 496 453 438 105 66 344 217 196 170 85 71 36 0 0 0 0 0
2136 1928 2287 1667 1683 1369 1729 1796 1868 1550 270 224 50 120 310 257 280 216 152 293 242 175 227 550 390 406 582 545 477 595 262 259 277 122 25 0 0 0 0 0 0 0 0
1839 2159 2227 2398 1705 1464 2030 1811 1748 2065 1383 666 202 352 326 422 473 379 271 514 413 414 387 434 529 513 521 687 818 790 327 63 149 112 94 17 1 0 0 0 0 0 0
819 1605 2403 2667 2297 2259 2170 2048 2069 2180 2104 1509 1684 167 59 165 321 386 471 376 481 510 586 554 618 726 618 661 694 843 711 121 48 15 0 0 7 60 45 2 0 0 0
546 877 2160 2208 2414 2371 2425 2527 2549 2147 2071 2077 2051 1830 682 588 558 228 274 462 421 679 669 1200 659 707 868 938 849 1096 746 238 55 0 0 0 0 0 16 75 116 139 135
642 866 1173 1930 1920 2205 2440 2495 2037 2485 2298 2400 2424 2416 2109 1006 1121 818 634 533 544 664 557 1246 402 936 754 733 904 1095 1193 678 317 70 0 0 0 0 0 0 0 0 10
1471 948 1358 1414 1604 2092 2312 2612 2125 2365 2612 2476 1934 2115 2525 1224 1281 1335 1170 912 800 811 685 497 672 735 1070 1091 748 1049 1080 797 633 438 190 0 0 0 0 0 0 0 0
1660 1930 1414 1365 1792 2232 2401 2644 2476 2122 2714 2755 2605 2343 2578 2674 1996 1423 1332 1232 1200 1055 933 612 491 693 1503 1714 1532 1449 1214 1196 852 368 198 73 0 0 0 0 0 0 0
1939 2036 1862 1740 1707 1867 2348 2690 2608 2041 2510 2636 2691 2695 2678 2323 2769 2751 2047 2328 1991 1964 1148 2492 1981 1095 2070 2081 1699 1671 1490 976 790 342 257 124 22 0 0 0 0 0 0
2151 1929 1965 2068 2007 1796 2288 2594 2655 2556 2449 2590 2737 2765 2842 2967 3074 2592 2431 2124 2082 2377 2613 2321 2176 1597 1460 1613 2029 2682 2192 2210 1347 744 369 183 76 18 0 0 0 0 0
2265 2220 2153 2122 2178 1877 1826 2270 2471 2643 2527 2552 2817 2846 2944 3174 3408 3523 3478 3381 3228 3097 2942 2402 1955 1545 1268 1815 1677 1709 1801 1798 1758 1632 1260 1041 891 753 587 453 269 148 127
2456 2427 2413 2252 2235 1948 1534 2124 2096 2195 2558 2696 2774 3030 3108 2950 2756 2993 3297 4363 4345 3412 2539 2047 1878 1868 1894 1993 2645 2259 2474 2493 2824 2614 2470 2386 2205 1844 1510 1047 1039 1098 996
2840 2617 2481 2417 2348 1931 997 912 1204 1818 2223 2658 2889 3018 3155 2638 2522 2351 2263 2159 2089 3646 4571 3164 2557 2531 4485 3655 2892 2723 2528 2547 3115 3310 3916 3258 3202 3146 2780 2313 1646 1276 1393
3005 2869 2606 2773 3171 3090 1494 948 961 1681 1767 2441 3083 2842 2604 2021 2463 2908 2450 2322 2189 2019 1784 2531 3304 3594 4254 4132 4667 4500 4353 4176 4107 3767 3892 3335 3174 3306 2792 2463 1934 1584 1389
3453 3294 2894 3398 3600 3312 2066 1619 1108 1936 2324 2535 2769 2890 3409 3320 2891 2496 2865 2834 2926 3107 2848 2462 2675 2886 2862 3305 4272 4577 4500 3964 3568 3315 3297 2949 2910 3174 3030 2978 2139 1848 1521
3312 3209 2980 3532 3733 3773 2129 1896 1684 1993 2185 3004 2849 3112 3563 3633 2840 2398 2801 3047 3087 2996 1953 1829 1958 2182 2697 2791 2731 2700 2640 2858 2949 3267 3602 3225 3271 3448 3218 2848 2358 1399 1155
3204 2877 2995 3378 2876 3425 2700 2098 1729 2202 2474 2150 3332 3928 2278 2189 2531 2337 2831 2780 3063 2803 3066 3651 4551 3775 3422 3300 3291 3471 3060 3080 3138 3005 3125 2741 2866 2450 1914 1974 1220 816 767

GFSMA_con_mucape_051.txt.gz
CAPE
1531 1631 1024 1145 1176 1314 800 935 420 1112 175 294 1060 913 274 228 930 944 970 1267 844 1226 1678 1584 1646 1218 1102 1440 1297 1134 1144 847 630 746 865 836 802 868 875 765 840 931 754
2448 1266 1111 1691 1993 351 808 1079 1295 457 555 162 338 441 622 243 419 968 991 1082 1361 871 533 899 836 1027 1002 897 837 1095 1244 1071 935 680 678 774 776 672 702 814 835 840 720
1609 1694 1885 888 1684 1362 929 562 225 767 132 683 207 704 146 929 321 457 1026 755 988 1259 1266 807 636 512 570 552 584 666 698 737 641 492 387 364 791 843 751 803 613 657 699
1520 1782 1270 715 1324 1576 1445 303 238 402 248 379 420 331 481 384 286 379 485 1034 1372 1021 939 1204 1166 1025 869 993 964 799 625 494 512 499 578 815 1053 965 823 564 634 629 596
1678 1595 1548 1406 1414 1572 1144 936 143 51 614 180 72 233 496 133 648 149 254 277 94 874 1245 1496 1132 895 835 728 768 932 1076 1058 1108 961 875 838 845 804 737 514 569 430 479
1685 1843 1596 1301 1624 363 941 1211 820 405 402 97 31 60 134 141 67 245 120 101 40 164 878 1329 927 853 1214 665 935 902 802 824 955 1003 1075 1086 812 634 553 507 284 332 358
1618 1918 1305 1453 1496 1218 2190 730 462 443 73 89 28 19 28 28 125 42 57 82 72 105 55 255 778 1217 633 1259 809 795 647 524 579 586 750 612 792 520 467 312 270 173 92
1878 1237 1869 2296 1122 1500 1339 969 1119 742 47 488 1335 50 208 481 127 179 54 76 168 165 299 345 140 194 544 647 1226 478 287 294 201 291 475 385 344 325 310 213 63 0 0
1961 1827 1511 2144 1447 2175 1099 1308 1189 1964 457 27 471 1272 839 331 365 84 242 213 372 343 286 424 320 301 296 512 322 370 281 150 54 113 263 244 258 273 181 42 0 0 0
1969 1932 1784 1814 1549 1343 2428 1591 1448 1806 1390 318 16 108 917 598 1250 632 107 169 250 318 423 450 488 497 556 523 553 589 623 221 91 55 84 84 98 125 57 0 0 0 0
1981 1904 1798 1925 2122 1598 1723 1773 1837 1833 395 2106 776 37 309 210 1196 589 912 346 371 194 303 639 433 412 783 568 543 851 400 412 425 214 117 5 0 0 0 0 0 0 0
1692 2217 2057 2160 2057 1819 2262 1973 1852 1758 2307 1160 942 720 881 736 801 363 407 839 432 482 391 424 568 529 553 778 914 645 555 169 212 277 342 274 81 0 0 0 0 0 0
701 2912 3106 2825 2276 2236 2107 2213 2420 2068 1858 1602 1654 525 185 363 344 478 406 419 435 493 721 685 679 774 685 750 769 1098 857 227 71 65 62 68 109 122 83 41 15 0 0
506 3533 2537 2185 2421 2516 2176 2778 2188 1983 2350 1860 1899 2681 1125 385 514 468 396 601 678 834 1045 831 736 839 899 959 1066 955 843 386 194 4 0 0 0 1 32 92 106 92 79
634 1654 2309 2203 2234 2041 2811 3266 1823 2405 2750 2486 2675 2455 1965 1014 854 731 539 610 658 899 889 1892 470 1024 667 576 909 1229 1713 954 706 530 242 5 0 0 0 0 0 0 34
2502 1366 1749 1787 2049 2503 2703 3776 2631 3186 3130 2309 1659 3757 3445 1757 1346 1202 1091 899 701 731 801 674 799 842 922 932 921 1095 1103 708 630 681 579 414 144 0 0 0 0 0 0
3157 2950 2433 2315 2322 2293 2936 3858 3620 2704 2769 3373 3074 2713 3094 3824 1961 1152 1176 1114 1063 1042 974 882 725 1361 2640 2980 2525 2321 1593 2213 1290 676 477 347 224 105 0 0 0 0 0
2907 3098 3081 2904 2621 2453 3352 3583 2795 2274 2751 2935 2947 3470 2614 2273 3862 3997 2491 3843 2216 2627 1399 2826 2038 1857 3103 3060 3237 3524 1858 1596 1614 981 837 535 599 474 203 37 24 18 25
3601 2322 3304 3539 3035 2723 3310 3596 3690 3175 2905 2934 3041 3461 3304 3565 4177 3011 3688 2414 1898 2674 2783 2511 2584 2336 2286 2055 2565 3579 3604 3139 2406 1681 1611 1548 1459 1592 1694 1644 1519 901 761
3717 3574 3761 3664 3241 2987 2868 2817 3280 3489 3450 2942 3319 3395 3527 3775 4255 4634 3870 4611 3837 3434 2768 2412 2352 2537 2348 2702 2362 2417 2748 2662 3025 2436 2221 2073 1938 1933 2092 2042 1868 1803 1570
3629 3930 3955 3740 3527 2637 1963 2839 3314 3494 3740 3385 3403 3418 3425 3333 2639 3528 3293 4160 4315 3825 2725 2554 2337 2148 2037 2230 3070 2902 2921 3304 3324 2982 2876 3541 3582 3627 2912 2645 2404 2240 2085
3838 3987 3941 3918 3638 2164 1302 1039 1977 2906 3415 3728 3867 3965 3932 2664 2365 2326 2476 2494 2503 3664 4845 3257 2616 2571 3791 3442 3129 2874 2979 2769 3318 3486 4550 4244 3735 3566 3641 3338 2932 2704 2191
4080 4223 4114 4035 3977 3793 1586 1016 836 1971 2823 3275 3679 4016 3471 2039 2768 3796 2859 2488 2363 2172 2031 3016 3520 3617 3720 4134 4461 4427 3601 4171 4581 4037 4142 3694 3681 3465 3569 2982 2783 2508 2420
4008 4174 4275 4288 4216 4080 2406 1699 1032 2303 2444 2890 3581 3813 4108 3833 3813 3427 3877 3741 3663 3818 3339 2585 2914 3371 3939 4248 4491 4156 4683 4643 4239 3630 4278 3580 3488 3869 3753 3552 2530 1869 1244
4138 4173 4311 4440 4423 4283 2510 2178 1741 2308 2358 3164 3359 3394 3507 3916 3559 2768 3352 3509 3755 3841 2080 1716 1707 1936 2343 2432 2797 3077 3173 3373 3413 3558 3856 3806 3701 3706 3095 2090 1800 891 728
4250 3707 4116 4362 4032 4562 3513 2395 2050 2290 2709 2433 3445 3840 2758 2574 2923 2828 3368 3923 3998 4105 3700 3557 3921 3297 3747 3725 3491 3258 3213 3198 3296 3102 3816 3170 3275 2879 1963 1999 1551 1119 695

GFSMA_con_mucape_054.txt.gz
CAPE
1789 2278 484 324 1516 488 846 503 1649 1110 1133 900 864 495 438 890 981 767 865 2053 2189 2004 1532 1573 1178 968 1063 1291 1075 1059 891 579 705 832 830 672 747 777 749 853 811 873 732
2261 2606 2590 759 894 406 970 56 1547 1450 348 807 614 316 353 1220 1278 906 1036 1258 1512 1792 1860 1406 964 878 1204 1012 898 1181 1138 876 719 474 457 688 787 731 759 774 751 694 736
2707 2414 2519 598 240 1351 2376 2089 1593 75 1198 583 481 425 1235 1098 1118 1203 742 993 1399 1447 1329 1172 793 673 534 414 470 518 540 537 455 342 314 343 652 825 793 583 601 659 602
2214 2052 1966 1999 1702 1695 324 23 66 997 326 917 1103 363 337 788 835 1106 1137 991 1033 997 1693 1618 1320 939 707 795 836 726 592 482 546 596 682 819 978 880 765 571 573 494 483
1722 1174 915 2335 309 594 832 1326 1142 724 1553 420 49 327 965 359 184 250 906 1243 1543 822 949 1839 1873 1662 1016 921 911 887 1047 1034 1108 1094 843 788 656 754 707 510 462 350 405
1674 1261 1337 2033 2356 243 194 1200 662 121 1078 333 17 538 502 613 572 792 447 333 732 1418 971 1031 1290 931 1431 1129 948 820 790 744 911 1056 1207 1274 1186 646 536 446 274 233 211
2198 732 1251 1968 1804 1654 568 2552 1443 1357 1080 120 541 200 292 388 259 817 558 227 323 1025 1153 1619 1213 1444 859 1539 1236 1032 641 561 478 436 546 481 644 521 453 272 229 121 0
2876 2533 2086 2175 815 1785 2571 2372 1735 2171 696 1507 1102 1510 330 772 294 143 863 420 380 582 626 671 1291 1513 1177 677 863 1292 601 357 195 176 251 303 262 266 294 246 114 0 0
2781 2357 2431 2643 3004 2294 2353 2444 2391 1760 1535 551 670 1654 257 348 476 688 486 742 615 577 918 684 848 756 617 951 1507 924 594 384 198 65 164 216 228 289 273 167 52 0 0
2521 3131 2825 2692 1881 1764 1682 2874 2456 1874 569 1707 654 1330 1208 1116 530 800 1048 978 622 525 704 1192 791 971 1026 789 1238 753 718 456 310 141 124 143 166 198 211 148 14 0 0
3457 2917 3136 3310 2922 2539 2901 2676 2675 2496 2738 1871 775 1091 1164 1310 1989 1254 676 1049 923 1016 1149 958 1000 979 1149 964 1000 583 640 342 298 368 391 373 227 30 21 0 0 0 0
2818 3224 2738 3514 3619 2674 2622 2680 2886 3043 2766 2517 1806 2175 121 1287 1601 1383 1405 1645 1349 1025 1060 1119 950 841 1341 1136 1003 1120 697 349 237 233 320 467 409 182 0 0 0 0 0
1749 2832 3118 3350 2883 3209 3041 2999 2989 3316 3095 2840 2376 2323 818 833 366 1487 1160 1644 1161 1377 1387 1280 1462 1362 1092 1315 1325 805 767 419 210 38 44 139 259 287 211 102 40 0 0
1830 2625 3166 2742 3324 3277 3199 3339 2713 2754 2954 3067 3072 3075 2661 2244 1280 1480 1366 1587 1402 1824 2301 1538 1552 1660 1606 1469 1768 1221 805 468 428 378 298 88 0 4 9 55 64 55 33
1772 2696 2876 3369 3243 3213 2918 3410 2710 2901 3155 3278 3224 3494 3210 2257 2110 1580 1841 1484 1882 1418 1746 1972 1524 1516 1266 1209 1828 1008 1163 766 798 738 689 620 478 218 4 0 0 0 0
2596 2857 3060 2878 3165 3395 3274 3465 2930 2992 3475 3007 2767 3181 3314 2385 2695 2436 2230 2358 1909 1624 1577 1597 2072 2095 1795 1208 1797 1723 1677 1119 793 724 651 589 596 432 419 469 539 548 302
3855 3283 3613 3248 2900 2952 3459 3681 3107 2973 3143 3321 3534 3680 3518 3346 3147 3015 2695 2170 2130 2489 2043 1838 2408 2035 3101 3138 2018 2130 2394 2002 1690 1618 1521 1605 1516 1592 1530 1334 1399 1617 1439
2782 4287 3302 3819 3032 3009 3089 3202 3196 2062 2772 3186 3287 3293 3562 3174 3727 3468 3176 3351 3564 3935 3157 2737 2646 2240 2197 2416 3055 3409 2735 1747 1776 1809 1963 1945 1883 1820 1725 1822 2126 2135 2049
3048 2535 3637 3050 3246 2682 2857 3185 3198 2892 2872 3219 3109 3417 3319 3643 3812 3620 3710 2901 2557 2946 2849 2804 2679 3224 3131 2913 2532 3605 3365 2450 2094 2025 2029 2133 1898 1926 2588 2612 2557 2473 2468
2522 2796 2762 3212 3106 2704 2534 2972 3272 3160 3005 2811 3377 3002 3438 3533 3580 3933 3563 3637 3691 3591 3153 3120 2615 2481 2615 2630 3343 3045 3114 3240 2691 2682 2363 1660 2758 3306 3301 3142 3010 2843 2389
2545 2854 2844 3113 3108 2845 2330 2499 2735 3191 3169 3102 3035 3253 3267 3409 3062 3517 3563 3781 3702 3725 3423 3259 3015 2918 2483 3094 2755 2702 2894 3071 2512 2432 2051 4071 3688 3543 3713 3305 3057 2904 2780
2561 2852 3060 3067 3275 2767 2108 1556 2084 2401 3261 3140 3100 3110 3545 2606 2189 2216 2161 2467 2509 3453 3340 3733 3555 3077 2860 2958 2943 2475 2601 2624 2582 3172 3987 3486 3688 3509 3521 3142 2891 2940 3007
2526 2847 3080 3255 3273 3198 2049 1452 1367 2043 2465 3005 3401 3275 3293 2712 2507 3179 2177 1923 2066 2201 2252 2464 2583 2558 2543 2652 3025 3304 3219 3254 3471 3894 3466 3398 3558 3440 3414 3398 3213 2180 1565
2550 2877 3142 3273 3424 3349 2652 1777 1249 1335 2131 2715 2895 2872 3191 3133 3092 3461 3412 3329 2709 2695 2532 2376 2407 2744 2824 3215 3561 3506 3473 3453 3291 3416 3551 3150 3240 3432 3577 2705 2488 1748 824
2848 2888 3135 3417 3450 3497 2968 2341 1739 1208 1639 1947 2073 2275 3091 3549 2941 2449 2196 2513 2685 2971 2957 2937 2989 3128 2916 2862 2954 3111 2834 3140 3201 3272 3423 3234 3462 3167 2701 2445 2138 842 112
2980 3009 3127 3307 3348 3558 3270 2749 2237 1820 1824 1910 2306 2571 2349 1990 2150 2338 2729 3264 3071 3006 3181 3247 3190 3183 3483 3702 3866 3890 3831 3589 3212 3208 3054 2869 2948 2809 2067 1601 483 132 34

GFSMA_con_mucape_057.txt.gz
CAPE
736 767 530 479 481 503 677 444 144 154 318 572 643 326 370 329 833 1382 1519 2178 2283 1987 1467 1223 1324 1071 1125 1100 1061 1039 735 514 796 861 570 621 657 595 607 682 778 698 714
967 635 244 653 374 107 331 347 387 67 347 618 153 581 654 567 426 729 1363 1679 2313 2229 1929 1513 991 1045 1534 1323 1068 1087 1028 760 574 363 356 356 627 758 794 656 614 606 630
1173 1169 605 246 356 602 826 1080 555 277 356 425 124 225 775 868 697 770 735 725 1275 2276 2199 1228 1215 1243 733 538 485 520 508 461 329 198 309 362 633 981 790 652 570 577 486
1094 937 758 793 260 681 130 95 67 341 221 75 219 287 558 660 954 708 770 804 796 596 1493 1597 1392 1324 695 623 606 607 550 575 591 701 852 823 857 812 721 639 471 345 364
763 570 758 921 578 388 402 304 170 148 239 132 64 162 194 324 699 758 606 730 782 869 915 1734 1644 1510 992 1043 1066 1011 968 1303 1306 1303 927 786 704 700 650 618 424 284 316
646 105 536 931 583 323 78 461 579 69 325 37 71 145 400 133 214 415 609 910 947 821 754 978 1439 1338 1744 1268 1308 1056 822 922 1084 1239 1300 1274 1280 1136 831 658 445 250 194
923 520 511 880 332 92 62 629 118 104 235 72 30 40 33 133 105 190 315 622 978 737 970 448 645 581 717 1611 1422 1424 846 732 716 660 683 550 676 791 612 382 271 166 43
785 405 637 1052 749 685 966 986 1093 485 377 40 100 419 32 11 172 103 172 116 227 864 988 908 653 857 737 559 741 1507 1477 874 392 326 531 561 453 390 415 376 287 104 0
1227 1412 1139 1116 605 1027 872 854 936 962 178 60 75 300 22 84 237 191 149 176 223 515 838 968 1011 927 613 686 634 1129 1341 532 606 190 226 392 503 463 445 445 296 63 0
1325 1424 897 964 1192 1184 1160 1032 1256 931 86 443 14 148 215 140 104 197 282 242 113 439 346 381 632 547 417 754 1118 950 864 418 514 524 343 300 420 291 294 315 341 52 0
1515 1302 1307 1427 1090 703 647 981 1395 1347 1143 1149 66 92 12 65 397 531 303 256 150 206 299 374 450 507 430 415 531 509 698 511 376 470 615 661 508 175 79 117 128 9 0
1869 1908 1474 1408 1232 1141 1251 1121 1676 1259 1118 1385 946 1082 67 157 593 498 544 328 191 308 415 331 423 610 488 496 663 678 989 497 343 216 281 445 639 440 39 0 0 0 0
1775 1915 1460 1846 1892 1409 1165 1239 1620 1644 1580 1352 1656 918 992 973 389 635 398 411 541 431 593 617 531 624 585 524 515 1026 976 516 406 338 247 166 185 366 491 407 260 129 25
1228 1803 1494 1660 1345 1672 1579 1552 1234 1417 1656 1306 1281 1919 1219 974 1420 865 190 217 333 533 1125 737 682 530 562 575 616 1002 645 505 418 421 493 466 469 449 552 497 531 623 449
1099 1245 1720 1502 1751 1797 1756 1781 1142 1597 1695 1785 1407 1178 1855 1246 1142 1264 525 271 453 543 997 923 1010 916 545 612 686 867 527 526 753 1381 1444 1355 1340 1485 1145 1213 1065 1250 1396
649 1378 2119 1568 2012 1711 1435 2069 1274 1700 1405 1807 1855 1966 1582 1562 1035 2016 1173 1003 966 581 567 739 650 1426 1309 1045 916 777 725 1289 1531 1624 1784 1922 1955 1872 1734 1346 1560 1989 2005
1785 1936 1946 2164 2178 2077 1837 1669 1605 1838 1439 1721 1770 1736 1803 1680 1533 1768 2424 2070 1564 1069 983 891 1466 1626 1372 1275 1297 1232 1401 1396 1472 1750 1825 1880 2096 2040 1883 1817 2164 2184 2281
667 1979 2009 1864 1847 1896 2083 2013 1919 1823 1702 1868 2081 1771 1863 2161 1977 1653 2022 1897 2019 2146 2011 1375 1196 1214 2167 2405 2307 2197 2176 2040 1930 2102 1821 2257 2329 1810 1693 2652 2773 2433 2456
668 1455 1963 1859 1812 1654 1624 1936 1881 1880 1802 1852 1973 2116 2104 1685 2358 2485 2238 2205 2450 2219 2887 2528 2417 2605 2582 2244 2078 2137 2280 2504 2560 2380 2443 2339 1814 2923 3443 3207 3247 3037 2761
1975 1553 2134 1676 1818 1513 1767 1773 1982 2057 2037 1795 2180 2045 2015 2305 2095 2276 2609 2583 2341 2370 2161 2139 2225 2258 2512 2560 2458 2334 2481 2341 2276 2027 1797 2093 3506 3471 3314 3381 3224 2928 2834
554 1620 1625 2259 1769 1954 1549 1653 2147 2133 2104 2115 1941 1967 2335 2164 2446 2521 2596 2684 2802 2868 2798 2808 2777 3059 3162 2757 2409 2443 2222 1651 2495 2330 2732 3523 3039 3193 3522 3191 3272 3259 3152
1541 1014 1255 1719 2268 2048 1972 1641 1584 2290 2354 2221 2258 2140 2222 2418 2321 2468 2654 2879 2947 3016 3165 3199 2860 2738 2442 2202 2072 2061 1940 2605 2585 2846 3464 3071 3073 3306 3223 3237 3396 2742 1490
476 1741 1654 1747 1815 2157 2133 2051 1680 1483 1655 2298 2352 2269 2279 2226 2346 2401 2279 2139 1994 2010 2143 2081 2031 1994 1968 1966 2355 2228 2377 2752 2685 2782 3178 2819 3036 2945 3145 3400 2326 1391 882
847 830 1449 1857 1930 1983 2375 2165 1986 1586 1437 1498 2421 2495 2302 2260 2372 2355 2184 2264 2241 2101 1982 1926 2044 2287 2522 2697 2505 2337 2612 2893 3061 3020 2848 3124 3098 2938 3151 2641 1589 1111 780
1337 1128 1471 1805 2063 2143 2349 2519 2184 1719 1358 1410 1613 1871 2190 2423 2458 2418 2187 2367 2563 2953 3167 3098 2999 2745 2500 2542 2434 2540 3081 3319 3523 3437 3206 3225 3045 2738 2714 1492 915 720 0
1152 1557 1388 1721 2117 2177 2367 2509 2467 2135 1571 1235 1195 1565 2034 2230 2466 2592 2447 2377 2157 1824 1790 2068 2274 2417 2574 2808 2936 3250 3351 3433 3318 3150 2902 2856 2843 2305 1625 1103 453 0 0

GFSMA_con_mucape_060.txt.gz
CAPE
240 288 265 143 204 386 126 252 91 213 358 475 541 302 361 766 943 1239 1604 1785 2041 1726 1656 1419 1471 1180 1071 1127 1064 1068 538 436 731 802 373 605 638 648 680 689 629 650 707
426 408 317 301 286 348 489 240 276 192 282 476 322 297 288 511 859 1174 1254 1565 2169 2133 1496 1097 1016 1059 1304 1163 945 978 975 750 557 321 289 237 383 760 670 592 582 661 583
550 336 110 457 278 239 259 279 289 166 192 346 379 330 374 341 398 963 1176 1282 1769 2022 1777 1506 928 1090 1292 913 689 819 678 546 420 294 265 388 565 938 839 675 528 504 445
641 487 247 216 282 543 319 128 456 367 179 149 218 527 520 529 483 417 549 834 1258 1481 1970 1774 1607 1541 770 513 495 565 576 546 477 628 932 902 807 802 759 661 441 309 362
566 489 512 550 324 224 309 25 135 212 205 108 161 389 637 670 703 578 596 514 410 484 694 1496 1680 1530 819 870 921 1072 1031 1188 1371 1137 1062 787 772 747 669 573 405 259 267
256 392 404 302 301 139 30 114 155 62 154 60 56 133 154 280 705 619 562 561 605 678 547 568 1160 1070 1558 1242 1441 1176 1005 975 1132 924 1276 1281 1036 1007 774 565 474 234 165
126 261 519 617 68 124 87 310 66 54 173 37 30 66 136 237 212 465 587 521 705 788 729 563 764 974 865 1843 1798 1632 1056 877 772 799 920 794 479 736 689 521 272 209 80
522 141 371 548 184 168 171 673 363 311 77 30 26 115 0 18 91 85 220 436 724 886 847 838 381 547 551 443 740 1494 1603 1069 515 412 586 834 491 478 407 347 312 193 13
582 348 597 649 588 428 756 653 507 226 13 33 39 34 7 9 164 138 142 186 262 535 797 902 641 485 667 732 469 892 1500 1218 765 315 384 709 621 365 321 396 400 226 21
777 896 908 843 222 749 557 497 793 388 52 39 31 140 88 130 73 94 143 170 148 435 514 806 939 836 801 538 466 645 1000 1068 668 546 389 540 717 374 268 315 462 366 33
951 1180 820 691 833 805 760 503 1049 997 641 570 56 46 19 28 170 315 254 196 130 148 323 347 292 561 469 351 483 628 1111 780 524 425 685 827 833 336 181 110 231 285 82
1160 1057 834 986 747 605 437 642 981 570 614 925 538 313 101 141 402 393 360 381 244 361 505 445 445 468 413 351 374 746 777 723 437 321 255 389 610 640 207 167 114 141 111
1284 1197 1100 1207 782 818 995 742 1369 1314 904 957 1228 588 726 834 719 453 212 424 379 405 500 534 449 485 535 486 466 923 1059 654 468 854 1204 794 533 731 709 638 649 690 692
1319 1583 1274 1139 1318 967 927 752 1192 966 1250 952 913 1287 1150 585 1086 973 433 174 303 438 632 618 467 436 488 487 477 535 555 833 1056 1417 1519 1626 1693 1470 1227 985 1001 1722 1611
1103 1506 1462 1249 1317 1276 1028 913 1038 868 1032 1404 1002 640 952 1059 652 766 1570 306 300 293 874 700 746 834 749 537 483 539 573 1291 1221 1464 1569 1528 1773 1855 1888 1821 1648 1942 1899
1057 1037 1456 1257 1237 1083 1237 1147 897 910 1103 1373 1434 1556 1241 1086 1002 1125 1779 1054 747 694 620 652 571 1040 1250 1009 1008 919 803 1240 1527 1666 1747 1693 1795 2111 1993 1596 1591 2432 2037
1129 1152 1363 1341 1168 1293 1319 1465 1191 923 1217 1027 1320 1254 1328 1584 1560 1275 1461 1607 1722 1604 1008 793 759 1392 1238 1254 2265 2214 1991 1967 2009 2044 2100 2010 2145 2185 1897 2036 3233 3121 2789
651 1065 1481 1374 1253 1375 1195 1109 1407 1375 1211 1333 1155 1349 1621 1781 1898 1705 1500 1518 1368 1461 1651 1377 1602 2160 2166 2240 1988 1900 2332 2174 2313 2362 2301 2199 2073 1818 3267 3330 3105 3105 2883
218 1542 1652 1697 1420 1412 1550 1438 1346 1348 1330 1431 1340 1402 1545 1483 1608 2077 2044 1966 1995 2367 2640 2695 2454 2119 1964 1884 2460 2572 2073 2048 1968 1909 1929 2173 3172 3273 3083 3218 2979 3089 2852
1 394 1703 1643 1521 1643 1738 1675 1660 1540 1433 1392 1394 1470 1747 1744 1653 1463 1879 2050 2147 2188 2009 1892 1810 1974 2365 2569 2963 2603 2585 1872 1494 1946 2157 2730 2763 2784 2971 3106 3056 3065 2190
281 137 888 1616 1524 1336 1222 1160 1245 1391 1409 1372 1481 1554 1676 1889 2090 1842 2127 2071 2139 2183 2220 2363 2527 2657 3001 3199 3042 2474 1908 1720 1951 2129 2296 2949 2677 2668 2908 3104 3157 2597 1782
368 336 1050 1239 1402 1525 1330 1338 1256 1348 1436 1491 1502 1650 1688 1647 1875 2127 2133 2221 2309 2349 2357 2506 2606 2878 2902 2423 1955 1811 2112 2189 2092 2100 2808 2474 2629 2798 2803 2991 2607 1703 982
0 527 445 1291 1536 1481 1531 1396 1282 1238 1497 1633 1701 1786 1802 1830 1938 1933 2174 2310 2287 2380 2611 2642 2561 2426 2172 1964 2000 2371 2480 2218 2199 2348 2783 3032 2541 2889 2800 2530 1802 1280 828
428 13 718 637 966 1513 1838 1725 1598 1484 1340 1310 1723 2003 2068 2006 1999 2029 1991 1975 2049 2109 2122 2053 1991 1966 1944 2342 2831 2719 2391 2351 2646 2846 3255 3280 3129 2993 2576 1842 975 769 539
723 531 295 1247 1110 1036 1310 1737 1837 1775 1664 1557 1375 1327 1695 1756 1913 2059 2060 2063 2148 2160 2232 2679 2860 2957 3041 2804 2495 2419 2408 2419 2727 3062 3083 3120 2964 2956 2353 1484 731 362 0
868 856 633 455 1191 1546 1598 1590 1822 1600 1634 1719 1638 1423 1386 1706 1936 2174 2214 2135 1989 1898 1757 1744 1719 1701 2078 2109 2299 2798 2720 2675 2963 3051 2852 2911 2852 2446 1662 1018 600 7 0

GFSMA_con_mucape_063.txt.gz
CAPE
325 230 223 164 204 249 94 94 174 290 375 525 393 440 602 561 855 1144 1516 1711 1978 1671 1418 1304 1372 1212 1057 1168 965 999 433 354 674 709 255 480 632 712 740 580 599 670 617
206 303 136 204 318 294 349 187 194 260 316 469 352 298 360 595 802 1122 1239 1304 1649 1728 1413 1155 1198 963 1080 972 871 917 814 724 562 334 274 286 335 710 790 727 552 612 484
342 422 353 352 236 141 273 518 241 231 273 341 267 266 267 478 669 990 1070 1276 1401 1579 1550 1110 857 920 1445 1343 812 832 960 586 404 355 321 470 670 927 838 731 498 401 366
480 470 108 380 222 442 317 242 273 335 216 238 301 317 371 415 423 724 854 905 1201 1486 1508 1895 1395 1039 967 639 501 506 593 640 627 636 954 1118 826 769 661 705 461 259 313
703 533 273 303 365 205 169 50 184 283 120 94 230 416 500 501 474 358 427 419 645 829 895 1407 1953 1646 1014 843 867 926 1091 1149 1388 1162 1102 920 842 943 925 564 416 218 221
585 525 502 432 46 122 109 57 121 134 106 83 189 314 525 560 625 663 487 372 270 263 272 299 444 952 1367 962 1352 1373 1116 1030 1181 1063 1060 1127 848 707 831 626 484 244 170
503 418 408 543 410 48 63 103 39 68 158 102 78 122 176 198 217 533 597 527 504 526 565 592 390 606 678 1184 1905 1648 1244 960 843 777 1126 1088 560 385 620 546 349 226 149
171 355 364 483 60 154 255 531 181 445 96 26 34 43 13 86 159 155 352 375 512 566 638 742 585 555 435 467 357 998 1648 1317 676 494 793 917 842 518 504 385 324 253 155
557 270 398 461 297 242 501 542 242 135 24 20 29 13 2 0 89 97 96 138 255 344 591 714 668 659 298 257 452 525 1318 1349 1114 637 593 867 963 674 335 421 426 306 173
996 338 445 697 580 502 728 579 662 232 19 29 40 131 99 98 39 33 87 111 207 186 273 379 555 720 630 478 513 578 677 820 1222 1064 516 818 958 841 359 359 619 529 236
971 804 825 972 674 705 698 479 929 575 83 306 27 45 24 7 65 151 221 141 191 142 209 290 313 496 528 592 518 342 724 924 961 1061 865 780 989 749 353 378 509 526 369
1081 939 986 872 735 689 811 391 861 937 622 684 329 88 44 118 203 261 262 358 268 329 331 343 386 390 393 368 344 434 771 789 853 1066 1167 1125 949 685 702 643 605 787 671
1183 1085 1083 848 854 703 708 472 966 718 520 771 535 277 188 584 473 293 165 304 363 368 382 385 381 402 463 451 432 442 597 741 1038 1194 1306 1485 1508 1440 1196 1275 1383 1542 1386
1121 1165 1139 971 1141 693 838 823 1186 1112 1087 678 983 1235 767 573 949 1193 544 201 236 290 610 664 551 630 718 440 429 457 548 1084 1047 1111 1336 1536 1539 1611 1672 1747 1616 1489 1787
1010 1193 1192 1083 1167 1024 873 1057 754 1047 1045 1102 824 599 626 863 623 621 1537 371 348 247 366 665 496 818 972 830 721 727 836 1024 1476 1799 1906 1910 1905 1902 1910 2022 1492 1623 2422
1005 1028 1262 1243 1181 1219 1171 952 878 1030 865 973 1427 1167 860 732 880 630 1523 1405 907 736 629 575 644 725 1134 1231 1253 2103 1879 1964 2084 2170 2157 2097 2199 2116 2192 1880 2779 3162 3093
1124 1063 1097 1367 1316 1293 1254 1237 1100 953 982 996 1160 1455 1286 1258 1491 1523 1251 1375 1460 1582 1412 1258 1223 1311 1710 1945 1797 1728 2507 2088 2070 1907 1637 1625 1759 1762 2727 3148 3162 3039 2916
477 988 1092 1117 1257 1359 1249 1160 1305 1274 1109 1071 1225 1119 1274 1238 1509 1841 1646 1505 1532 1210 1327 1303 1473 2161 2143 1752 1653 2347 2548 2143 2357 1428 1609 2127 2899 2669 2776 3177 3145 2942 2831
27 307 621 1032 1198 1188 1240 1188 1282 1239 1386 1359 1272 1522 1322 1252 1706 1669 1824 1999 1868 1861 2110 2344 2222 1855 1632 1883 2338 2675 2783 2484 1461 1759 1690 2332 2885 2515 2722 2872 2968 2995 2663
133 26 873 1218 1266 1178 1221 1255 1214 1208 1298 1388 1411 1437 1434 1494 1651 1638 1402 1714 1947 1819 1884 1858 1849 1916 2133 2303 2654 2713 2288 1686 1936 2019 1789 2208 2684 2526 2768 2963 3077 2897 2229
212 184 115 1164 1495 1550 1428 1314 1353 1414 1420 1535 1576 1505 1456 1515 1671 1860 1778 1676 1701 1917 1957 1973 2034 2092 2160 2225 2367 2284 1803 1992 2255 1954 1870 2146 2427 2590 2734 2778 2685 2231 1431
72 102 117 98 1000 1314 1492 1416 1399 1501 1542 1476 1379 1320 1357 1502 1587 1670 1886 2176 2239 2172 2049 2091 2180 2182 2165 2150 2083 1850 1766 2291 2464 2015 2233 2430 2701 2673 2663 2453 2244 1616 1037
119 24 27 154 215 737 1225 1347 1264 1217 1079 1071 1149 1222 1290 1334 1549 1666 1667 1689 1867 2128 2261 2283 2325 2344 2279 2131 1871 1903 2452 2581 2074 2028 2232 2799 2911 2935 2491 2069 1943 1026 643
341 274 210 63 389 541 785 1199 1308 1353 1200 1155 1182 1260 1321 1339 1585 1800 1856 1887 1900 1833 1783 1790 1892 1976 2077 2318 2273 2673 2611 2041 2101 2247 2484 2883 2803 2816 2281 1797 1546 693 272
636 579 500 385 285 260 811 1140 1254 1286 1213 1130 1145 1205 1377 1514 1591 1757 1879 1843 1874 1984 1926 1924 2020 1950 2131 2346 2406 2287 1981 2011 2342 2482 2294 2734 2762 2651 2383 2068 1220 632 16
922 893 823 663 564 431 256 893 1346 1239 1289 1314 1320 1266 1246 1325 1436 1506 1525 1454 1486 1720 1801 1646 1602 1593 1516 1689 2065 1996 2018 2535 2633 2248 2546 2688 2663 2627 1888 1620 1092 538 3

GFSMA_con_mucape_066.txt.gz
CAPE
355 264 355 150 224 89 207 121 273 427 494 678 551 503 703 833 1029 1326 1656 1735 1756 1535 1342 1276 1287 1080 952 1104 887 904 448 387 546 357 208 276 259 542 739 686 550 689 520
309 172 195 216 265 343 307 208 220 306 417 503 487 541 628 816 1085 1280 1456 1410 1468 1426 1480 1113 1164 882 976 913 809 854 904 767 468 314 298 356 504 687 926 735 523 467 398
287 226 379 284 311 188 339 522 362 326 387 431 381 325 465 712 882 1197 1247 1344 1453 1479 1536 1191 891 864 1097 1437 979 654 741 587 438 461 476 726 982 803 793 796 532 382 356
515 327 223 354 353 440 268 298 280 477 329 345 340 365 402 433 652 945 1031 1092 1205 1480 1603 1760 1783 1125 899 874 633 577 664 736 798 906 1083 1142 938 737 698 656 549 315 279
532 430 166 299 296 368 287 107 241 361 220 286 451 436 533 543 489 425 621 765 753 1137 1023 1143 1743 1859 1047 943 928 992 1033 1333 1444 1112 1146 932 955 927 981 801 519 352 207
527 422 338 214 360 139 82 80 186 214 171 188 201 388 572 647 680 639 581 466 450 385 380 400 475 607 1091 1097 1054 1305 1379 1085 1337 1172 1232 1123 906 585 391 772 581 489 227
487 382 468 226 152 104 90 80 81 148 206 96 108 197 253 268 272 313 646 619 589 619 560 644 641 578 690 905 1174 1351 1351 1314 1018 940 1094 1146 931 541 428 520 447 321 245
280 238 352 404 283 87 363 242 101 421 162 53 68 69 9 12 122 246 247 348 483 511 716 762 741 710 700 656 626 827 1124 1285 1236 819 963 948 1064 971 666 536 446 264 276
334 114 275 353 64 179 405 462 224 218 46 21 28 59 16 11 70 164 169 153 177 242 349 642 782 750 689 538 486 566 924 968 1261 1280 1165 1071 1059 1102 810 624 626 507 344
755 470 210 390 379 514 479 403 559 319 28 32 18 164 160 118 111 221 158 155 209 219 183 224 396 693 784 733 676 863 906 774 934 1115 1408 1542 1115 1211 1197 889 760 751 603
965 681 525 668 425 482 638 550 794 456 90 162 42 66 74 45 280 301 303 295 222 232 192 233 303 356 439 568 651 580 574 678 776 1136 1337 1601 1294 1114 1029 1141 1117 965 679
946 843 818 693 452 511 699 551 653 798 660 533 291 83 42 229 347 267 298 346 258 302 301 310 316 325 352 380 399 466 587 649 870 1055 1187 1226 1300 1454 1385 1329 1308 1286 1371
833 899 867 883 585 575 556 632 714 819 577 887 444 259 141 682 624 616 222 296 415 483 558 425 516 586 610 479 409 397 577 772 878 1125 1509 1690 1723 1693 1678 1636 1761 1483 1331
739 885 940 931 733 719 598 498 687 937 733 607 1058 1124 644 587 808 900 1242 307 472 259 534 824 576 894 950 828 807 1095 1748 1724 1905 2024 1997 1907 2022 2153 2086 2044 2078 1786 2381
627 906 914 821 835 867 651 738 683 749 814 1008 708 635 835 904 661 496 1370 771 493 608 509 681 890 702 1321 1227 1492 1838 1729 2302 2039 1668 1532 1606 1512 1597 1583 1803 2060 2918 3129
528 853 1012 937 879 1041 915 725 775 773 736 814 1057 957 654 646 779 680 1229 1498 1282 971 875 570 764 1129 1438 1897 1764 1954 2313 2266 2008 2044 1698 1749 2563 2533 2772 3026 3133 3050 2917
494 637 981 953 899 883 1069 1085 815 828 789 837 712 1159 1295 1103 1129 1337 1370 1375 1246 1350 1427 1423 1274 1404 1973 2040 2297 2121 2496 2330 2326 1765 1758 1896 2760 2570 2720 2952 3125 2937 2821
462 906 990 1005 966 1019 1004 1093 1085 1146 883 908 1071 993 1175 1164 1242 1339 1733 1579 1463 1536 1339 1552 1703 2010 1925 1977 1936 2344 2542 2246 2013 1994 1778 2259 2517 2650 2769 2809 2853 2828 2773
40 100 540 790 1037 1036 1050 1114 1192 1267 1225 1046 1053 1105 1231 1199 1531 1557 1648 1545 1834 1889 1807 1772 2111 1768 1739 1848 2165 2329 2295 2295 1862 2201 1782 2156 2225 2625 2716 2841 2881 2769 2488
0 38 233 549 895 976 1065 1147 1075 1125 1201 1215 1233 1252 1372 1374 1457 1590 1459 1636 1747 1839 1807 1791 1737 1762 1861 2057 1979 2160 2490 2011 1878 2320 1920 1872 2386 2684 2588 2612 2432 2213 2042
0 0 10 496 947 1075 974 1165 1220 1139 1110 1146 1244 1223 1229 1367 1336 1431 1701 1911 1672 1750 1788 1910 1946 1868 2045 2223 2421 2192 1930 1771 2153 2087 2222 2610 2612 2704 2564 2381 2157 1828 1320
0 0 0 71 594 927 1125 1213 1293 1320 1309 1311 1318 1265 1376 1333 1295 1255 1372 1485 1669 2138 2257 2082 2261 2183 2530 2083 2131 1931 1933 1935 2333 2015 2808 2770 2774 2775 2554 2098 1682 1641 1307
24 8 0 0 163 481 588 1062 1198 1243 1257 1296 1374 1383 1191 1130 1030 1447 1217 1312 1397 1409 1518 2217 2287 2444 2495 2452 1967 1987 2215 2322 2284 2137 2311 2975 2556 2624 2408 1945 1646 1412 674
214 149 82 44 2 73 207 499 845 845 1118 1081 1090 1142 1199 1352 1317 1372 1498 1681 1756 1694 1569 1635 1561 1893 2242 2332 1832 1954 1980 1915 1771 2015 2285 3161 2282 2666 2414 2219 1689 1358 662
438 384 332 246 186 157 48 142 269 382 682 983 995 1115 1236 1325 1057 1064 1475 1732 1843 1834 1506 1507 1624 1717 1696 1741 1748 1624 1464 1659 2113 2304 2305 2534 3312 2539 2102 2047 1908 1271 1015
630 621 596 604 565 512 440 379 241 189 284 480 861 953 884 1055 1038 1104 1162 1619 1667 1682 1708 1617 1212 1364 1379 1329 1283 1251 1505 1859 2326 2109 2346 2744 2670 2356 1779 1547 1399 1235 969

GFSMA_con_mucape_069.txt.gz
CAPE
1081 1117 1068 900 1070 875 795 764 1293 1271 1497 1463 1400 1394 1218 849 1013 986 1094 1739 1733 1531 1384 1259 1284 1106 930 962 853 831 648 543 466 362 267 415 501 639 1105 826 582 567 500
1353 1016 907 997 1124 1197 1043 1041 1088 1302 1409 1375 1434 1420 1011 796 1039 1135 1085 1304 1498 1474 1550 1167 1204 941 1101 1032 817 783 912 850 458 402 508 555 761 998 902 873 609 496 440
1407 989 1321 1101 1177 1184 1521 1539 1400 1315 1292 1173 1334 1172 1047 917 846 1141 1111 1220 1264 1490 1611 1496 1106 907 933 1223 854 639 534 556 613 725 774 1043 1272 813 808 720 664 484 414
1437 1471 1263 1632 1256 1362 1204 1202 1189 1217 1200 1141 1206 1170 1125 1044 965 1146 1166 1163 1112 1069 1404 1623 2002 1626 1061 1010 1003 818 850 927 1163 1150 1073 1097 908 832 917 1029 645 525 331
1547 1340 1204 1350 1337 1162 795 858 1266 1254 1067 1020 923 1099 1338 1363 1318 962 1178 1201 1095 1160 1105 993 1351 1595 1438 1027 983 1104 1199 1244 1255 1088 1000 1007 970 896 664 678 745 551 367
1539 1384 1169 1393 1322 1017 908 1008 1403 1105 1051 947 565 909 1307 1407 1482 1490 1375 1251 1221 1179 1023 1156 1192 813 734 1049 1146 1180 1282 1425 1410 1260 1312 1146 976 765 427 503 783 617 533
1502 1561 1738 1281 1181 940 1124 1192 1032 1292 995 871 776 685 827 1053 1031 1052 1179 1287 1298 1238 1271 1298 1528 1376 1063 947 1051 1174 1112 1155 1305 1392 1329 1312 1201 912 660 402 453 419 394
1434 1391 1577 1293 1306 737 1445 1356 1200 1175 993 561 574 706 335 402 513 734 902 918 1057 1067 1051 1276 1483 1578 1687 1418 1164 887 1116 1290 1351 1398 1610 1483 1258 1283 1175 847 645 298 314
776 1093 1488 1383 1246 959 1359 1622 1310 1465 707 552 817 627 366 453 827 765 972 717 878 856 987 1052 1255 1426 1647 1586 1537 1273 1122 874 1020 1241 1552 2048 1674 1364 1393 1138 815 734 633
1374 1024 1389 1485 1346 839 1584 1643 1652 1266 685 674 641 726 835 868 682 708 753 791 911 818 883 820 895 1060 1489 1491 1464 1591 1202 953 1083 1164 1413 1954 2247 1816 1518 1517 1208 1133 1205
1834 1455 1320 1568 1607 1652 1794 1850 1982 797 892 653 548 773 857 673 1040 1104 813 937 984 884 878 915 936 1069 1284 1400 1307 1187 967 827 759 952 1153 1439 1625 1967 1863 1751 1699 1549 1332
2564 1897 1640 1857 1863 1786 1925 1811 2071 2161 1908 1714 1327 1125 660 915 1140 1149 1083 1378 1304 1236 1247 1133 1134 1109 1140 1183 1008 559 751 989 1300 1632 1896 1876 1873 1897 1812 1779 2026 1951 1926
1856 2102 2148 2289 2067 1853 1989 1939 2044 2156 2060 1779 2015 1259 1039 1528 1523 1619 1130 1085 1132 1308 1422 1426 1779 1914 1569 1710 1575 1676 1917 1730 2052 1699 1400 1396 1481 1419 1854 1940 1977 2098 1934
1544 2111 2235 2207 1981 1900 1742 1819 1838 1754 1788 1753 2200 2279 1608 1638 1789 1864 2047 1226 1015 1034 1258 1838 1622 1756 2335 2328 2043 1992 2527 2519 2019 2084 1713 1652 1943 2318 1649 1695 1871 2288 2849
1356 1933 2203 2228 2053 1981 2009 1944 1596 2049 2257 2191 1906 2090 1867 1727 1642 1527 1900 1428 1384 1154 1015 1360 1405 1988 2429 2702 2284 2791 3218 2359 2059 1963 1648 1611 2505 2434 2624 2772 2965 3059 2923
1673 1643 2012 2194 2241 2218 2110 2101 2001 2009 2131 1896 1776 2197 2039 1446 1560 1605 1689 1860 1750 1838 1503 1592 1675 2173 2768 2987 2254 3028 3380 2372 2644 1861 1809 1512 2588 2545 2573 2726 2951 2968 2724
1791 1922 2067 2085 2279 2256 2356 2320 2108 1938 2127 2076 2008 2099 2244 2439 1654 1719 2079 2199 2152 2005 1970 1826 2170 2432 3156 3246 3047 3265 3105 3013 2161 2126 2011 1663 2186 2499 2550 2718 2862 2767 2720
1730 2003 2066 2222 2354 2287 2343 2425 2296 1868 2012 2062 2017 2071 1913 2018 2632 2570 2271 2753 2440 2591 2320 2428 2525 2483 2910 3127 3337 3522 2925 2287 2944 2075 1979 1657 1971 2390 2489 2704 2760 2599 2311
1596 1611 2152 2298 2389 2390 2456 2412 2378 2335 2279 2029 1998 2172 2127 2281 2508 2210 2639 2560 2438 2723 2826 2689 2534 2497 2663 2655 2972 2743 3123 3263 2476 1839 1634 1672 2105 2514 2413 2466 2301 2044 1807
1121 1304 1621 1928 2323 2436 2434 2400 2437 2484 2468 2269 2194 2147 2175 2294 2534 2830 2637 2800 2736 2740 2602 2822 2321 2367 2366 2665 2952 2710 2383 2344 2661 2667 1778 2030 2574 2615 2535 2217 2009 1571 1519
1078 1175 1143 1272 1525 1639 1670 2190 2370 2371 2354 2373 2305 2247 2150 2017 1830 1962 2082 2377 2697 2871 2460 2310 2223 2176 2137 2103 2218 2494 2489 2646 2921 3031 2302 2632 3151 3497 2420 2121 1827 1548 1394
1057 1165 998 1053 1170 935 485 865 1625 2183 2329 2353 2397 2357 2285 1453 1291 1127 1184 1177 1424 2688 2851 2527 2049 2124 2556 2689 2406 2446 2526 2589 2019 2195 2837 2729 3115 3466 2228 2062 1759 1454 1308
1386 1256 1015 1125 1398 1557 503 483 889 1548 2134 2490 2519 2436 2243 1747 1768 2253 1605 1136 1070 1082 1231 2383 2541 2345 2527 2466 2846 2902 2832 2930 2438 2072 2470 2877 3242 3313 2132 1916 2016 1482 1210
1303 1374 1126 1209 1336 1209 465 343 630 1314 2078 2033 2242 2508 2516 2386 2259 2099 2206 2162 2171 2169 1809 1416 1880 2340 2619 2855 3052 2933 3068 2901 2495 2329 3080 3305 2877 3488 1994 1844 1807 1716 1284
977 988 993 1197 1221 1236 199 115 154 927 1221 2222 2160 2195 2513 2451 2174 1504 1888 2129 2225 2252 1522 1592 1605 1686 1572 1410 1539 2086 2163 1905 1509 1354 2647 3521 2783 3266 1882 1790 1515 1567 1069
980 817 723 861 721 1257 517 186 126 295 792 864 1696 2303 1182 1492 1554 1364 1409 1964 2185 2071 1777 1692 1986 1439 1112 988 1094 1263 1963 1934 1564 1626 2289 3024 2584 3196 2647 1620 1545 1383 1198

GFSMA_con_mucape_075.txt.gz
CAPE
1623 1939 1770 1250 1625 1328 1228 1590 2151 2099 1552 1529 1114 953 841 760 616 674 458 1819 1361 1210 986 1055 837 854 765 810 619 610 871 830 617 670 748 800 1297 909 844 919 786 554 410
2317 1154 1206 1384 1582 2081 2407 2220 1979 2124 1595 1196 1521 1350 1654 1199 1264 1643 1093 989 1461 1400 1202 887 842 733 901 1295 1148 807 712 734 794 918 1033 1285 1069 919 799 860 757 580 414
1591 1320 948 1600 1488 1862 1706 1620 1414 1692 1453 1302 1736 1474 976 1614 1087 1568 1293 1563 1177 1373 1309 1064 901 816 766 804 974 905 877 937 998 1092 928 949 1039 863 808 954 1062 669 424
1544 2039 1182 1485 1079 1653 1590 2219 1805 1711 2043 1433 2014 1599 871 822 969 905 739 1314 1747 1524 1523 1569 1555 1439 1186 1003 1074 1031 1109 1202 1273 1074 970 886 796 784 734 531 646 785 612
1503 1488 1335 1418 2342 2782 2160 1227 1595 1579 1382 1365 938 1538 1193 1041 1211 626 777 877 601 901 1352 1741 1536 1343 1337 1299 1169 1082 1116 1288 1443 1466 1202 1038 981 804 723 515 358 744 710
1355 1483 1374 1350 2517 1844 1273 1712 2195 1029 1514 1445 506 730 1091 546 392 572 746 754 839 957 708 912 1628 1293 1685 1236 1112 1205 1347 1479 1524 1566 1721 1798 1514 1083 888 841 691 564 613
1444 1635 1185 1373 2339 1852 2044 1301 1179 1358 747 709 1648 589 442 507 457 238 392 447 584 779 646 899 1170 1122 1462 2099 1629 1328 1401 1467 1682 1882 2217 2439 2443 2021 1776 1575 1187 1041 889
1633 1583 2253 1628 1915 1275 1581 1227 2122 2475 853 790 2019 1291 586 430 283 371 307 288 582 501 566 823 775 1209 1447 1519 2227 2236 1796 1706 1688 1758 2242 2504 2570 2562 2199 1695 1520 1429 1231
1528 1671 1993 2661 1267 2303 1076 1541 1261 1906 1904 221 1431 1093 1378 904 657 592 462 397 687 522 498 599 746 1074 1471 1660 1873 2446 2264 1789 1615 1699 1900 2384 2459 2543 2593 2386 1848 1678 1529
1614 1682 1646 1733 1720 1616 2322 1126 763 2415 1519 584 250 532 1509 1764 2286 232 294 326 376 526 512 565 730 826 1336 1898 1409 1443 1795 1415 1391 1642 1544 1600 2020 2148 2303 2412 2566 2108 1668
1712 1574 1893 1900 2025 1952 1732 2123 1956 1887 540 709 506 614 1209 665 1095 1359 303 321 386 416 534 858 745 839 1448 1591 1535 1225 1604 1550 1865 1480 1572 1571 1591 2075 2308 2274 2498 2563 2671
1545 1695 1781 1984 2079 2515 2060 1516 1767 1756 2153 1970 1449 1176 1492 1261 1753 588 424 1053 672 780 762 916 1129 1184 1468 1751 2025 1548 1801 2103 1910 1913 1737 1324 1814 2341 2474 2578 2418 2257 2160
942 2466 1940 2309 1876 1981 1552 2051 2445 1932 1269 1717 1723 2116 1285 1475 1590 935 2155 1003 1128 972 1134 1338 1438 1564 1770 1927 2560 1948 2447 2345 1913 1931 1529 1408 1871 2354 2436 2622 2765 2865 2906
1041 3035 1932 1633 1725 2089 1784 1836 1829 1345 2523 1506 1256 2329 2250 1409 1733 1801 1979 1397 868 1037 1314 2686 1353 1519 1908 2173 2504 2173 2305 2317 1824 2221 1691 1701 1453 2380 2352 2604 2683 2714 2679
1122 2014 1866 1781 1761 1773 1987 2437 1585 2173 2662 2046 1667 1905 2191 1593 1026 1282 1108 1223 1706 1542 1333 2189 1506 2569 2095 2068 2257 2685 2717 1944 1989 2433 1742 1553 1778 2113 2260 2530 2701 2618 2562
1443 1366 1940 2027 1778 1698 1846 2244 2598 2505 2008 1605 979 3049 2947 1862 1112 1090 1141 1198 1319 1490 1521 1560 1576 2169 2982 2960 2530 2925 2936 2155 2011 2437 1716 1347 1771 1829 2295 2463 2530 2378 2143
1752 1735 2864 2198 2143 1980 1936 2756 3138 2086 1944 2309 2656 1692 2683 3725 1803 1063 957 1109 1301 1434 1409 1290 1724 2904 3273 4061 3525 3928 3042 3574 2291 1691 1509 1309 1500 1875 2316 2349 2215 1804 1527
1825 2050 2121 2199 2248 2192 2502 2685 2136 1509 1978 1999 2268 2885 1770 1691 3670 3615 1931 3773 2436 3225 1927 3909 2786 1738 3568 3571 4577 4833 3053 1959 2448 1728 1132 1373 1571 2224 2269 2265 1995 1599 1360
2298 1505 2247 2553 2055 2101 2900 2758 2816 2196 2047 1939 2014 2429 2310 2814 3235 2406 2974 1985 1812 2267 2424 2065 2265 1880 1893 2083 2885 4012 4501 3705 2635 1243 1056 1275 1840 2424 2544 2322 1842 1520 1231
2599 2451 2408 2850 2526 1935 2065 2358 2781 2666 2636 2386 2361 2565 2463 2686 3355 3728 2859 3779 2931 2790 2348 1676 1510 1595 1812 2656 2181 2232 1937 1391 1546 1423 1420 1647 1817 2308 2720 2817 2197 1572 1381
2764 2648 2670 2765 2404 2123 1505 2798 2687 2676 2814 2896 2912 2602 2999 2256 1712 2464 2186 3288 3626 3162 1784 1492 1388 1427 1471 1695 2956 2335 1919 1783 2559 1466 1199 1665 1693 1806 2558 2330 2192 1373 1463
3201 3276 2544 2659 2666 1419 860 1005 1732 2822 3262 3564 3659 3784 3684 1772 1513 1249 1390 1526 1821 3065 4449 2496 1924 2012 4356 2934 1811 1695 1688 1354 1179 1596 2035 1667 1107 954 1661 2389 2515 2129 1391
3027 3600 3194 2843 3115 2970 1036 464 949 1622 2709 3355 3268 3788 2801 1580 2196 2894 1605 1248 1323 1061 834 2592 3413 3319 3354 3586 3681 4073 3042 3119 2295 1750 2000 1313 1257 1714 2085 2550 2335 2110 1523
2612 2996 2997 3528 3591 3104 1572 861 393 2208 2387 2611 2981 3396 3547 3490 3401 3197 3183 2808 2572 2586 2349 1377 1898 2509 2998 3399 3628 3334 4037 4392 3110 2721 3167 2003 1573 1518 1704 2699 2518 2214 1324
2242 2243 2547 3291 3621 3618 2044 1376 789 1263 1424 2375 2660 2655 2982 3537 3015 2164 2677 3520 3464 3465 1386 1723 1753 1938 1856 1422 1364 1622 1386 998 660 535 636 580 705 959 1247 1714 2597 2379 1918
2165 1960 2321 2564 2469 3268 2549 2063 1415 1389 1545 1581 1995 2361 1406 1666 2119 2277 2757 3149 3217 3204 3319 1990 1783 1525 1465 1374 1137 1246 1641 1574 954 631 574 593 527 880 1267 1435 2590 2090 1755

GFSMA_con_mucape_078.txt.gz
CAPE
2242 1489 888 1946 724 1002 951 1728 1599 2461 1285 1375 1448 1615 923 1182 539 921 1662 2240 1797 1224 914 876 775 731 749 870 624 570 614 580 657 756 835 1072 1182 946 843 802 786 534 325
2568 2178 988 2290 2171 738 2209 1179 2417 1468 1621 1557 1537 1614 1446 1419 1914 973 965 1706 1896 1783 1111 904 696 641 843 932 980 721 657 678 826 970 997 1007 1053 861 721 972 878 620 396
2016 1133 2187 1079 1533 3157 3033 1843 2495 2892 1560 1465 1956 2119 1463 1681 1234 1676 1051 1002 1401 2095 1661 1241 870 604 635 709 880 867 860 920 960 971 888 893 794 777 774 689 974 731 510
1737 232 1774 1336 1738 2710 2568 597 2044 775 1991 703 1844 2176 1472 1604 1432 1737 1522 1449 1309 1117 1781 1928 1703 1324 1080 954 1034 956 1024 1216 1395 1352 1267 1078 875 725 661 570 494 796 697
2457 2052 1545 817 1663 2228 2272 726 1743 1872 2147 1754 1373 1781 1400 1435 1391 828 1094 1438 1423 1304 1310 2096 2138 1918 1410 1326 1257 1169 1181 1459 1779 1949 2024 1871 1605 1414 1165 1006 840 694 837
2107 2320 1296 3049 2938 2769 1592 1696 2085 1289 793 615 576 834 1296 1361 1563 1298 1134 1120 1202 1245 1296 1349 1595 1331 1999 2061 1817 1561 1462 1792 2129 2241 2287 2425 2460 2110 1723 1464 1282 1087 944
2597 2443 2713 2563 2123 1362 540 3235 2745 1972 2362 1429 2654 1765 1613 826 737 1295 1070 931 1213 1374 1290 1375 2277 1728 1191 2398 2150 2133 2032 2060 2252 2459 2593 2656 2630 2614 2428 1954 1648 1521 1354
2577 2248 1774 2391 1888 2173 2891 2667 2402 2019 2279 1220 2001 1888 794 1293 858 490 1124 945 1163 898 1152 1497 1412 1747 2145 1729 1687 2329 2478 2410 2428 2533 2605 2589 2643 2606 2524 2439 1998 1652 1597
2442 2450 2642 2915 766 2630 2762 2656 2100 1106 2627 1241 1485 2405 1295 1261 1675 859 840 908 871 1464 863 1024 1732 1923 2034 2605 2920 2671 2673 1977 2285 2032 2305 2287 2307 2314 2323 2402 2516 2199 1743
2302 1899 2888 3026 2419 875 1025 2980 2145 1943 1904 2165 1524 1281 1816 2191 2504 1311 1286 816 1586 675 1214 1476 1198 1833 2060 2509 2408 2270 2412 1846 1618 1485 1620 1946 2252 2366 2591 2640 2496 2394 2389
2302 1805 2612 3006 2021 916 533 1839 2729 2883 2918 1990 519 2419 2079 2598 2514 3019 1042 978 1360 1017 1137 1489 1582 1343 2074 2213 2121 1377 1565 1872 1849 1666 1676 1482 1774 2257 2586 2723 2674 2437 2499
2487 2122 2057 2982 2319 1013 1445 1109 2674 2303 3361 3609 2778 2657 2627 1954 2014 2090 1746 1405 1594 1640 1425 1297 1439 2113 2300 2964 2034 1701 1975 2109 2006 1564 1364 1496 1393 2281 2358 2569 2692 2768 2810
1823 2602 3403 3449 2295 2660 2163 2564 3193 3159 2425 2816 3944 2458 2603 1656 2430 1980 2831 2106 1869 1488 2493 2229 2089 2287 2307 3136 2365 2104 2961 2116 2168 1669 1565 1669 1298 2148 2283 2521 2657 2607 2609
1303 2102 2417 2930 2915 2650 2695 2911 2856 2748 2969 2598 2635 2913 2954 2097 2651 1443 2850 2490 2449 2491 2534 3264 2386 2887 3208 3356 2375 2235 2150 2225 2003 1738 1995 1633 1387 2002 2135 2475 2547 2500 2475
1724 1524 2138 2569 2709 2001 3076 2801 1935 2514 2486 2390 3175 2743 2854 1799 2178 1802 2366 2585 2323 2477 2449 3170 2186 3088 3162 3519 2096 3429 3319 2713 2133 1845 2216 1576 1401 1700 2131 2392 2397 2190 2023
386 343 534 1529 2784 2104 2290 2609 2735 1292 2114 1701 1978 2819 3080 1027 2632 2347 1955 2528 2488 2600 2001 1994 3071 3695 3613 3439 3179 3968 3971 2947 2886 1942 2142 1512 1265 1734 2139 2277 2115 1577 1477
1007 434 91 663 1419 2734 3045 2972 2205 1847 2275 2392 3174 2794 2866 2908 2296 2963 2377 2660 2471 2861 2875 2632 2819 4715 4202 4404 3607 4048 4044 3485 3136 1727 2061 1409 1138 1756 2155 2163 1915 1526 1292
2959 971 733 1104 1454 2456 2515 2862 2413 2095 2093 2568 2776 2428 2771 2385 3218 3304 2855 2822 3264 3117 3119 2907 2831 2627 2354 2778 4706 4219 4148 2668 2639 2020 1865 1304 1283 1705 2206 2346 2264 1515 1190
3145 2555 2655 3267 3096 2424 2679 2368 2858 2826 2155 2308 2971 3135 2851 3133 3028 2645 3524 3304 2603 2913 3106 2700 2253 2904 3093 2954 3256 4230 4193 4053 3681 1553 1311 1186 1432 1684 2243 2422 2394 1655 1317
3007 2781 2901 3099 2794 2901 2863 2644 2683 2957 2477 2513 2824 2991 3089 3023 3023 3142 2987 3129 2695 3173 2609 2851 2233 1868 1938 2140 3574 3067 3234 2317 2026 2140 1317 1320 1417 1586 2197 2394 2394 1568 1918
2960 2987 2886 2644 2841 2499 2046 2613 2977 2803 2353 2132 2364 2680 2936 3260 2490 2934 2523 2947 2850 2975 2553 2094 1849 1908 1951 3294 3371 3242 2554 2725 2331 2326 1424 2549 1372 1301 1507 2162 2271 2291 2030
2943 2802 2880 2788 2523 2362 1387 1121 2093 2694 2831 2869 2422 2860 3230 2470 2044 1427 1317 1455 1541 3020 3035 2868 2760 2373 2368 3085 2843 2806 2390 1720 1202 1958 1988 1572 1492 1305 1146 1197 2015 2168 2041
3037 2933 2888 2845 2796 2660 1647 675 587 1933 2666 2932 2912 2711 2710 1720 2222 2176 1243 1076 1040 1021 1087 1427 1648 2148 2278 2198 2762 3066 2713 2906 2596 1838 1744 1138 1320 1781 1846 1390 1406 2262 2181
2778 2769 2670 2853 3051 2905 2143 1591 1121 961 2099 2056 2506 2804 2678 2441 2747 2769 2970 2466 1663 1656 1327 734 554 758 1047 1356 2161 2102 2031 2401 2640 2710 2511 2110 1933 1857 1649 958 1475 2119 2549
1938 2238 2231 2442 2785 2984 2409 2026 1592 1107 1201 1727 2027 2090 2083 2936 2518 1963 2019 2698 3062 2960 2385 1966 1731 1171 904 858 1004 1673 1523 1226 898 717 549 519 374 1058 1182 461 722 2056 2464
742 1574 1961 2189 2058 2505 2689 2525 1898 1598 1533 1305 1230 1530 1563 1564 1401 1754 2167 2191 2129 2011 2718 2679 1777 1185 1371 1217 1281 1307 1339 1400 1220 1088 785 446 548 708 730 1499 584 1415 2147

GFSMA_con_mucape_081.txt.gz
CAPE
375 675 807 948 1369 572 772 1003 1238 1619 794 747 793 600 574 770 875 1060 1134 1509 1927 2039 1019 874 783 651 771 897 653 617 589 607 668 791 916 1173 1104 921 768 808 741 502 289
673 176 586 1059 768 800 958 992 1349 1017 909 542 712 688 687 595 674 1076 1429 1469 2010 1710 1275 889 683 758 942 878 1096 727 677 711 832 940 977 862 1013 892 769 940 1047 678 437
923 952 746 1021 841 1068 662 826 1131 1560 869 1011 809 696 709 736 507 812 961 987 1377 1916 1556 922 1028 774 635 689 859 957 991 1184 1067 1125 1078 988 891 812 802 757 766 950 667
368 452 1097 645 1137 1377 523 741 856 819 723 734 905 930 589 821 590 808 900 1098 1182 987 1816 1816 1702 1451 987 942 1075 1170 1387 1602 1793 1880 1879 1524 1194 1117 1110 984 769 714 912
921 1034 1473 720 1431 1409 1216 583 896 1052 1193 947 881 966 770 776 605 953 953 1060 1120 1122 775 1621 2227 2072 1573 1409 1465 1596 1900 1944 2026 2250 2363 2393 2228 1841 1681 1421 1304 1049 951
1349 1129 1059 1038 1237 1186 1004 691 944 755 433 657 549 579 626 679 612 597 592 1069 1112 1115 1009 805 1551 1430 2027 2160 2526 2555 2409 2381 2464 2456 2443 2415 2438 2511 2341 1801 1575 1455 1289
1404 1315 925 1270 1029 866 708 718 1337 732 1273 503 836 648 885 585 820 588 482 644 767 1140 1338 848 1023 1043 1017 1989 2489 2476 2491 2707 2716 2660 2585 2516 2521 2565 2475 2391 2023 1766 1481
1460 1324 1061 846 437 858 1474 1434 1144 1285 1147 572 516 980 522 249 147 230 598 702 499 778 862 951 1436 1316 1229 1356 1300 2196 2385 2549 2751 2818 2903 2572 2405 2327 2327 2271 2284 2194 1875
1281 1351 629 1159 718 1409 1301 1124 764 526 1342 147 270 993 853 1033 355 103 326 336 253 529 726 918 756 1091 1325 1732 1655 2015 2513 2174 2187 2333 2324 2389 2297 2298 2468 2481 2289 2257 2284
1140 1440 1607 1137 747 981 790 1536 1639 1339 1409 1050 477 913 882 975 1057 180 330 158 430 517 336 450 979 891 1148 1427 2277 2072 2467 2101 1717 1462 1779 2072 2278 2540 2943 2843 2657 2370 2317
1321 1253 1153 1252 858 436 543 709 1366 1368 1641 1568 839 1553 790 1701 1612 1533 153 247 354 375 483 674 664 962 1287 1489 1688 1797 1951 1933 1943 1431 1509 1580 1787 2502 2968 3027 2776 2727 2761
1444 1298 1420 1169 1117 845 785 710 1093 1225 1105 1613 2084 1028 1744 658 969 1448 632 331 282 428 606 680 821 1085 1480 1599 1801 2040 1945 2041 2088 1534 1666 1439 1198 2089 2475 2556 2562 2572 2588
1246 955 1240 1412 1346 1129 775 835 1570 1193 1366 855 1950 1081 1520 1588 1453 1388 1604 948 496 760 838 1029 1054 1678 1580 1729 2008 2161 2293 1996 2134 1645 1886 1433 1190 1904 2115 2376 2395 2419 2385
883 1168 1489 1402 1140 1048 1227 1211 1038 1368 1378 1039 488 992 1545 1062 1436 1379 1261 1169 1267 1709 1306 1389 1406 1267 2122 2133 2170 2264 2374 2306 2502 2077 2025 1807 1188 1661 2096 2255 2196 2030 2000
791 1232 1231 1377 1362 1231 1206 1484 904 1217 1272 1084 1237 1598 1011 1033 888 1415 1559 1381 1054 1288 1241 1595 1180 1538 2377 2222 2114 2550 2588 2974 2584 2470 2560 1956 1191 1515 2032 2108 1887 1389 1328
755 760 759 1029 1200 1285 1524 1454 1109 983 966 661 846 658 1258 1156 665 1337 1870 1688 1572 1137 1264 1395 2424 2660 2724 2512 2342 2664 2665 2556 2665 2743 2470 1679 1209 1269 1977 2082 1797 1326 1169
554 465 582 245 709 1156 1322 1303 1009 1190 1029 935 1140 1752 1400 1816 1383 1670 1637 1421 1596 1756 1573 1673 2047 2522 1673 1798 2343 2717 2769 2596 2573 2235 2040 1863 1200 1310 1926 2091 2175 1489 1165
916 622 152 422 922 917 1331 1375 1246 1114 1013 1152 1086 1512 979 1611 1874 2072 1704 1597 1779 1825 1853 1177 1175 1088 1322 1795 1960 3219 3049 2945 2793 2390 2488 1866 1326 1327 1767 2009 2282 1639 1618
890 1005 762 529 568 794 1111 1406 1311 1660 1275 1118 1070 1360 1399 1307 1518 1561 1250 1440 1610 2006 1896 1853 1731 1942 1961 1303 981 1408 2456 2705 2185 2078 1071 1260 1166 1249 1542 1952 2189 2011 1831
1571 1217 1369 1156 1245 1281 1373 1624 1399 1212 1513 1412 1353 1636 1634 1197 1264 1505 1170 1222 1597 1527 1448 1601 1407 1329 1208 1292 2132 2550 2025 1863 1711 1540 954 1468 1218 1239 1131 1769 1968 2136 2107
2236 2005 1675 1921 1906 1557 1805 1889 1640 1213 1330 1322 1454 1498 1610 1925 1963 1733 1514 1287 1679 1704 1588 1931 2183 2176 2219 2037 2201 1996 1438 1527 1275 970 1604 1558 1204 1155 1037 1391 1641 1812 1922
1949 2117 2063 1816 1759 1899 1519 1552 1723 1802 1718 1588 1193 1061 1489 1441 1652 2187 1976 1780 1622 2028 1737 1488 1589 1880 2045 2021 1880 1463 1934 1321 1183 1578 1561 898 997 1332 1000 765 1035 1163 1696
1547 1833 1974 2141 1836 1793 1868 1747 1393 1458 2028 1824 1383 1307 1445 1613 1766 1880 1953 1632 1535 1372 1179 1124 1098 1008 996 699 849 848 716 1227 1450 1274 1590 1739 1635 1731 1518 1385 1340 1239 1449
968 1627 1479 1573 1859 2067 2066 1782 1597 1380 1124 1570 2123 2080 1897 1607 1428 1484 1896 1902 1631 1464 1258 1093 1046 954 574 471 305 397 728 1035 1183 1674 1920 1602 1422 1630 1162 1201 1195 1132 957
640 828 1214 1461 1488 1454 1701 2094 2044 1534 1350 1089 1014 1514 1908 1833 1646 1569 1570 2006 2170 2187 2115 2012 1868 1737 1650 1242 1174 975 1074 1368 906 638 583 571 494 374 127 406 549 575 988
196 426 698 881 1262 1391 1539 1729 1878 1613 1608 1415 1264 1027 1248 1486 1535 2046 2084 1978 1887 1706 1786 2451 2337 2268 2106 1756 1536 1228 959 821 773 774 580 677 586 282 208 317 546 334 515

GFSMA_con_mucape_084.txt.gz
CAPE
461 561 901 958 1194 419 759 982 1167 1322 816 591 620 966 661 543 631 941 1139 1133 1986 1649 796 726 714 638 727 833 639 655 660 680 725 874 1016 1139 1187 1076 788 896 837 562 297
373 580 648 833 959 633 633 979 1222 933 581 596 618 592 578 430 630 784 720 887 1631 1708 1066 910 809 855 1081 1088 1321 911 784 753 875 981 1066 943 959 1099 933 939 1247 856 562
360 441 640 797 541 870 1005 849 1103 888 748 574 444 472 474 397 431 773 1014 925 1253 1405 1035 1032 927 825 738 714 812 957 1087 1128 1210 1251 1315 1141 1106 1136 1057 947 821 1165 924
639 670 792 816 971 1285 765 762 890 832 648 647 635 623 563 454 371 652 754 833 898 960 1462 1434 1655 1391 944 982 1056 1256 1452 1873 1851 1694 1770 1778 1530 1344 1278 1313 1227 974 1093
220 552 892 719 1278 1200 528 605 704 800 1010 690 617 716 585 558 416 516 680 806 933 735 487 1145 2217 2129 1554 1565 1606 1742 2144 2379 2290 2308 2542 2662 2653 2584 2279 2002 1708 1482 1215
1254 1139 930 842 1281 975 1011 815 882 833 580 634 577 666 654 636 551 558 615 880 834 968 829 719 911 1586 2113 2044 2690 2933 2837 2861 2656 2648 2699 2598 2629 2722 2739 2668 2221 1884 1595
1152 596 831 807 812 733 958 793 564 596 810 517 471 498 748 501 517 543 479 811 884 864 966 916 825 962 1033 1961 2194 2559 2425 2741 3051 3115 2879 2695 2652 2606 2554 2521 2512 2459 2058
1134 1159 998 834 691 679 749 1113 959 970 841 648 570 616 296 159 95 387 515 470 604 946 999 1162 870 1013 1192 1262 1376 1977 2559 2615 2503 3125 3005 2564 2334 2305 2427 2460 2211 2350 2455
1106 908 759 786 436 1166 1016 949 495 674 770 270 460 689 656 481 194 253 484 474 651 574 747 913 861 1161 1260 1449 1512 1696 2343 2057 2452 2589 2402 2488 2294 2382 2733 2703 2613 2281 2279
977 878 820 893 682 874 699 1147 1416 1123 917 783 496 763 762 1013 440 35 314 434 166 564 491 706 733 1109 1228 1562 1651 2031 1926 2023 2227 1673 1813 2074 2230 2649 3137 3006 2623 2694 2678
1043 1162 975 718 648 571 646 773 1047 1002 1399 1168 952 1378 1382 1601 1204 1284 154 224 351 419 510 619 753 1025 1358 1508 1735 1935 2054 1892 1993 1553 1495 1546 1729 2365 2966 2988 2752 2524 2561
1162 1305 1066 884 778 512 720 501 1058 926 875 1156 1065 1296 1189 937 1222 1271 1025 219 213 408 634 623 753 1037 1473 1626 1792 2045 2041 1864 1982 1954 1534 1522 1167 1769 2339 2359 2244 2311 2294
1061 1097 1133 934 668 559 399 642 1086 1134 969 477 964 753 1048 1122 1225 1350 1114 849 455 475 694 962 985 1173 1440 1632 1839 2058 2107 2095 2131 2149 1997 1989 1201 1622 2009 2088 1974 1917 1934
848 1092 1032 1047 958 984 729 680 1057 953 996 1244 527 912 867 633 972 1536 1277 1065 1215 1252 1156 946 1298 1095 1336 1751 2001 1938 2330 2203 2401 2264 2136 2407 1761 1290 1902 1945 1606 1218 1135
642 799 1066 1223 1035 865 746 1167 909 845 980 992 646 963 1066 772 868 1203 1506 1491 963 1057 1231 1632 1645 1473 1962 1942 1952 2064 2236 2382 2381 2282 2379 2429 1719 1195 1764 1928 1824 1196 1029
743 792 1214 1102 1051 1125 819 1039 1165 752 668 699 412 638 583 1202 903 1030 1182 1148 1575 1142 1142 1654 2467 2407 2228 1808 1609 1969 2100 2266 2272 2237 2151 1883 1759 1204 1562 1786 2034 1373 1322
690 759 839 726 993 1015 1142 1244 1127 822 923 739 462 1153 1351 1275 1457 1446 1244 1045 1222 1357 1125 1107 1675 1253 1293 1642 1731 1386 1552 2322 2577 2445 2249 2244 1818 1292 1264 1752 1864 1807 1622
682 590 541 529 319 652 942 1208 1081 952 1021 894 851 816 911 912 1130 1493 1543 1222 1565 1578 1748 1606 1441 1486 1563 1393 1040 1513 1940 1981 2157 1795 1109 1355 1408 1176 1141 1554 1693 1903 1632
873 712 679 222 54 409 860 1111 1148 999 844 901 1114 769 975 927 757 841 1061 1023 894 1296 1340 1447 1368 1253 1090 1075 1675 1940 1756 1738 1648 1511 1423 1341 1073 998 1068 1104 1530 1637 1803
1056 866 849 719 328 237 615 764 1083 1098 1124 1320 1041 964 987 1138 1091 873 888 1076 942 1036 1207 1247 959 1161 1534 1897 1858 1701 1353 1411 1565 1585 1409 1210 988 759 757 833 1086 1463 1532
1102 965 873 881 1015 864 891 797 1311 1255 998 892 1133 1302 1271 1442 1598 1504 1378 1321 1163 1081 1079 1232 1698 1544 1374 1429 1608 1736 1425 1063 888 717 743 593 583 1014 1069 1132 939 936 1310
700 1198 1298 1367 1497 1788 1688 1454 1383 1338 1335 1223 904 971 1023 1240 1246 1363 1674 1843 1896 1261 1134 1307 1369 1254 1130 1250 1353 1444 891 522 79 364 973 661 1215 1072 794 1060 1064 997 1113
295 817 1213 1297 1383 1405 1589 1690 1430 1326 1376 1404 1348 1265 1194 922 1057 1169 1279 1631 1781 1723 1640 1468 1157 954 805 704 605 359 176 191 187 236 644 871 1262 1034 671 894 829 657 803
227 560 816 1162 1223 1396 1433 1455 1553 1438 1378 1261 1456 1562 1468 1358 1209 1299 1163 1121 1173 1335 1526 1532 1371 1156 1019 976 1036 916 682 703 637 575 891 1032 503 341 295 297 238 95 265
172 246 510 641 893 1057 1143 1218 1302 1372 1408 1268 1090 1055 1430 1682 1849 1840 1552 1433 1293 1376 1643 1726 1630 1565 1581 1580 1505 1472 1274 864 757 576 473 479 375 326 372 187 60 169 239
118 95 95 331 522 724 765 797 1063 1017 1105 1192 1174 1124 1189 1056 1183 1496 1449 1408 1374 1334 1389 1377 1579 1631 1624 1646 1754 1832 1801 1553 1131 780 434 447 373 318 283 199 149 236 104

GFSMA_con_mucape_087.txt.gz
CAPE
469 631 883 945 1132 504 694 935 1166 830 620 777 1417 1090 908 642 583 834 1084 1200 1471 1239 780 664 728 790 741 910 913 765 840 782 770 910 1091 1141 1123 1137 918 949 1047 806 457
326 649 757 822 958 961 675 923 1046 783 530 455 1020 1026 662 404 606 682 765 695 1363 1809 1323 935 853 838 987 1254 1151 1169 902 885 942 1053 1095 1125 1044 1083 1072 1013 1119 1351 840
423 572 712 827 676 807 995 891 1075 628 480 524 456 536 377 290 408 613 713 717 821 1386 1189 1096 1070 943 905 861 797 949 1164 1343 1362 1371 1474 1496 1353 1278 1183 1282 1176 982 1317
606 564 745 745 943 1107 761 761 701 712 532 484 491 501 477 395 304 504 620 717 475 688 1008 1527 1467 1411 1155 1098 1187 1314 1754 2251 2236 1987 1982 1961 2062 2050 1883 1623 1243 1368 1149
562 731 748 840 1019 1166 555 622 695 715 836 591 582 626 578 522 420 393 449 640 752 644 389 709 2000 2255 1665 1640 1885 2227 2538 2830 2770 2666 2665 2765 2801 2799 2798 2605 2289 1909 1492
355 753 1009 703 1256 985 915 678 691 697 602 592 609 526 562 604 564 507 450 494 691 734 815 663 737 939 2049 2026 2536 2656 2678 3144 3153 3079 2981 2875 2770 2829 2877 2741 2694 2560 2059
979 714 648 912 817 819 853 668 595 628 710 536 452 590 409 586 535 517 541 504 629 782 750 921 860 809 1004 1434 2133 2494 2103 2638 3120 3209 3343 2950 2642 2508 2416 2512 2404 2637 2696
705 739 628 594 697 677 711 809 1098 786 659 570 474 651 246 170 234 300 488 611 483 714 806 897 979 1159 1219 1292 1379 1854 2201 2421 2464 2803 3188 2515 2401 2367 2530 2634 2605 2381 2398
602 999 766 764 638 961 699 921 592 520 428 501 536 331 664 372 214 240 387 409 479 577 628 825 977 1142 1457 1541 1799 1640 1923 1950 2467 2654 2678 2490 2284 2425 2923 2904 2579 2651 2525
923 761 606 978 498 677 790 937 1432 1015 698 807 667 720 732 1092 458 56 227 431 510 485 531 635 873 1139 1299 1595 1765 1979 1963 1746 2058 2234 1942 2146 2273 2476 3155 3153 2705 2472 2522
867 888 548 672 606 621 654 788 887 945 1088 945 1042 1186 1415 1238 1237 1220 351 188 203 335 444 562 806 1095 1429 1615 1712 1903 1973 1836 1835 1916 1733 1676 1769 2080 2697 2924 2666 2437 2309
943 853 869 549 651 572 453 540 1162 775 711 1259 716 1091 1073 1124 1256 1195 1124 293 237 323 619 620 698 1076 1432 1586 1646 1876 1940 1968 2009 1968 1983 2144 1877 1403 2112 2070 2028 2022 1840
935 1014 920 796 694 598 614 503 605 1126 809 408 499 700 741 963 1123 1369 1086 1080 356 479 667 910 1024 1155 1340 1546 1678 1829 1814 2005 2149 2174 1947 2075 2169 1239 1589 1813 1348 1291 997
787 977 988 941 759 596 468 597 989 1117 899 1046 756 820 1070 594 926 1409 1281 1049 779 916 977 1000 1263 1033 1101 1461 1791 1817 1824 2062 2230 2157 2125 2182 2209 1568 1256 1736 1596 1193 1108
670 703 917 988 868 822 738 787 668 792 712 712 845 631 780 777 757 958 1111 1411 863 1019 1179 1863 2203 1710 1932 1829 1786 1716 1690 1839 1959 2160 2163 2176 1876 1596 1231 1675 1782 1375 1444
534 580 692 897 1055 910 820 583 952 828 722 658 538 407 576 952 1124 1182 950 972 1269 1181 950 1655 1877 2067 1751 1675 1565 1384 1202 1190 1722 2385 2105 2074 1951 1561 1191 1476 1617 1743 1481
356 481 571 896 962 907 924 872 975 1012 880 532 693 536 1026 1119 1318 1380 1392 980 1263 1506 1243 1036 1198 1313 1564 1419 1166 1672 1909 1850 1875 1805 1241 1459 1438 1260 1186 1088 1470 1510 1660
820 589 515 794 791 764 806 952 1133 1112 852 768 723 726 493 716 810 1176 1375 1026 1047 1114 1376 1194 1253 1227 1100 948 1092 1626 1624 1581 1540 1446 1367 1314 1386 1339 1113 964 1080 1309 1370
878 729 591 576 557 333 427 702 1002 1162 1013 798 675 672 1001 672 867 545 630 723 777 756 1149 1102 920 997 882 813 1572 1608 1516 1431 1493 1482 1545 1515 1183 639 631 679 692 833 1212
817 885 821 593 589 222 55 363 703 954 1001 948 923 1025 778 776 818 914 823 755 922 950 828 878 945 772 1081 1333 1612 1625 1508 1374 1220 1075 858 634 514 450 762 820 857 743 708
472 677 938 893 705 637 447 423 521 724 937 948 956 888 1015 1057 1004 1264 1442 1328 1337 1423 1363 1001 896 965 1060 899 854 1076 1248 1087 516 14 39 576 177 406 578 558 504 735 668
124 249 570 973 980 894 812 948 955 878 1058 1231 1094 1035 1073 790 896 1068 1173 1160 1417 1488 1570 1636 1408 1160 1075 850 730 732 655 362 1 62 475 181 232 433 555 520 387 487 473
40 39 205 553 838 987 1114 1376 1401 1359 1353 1272 1295 1231 1147 1171 1120 1014 837 767 880 988 1321 1472 1412 1402 1322 1278 1064 807 781 808 598 476 443 483 418 537 380 257 284 379 347
16 8 40 152 292 538 774 950 1051 1180 1239 1235 1233 1211 1225 1149 1228 1330 1319 1269 1155 1054 983 931 982 1145 1290 1273 1127 1074 1212 1194 1042 960 700 532 434 335 293 161 197 66 73
23 11 20 62 122 199 385 466 521 768 867 1190 1289 1212 1202 1034 1074 1266 1211 1107 1214 1413 1472 1355 1230 1205 1264 1327 1359 1333 1270 1214 1097 889 771 955 797 383 202 140 53 92 49
43 73 58 51 76 72 109 239 321 512 647 671 870 907 920 948 935 889 921 981 954 822 841 882 924 975 1080 1101 1174 1157 1248 1248 1111 1028 861 567 347 250 210 168 74 121 139

GFSMA_con_mucape_090.txt.gz
CAPE
487 682 860 964 1094 586 685 826 999 903 480 831 1325 870 800 593 556 725 1011 1339 1447 1372 931 745 762 796 857 1102 1391 1302 1082 953 874 924 1096 1180 1099 1105 1275 1011 1158 1155 834
450 686 718 830 935 713 668 881 1100 461 407 432 998 1060 717 417 528 640 813 673 1200 1558 1907 1125 1026 962 981 1095 1087 1030 1105 1183 1270 1317 1346 1413 1350 1232 1180 1198 1171 1270 1363
462 568 701 746 589 804 848 808 667 539 425 390 413 471 482 307 391 541 605 538 633 1265 1373 1233 1219 1275 1146 1099 1057 1096 1505 1863 1730 1672 1924 1917 1975 1890 1616 1402 1288 1295 1145
641 582 685 815 911 1005 658 718 656 584 450 426 470 494 451 470 401 455 598 734 698 557 825 1273 1676 1690 1467 1512 1554 1809 2411 2663 2826 2757 2713 2652 2598 2511 2345 2221 1781 1591 1309
599 682 692 745 934 947 541 696 636 711 691 538 611 632 626 606 551 504 478 519 627 678 642 533 1042 1849 1781 1938 2145 2845 3108 3245 3316 3237 3141 3108 3106 2953 2647 2613 2687 2424 1956
319 608 786 619 1110 1011 849 698 575 685 517 443 505 527 542 568 620 591 592 548 545 678 693 749 799 838 1060 1711 2227 2312 2583 3035 3273 3238 3262 3275 2993 2871 2800 2686 2654 2809 2553
798 844 683 716 710 754 719 646 821 549 725 616 529 615 379 585 548 565 565 585 673 824 820 844 918 974 1139 1245 1441 1483 1979 2393 3047 3414 3222 2840 2584 2537 2610 2717 2632 2468 2566
709 577 408 594 562 586 693 861 813 715 579 391 404 432 448 229 212 290 314 456 596 590 786 1068 1176 1304 1534 1722 1663 2021 2373 2315 2628 3025 3178 2577 2417 2375 2770 2861 2593 2591 2327
487 883 716 457 576 637 602 732 560 750 505 605 435 463 837 585 170 183 311 383 456 557 774 936 1143 1375 1541 1680 1868 1973 1713 1802 2246 2878 2822 2502 2354 2284 2897 3012 2615 2429 2457
623 668 682 560 543 740 662 825 1340 906 654 888 767 648 708 1273 842 236 154 275 395 463 602 763 965 1205 1482 1589 1683 1914 1946 1850 1904 2072 2183 2336 2291 2323 2984 3089 2648 2307 2166
800 782 439 788 344 509 421 649 924 988 987 930 1035 940 1171 1055 1104 1273 755 204 212 268 436 648 883 1242 1445 1543 1621 1668 1864 1838 1965 1924 1826 1938 2091 2081 2606 2600 2526 2361 2197
768 689 603 429 406 425 373 493 951 610 630 1109 662 1034 965 1141 1477 1075 1017 863 194 290 569 616 707 1106 1352 1559 1605 1577 1676 1799 2028 2155 1948 2026 2125 1788 1980 1958 1860 1883 1532
836 753 737 623 413 522 408 367 644 1005 547 456 465 830 778 871 1274 1220 1137 944 347 452 841 883 1030 1078 1151 1248 1685 1661 1617 1743 1953 2154 2079 2126 2022 1903 1202 1672 1615 1351 1324
748 731 839 808 661 550 316 338 676 821 894 911 738 852 937 613 805 1017 1187 1260 1028 747 837 1853 1219 1406 1738 2089 1720 1602 1981 1524 1584 1926 2108 2155 2124 1773 1271 1471 1614 1592 1607
565 651 807 756 734 665 572 424 594 799 672 618 705 642 719 746 916 745 997 1170 987 1054 1078 1840 2402 2286 2450 2232 1779 2064 1944 1325 1179 1988 1858 1402 1991 1678 1369 1045 1490 1483 1582
358 491 570 618 646 644 680 601 645 551 558 603 381 395 402 651 1123 1267 1037 1006 999 980 1273 1369 1878 2188 1574 1535 1341 1508 1744 1730 1793 1440 1147 1185 1297 1271 1341 1097 1190 1347 1312
130 126 369 582 733 687 701 685 583 656 728 612 341 490 804 892 1215 1425 1407 960 1273 1277 1488 1443 1263 1425 1654 1773 1821 1750 1735 1971 1724 1305 1242 1245 1254 1405 1303 1043 919 1001 1143
423 372 374 401 541 770 768 799 828 951 815 750 506 448 538 543 962 1079 1402 1254 1276 1220 1403 1554 1300 1325 1527 1396 1327 1517 1624 1305 1334 1317 1261 1314 1324 1063 515 558 597 643 748
606 640 487 379 439 563 519 562 690 663 773 715 707 609 654 614 836 676 547 824 726 792 1131 1270 1252 944 1095 798 1272 1759 1876 1809 1342 1226 1120 936 741 285 267 526 559 607 514
550 655 628 561 539 410 283 202 411 632 699 757 683 664 681 616 798 885 751 782 689 738 932 970 936 869 779 1120 1082 1347 1430 1340 1307 658 76 36 404 199 154 293 411 338 380
120 294 633 764 758 725 654 507 190 530 778 739 715 799 787 757 747 807 1040 1207 1020 1005 1098 1408 1394 1458 1374 1132 1113 1092 1149 967 765 306 136 554 466 413 527 351 288 254 225
91 69 203 402 601 706 804 784 701 703 852 823 915 984 1005 897 930 891 757 864 933 1294 1478 1082 1266 1257 1485 1099 1044 1217 1175 1013 878 701 701 595 442 687 665 723 340 200 195
52 68 39 50 241 317 456 589 869 1056 1082 1112 1156 1176 1078 1072 990 989 992 972 918 799 688 1408 1423 1551 1472 1351 1052 1090 995 930 849 828 780 899 769 957 809 512 180 55 80
52 31 43 31 54 76 85 194 260 435 816 977 1030 1034 1037 1123 1106 994 1021 1005 1112 1088 1029 1131 1134 1187 1267 1348 1039 1225 1068 896 781 664 585 770 983 823 979 630 119 16 51
34 29 27 17 34 37 26 57 87 154 344 572 694 883 1006 1014 979 895 813 820 1050 1101 817 781 776 870 944 929 887 824 734 647 944 1019 574 779 1118 641 612 542 439 110 18
10 9 15 21 13 2 1 18 18 64 139 267 471 478 630 701 756 783 853 799 772 910 941 1087 1019 922 960 985 957 864 767 734 795 777 1059 725 905 491 613 582 244 247 362

GFSMA_con_mucape_093.txt.gz
CAPE
1533 1722 1825 1872 1641 1253 1628 1946 2135 1609 1330 1185 2010 1710 1420 866 498 450 585 1264 1253 1441 1374 961 906 939 994 1173 1352 1229 1231 1112 1172 1228 1368 1363 1387 1276 1309 1397 1195 1338 1280
1527 1521 1639 1765 1782 1532 1514 1973 1871 1578 1301 1573 2044 1728 1359 802 597 684 600 582 969 1330 1576 1477 1233 1121 1067 1088 1168 1116 1234 1479 1748 1737 1785 1836 1903 1832 1608 1447 1365 1241 1315
1257 1392 1610 1470 1477 1784 1765 2044 1575 1579 1288 1072 1378 1277 1211 1028 812 915 1008 942 859 880 1299 1499 1334 1423 1476 1475 1551 1635 1856 2104 2211 2261 2213 2229 2295 2422 2487 2198 1800 1500 1246
1573 1579 1568 1726 2083 1645 1564 1675 1540 1536 1281 1231 1316 1249 1223 1142 1242 1231 1237 1370 1362 1065 942 901 1348 1806 1852 1837 2147 2331 3117 3328 3349 3325 3283 3038 2852 2752 2987 2891 2615 2341 1606
1546 1834 1609 1663 2117 1258 1517 1647 1575 1776 1570 1404 1287 1393 1457 1312 1410 994 1294 1360 1442 1387 1394 1013 977 1183 1295 1888 2343 2568 2942 3343 3459 3491 3484 3535 3317 2915 2784 2773 2734 2968 2673
1332 1998 1861 1653 2207 1925 1730 1713 1944 1796 1687 1645 1038 1179 1326 1217 1505 1564 1283 1264 1530 1606 1583 1865 1972 1703 1166 1604 1824 2099 2332 3201 3395 3563 3537 3227 2819 2880 2928 2992 2874 2675 2750
1517 2022 1694 1924 1798 1941 1760 2210 1902 2156 1646 1694 1526 1370 1175 1098 1479 1511 1478 1440 1559 1533 1743 1959 2210 2026 1922 1418 1565 1749 2281 2635 3027 3371 3402 2725 2680 2610 2980 3080 2933 2755 2574
2034 1692 1853 1864 1763 1674 1932 2351 2216 1562 1501 1446 1342 1513 1133 874 1034 802 987 1152 1517 1500 1443 1603 1948 2237 2378 2111 2004 2095 1971 2063 2781 3105 3136 2589 2530 2443 2932 3023 2777 2631 2540
1558 1968 1657 1564 1807 1797 1629 2026 1882 2200 1520 1747 1584 1478 1441 1066 1194 743 1103 1276 1671 1517 1523 1506 1612 1842 2143 1962 1769 1866 1904 1898 2242 2784 2795 2511 2450 2423 2993 2984 2698 2514 2442
1440 1779 1890 1756 1976 1864 2091 2269 2185 2133 2081 2097 2008 1659 1872 2262 1786 960 985 1021 1058 1153 1344 1362 1330 1379 1720 1560 1606 1683 1799 1857 2011 2078 2334 2452 2333 2476 3103 2828 2598 2425 2400
1763 1667 1691 1993 1883 1451 1964 2220 2422 2665 2218 2060 2153 2120 2271 1828 2149 2014 1078 994 999 950 1138 1281 1244 1317 1549 1855 2061 1582 1761 1807 2006 2151 2033 2017 2034 2035 2604 2398 2401 2231 1947
1826 1889 1606 1819 1745 1510 1825 1904 2348 2236 2253 2183 1937 2044 2101 2095 2368 2161 2039 2093 1291 1097 1332 1513 1599 1483 1826 2512 1733 1576 1466 1466 1766 1935 2043 2035 2070 1947 1820 1992 1828 1672 1596
1999 1763 1894 1827 1502 1632 1498 1726 2543 2350 1863 1605 1846 1627 1613 1749 2256 2208 2289 2087 1377 1425 1767 1880 2357 2573 1907 2771 2780 1586 1952 1481 1313 1679 1929 2046 1986 1906 1522 1485 1553 1552 1514
2423 1864 1852 1871 1734 1720 1639 1728 1511 1839 2166 1914 2029 2233 1757 1636 1415 1753 2244 2301 1867 1768 2076 3195 2829 3075 3139 2631 2138 1820 2244 1869 1270 1223 1691 1091 1725 1838 1427 1208 1404 1391 1426
1255 1727 1786 1709 1957 1821 1667 1504 1277 1896 2113 2018 1800 2031 1515 1428 1924 1639 1853 2319 1996 1746 1788 2577 2800 2946 2472 2508 2017 2532 3125 2051 1679 1403 1056 1100 1126 1178 1262 1379 1055 1235 1237
1377 1508 1613 1711 1781 1897 1800 1738 1624 1643 1944 1760 1497 1733 1841 1303 1744 2068 2100 1895 1935 1864 1611 1938 2229 2489 2829 2388 1626 2489 2670 1841 1262 1197 1110 1077 1149 1268 1370 956 938 924 982
920 1200 1377 1354 1703 1738 1748 1780 1700 1795 1736 1821 1644 1697 1742 2009 1488 1795 2326 2063 1988 1948 1653 1620 2040 2095 2702 2726 2122 2057 1747 2603 1749 1472 1292 1113 1115 1145 873 515 568 612 650
1041 1035 1026 1272 1293 1258 1709 1877 1755 1273 1690 1754 1796 1580 1521 1275 2015 2059 1836 2622 2165 2198 1647 1676 1607 1353 1961 2224 2317 2545 2027 1492 1946 1467 1071 1065 1017 611 142 219 360 414 488
1492 1415 1245 1315 1280 1249 1401 1614 1730 1633 1418 1641 1473 1758 1653 1765 1888 1292 1656 1366 1179 1557 1629 1696 1593 1679 1882 1873 2153 1945 2187 2120 1134 407 289 35 192 380 223 163 168 222 246
1562 1549 1525 1396 1125 1066 884 771 954 1319 1490 1542 1623 1607 1770 1661 1848 2136 1895 2074 1694 1792 1666 2018 1769 1819 1886 2103 2375 2073 1843 1813 1956 1712 724 114 324 424 443 449 372 338 220
652 1120 1509 1411 1288 988 717 721 665 682 994 1391 1354 1429 1713 1555 1137 1140 1401 2141 1949 1928 1530 1487 1453 1510 1542 1457 1723 1583 2147 2159 2184 1695 1191 1043 592 738 539 294 512 432 178
181 257 624 795 828 589 499 603 604 950 1269 1464 1781 1931 1720 958 932 758 797 755 895 2070 1925 1286 1238 1551 2325 2176 1736 1744 1692 1748 1399 976 1506 823 512 701 629 423 287 335 73
28 64 52 94 139 180 281 341 446 1031 1590 2062 2225 2377 2114 1384 1289 1717 1236 845 774 767 711 2084 1863 2399 2460 2764 2492 2592 2241 2094 1878 1285 1459 938 618 699 815 479 588 437 85
29 11 1 17 33 14 62 75 131 224 751 1214 1520 1681 2027 2047 1809 1711 1914 1925 1986 2229 1851 1186 1362 1907 2255 2292 2496 2315 2239 2071 1730 1308 2028 1362 832 894 1043 1035 683 422 65
47 46 24 26 1 15 12 19 31 92 264 382 590 863 1030 1206 978 731 858 1727 1944 1976 1332 1004 823 765 713 719 804 1052 1552 1486 1268 1100 1371 1458 1252 1134 1309 1221 1137 403 161
5 6 0 0 17 10 3 6 18 17 0 0 94 292 418 338 368 455 570 783 1248 1757 1620 1810 1789 1358 1247 1353 1182 932 1423 1588 1444 1394 1355 1363 1191 1239 1225 972 1101 1093 1081

GFSMA_con_mucape_096.txt.gz
CAPE
1805 1679 1997 1664 1514 1477 1801 1977 1765 1775 1663 1732 1734 1634 1342 901 453 215 113 1056 1201 1391 1484 1175 1076 1052 1081 1116 1280 1200 1240 1388 1540 1709 1809 1848 1834 1786 1588 1394 1375 1223 1423
1793 1710 1896 1764 1515 1430 1688 1815 1911 1474 1273 1296 1583 1429 1160 723 1035 561 247 475 1036 1252 1360 1430 1295 1319 1305 1278 1385 1509 1608 1761 1967 2185 2183 2206 2287 2390 2400 2186 1767 1468 1302
2163 1828 1734 1574 1597 2085 2170 1841 1560 1385 1004 933 1278 1365 1121 1159 1205 1395 933 808 935 829 1158 1439 1540 1546 1583 1677 1929 2186 2401 2622 2644 2674 2781 2801 2876 2879 2999 2807 2569 2231 1713
2156 1933 1537 1566 1972 1758 1625 1451 1282 1089 1088 1034 1403 1269 1160 1079 1411 1415 1265 1503 1650 1565 1128 1010 1047 1466 1734 2064 2397 2589 3062 3591 3633 3429 3419 3313 3215 3094 3108 3235 2877 2915 2468
2131 1699 1581 2070 2173 1505 1552 1311 1427 1516 1353 1231 1042 1098 1139 1144 1286 1062 1418 1661 1665 1820 1909 1654 1311 1355 1502 1841 2199 2544 2764 3477 3663 3668 3702 3380 2816 2746 3042 3168 2934 2817 2964
2187 1846 1804 2064 2042 1681 1532 1593 2048 1662 1572 1461 871 946 944 1143 1326 1368 1287 1461 1719 1911 1744 2256 2389 2114 1982 1771 2020 2105 2420 3073 3544 3488 3511 3109 2948 2746 3131 3291 3155 3018 2782
1774 2120 1589 2042 1962 1924 2252 2250 1631 1949 1110 1180 1184 928 875 1096 1301 1271 1218 1366 1555 1467 1740 2135 2467 2602 2596 2532 1993 1946 2350 2516 3123 3242 3246 2642 2728 2607 3185 3276 3027 2868 2677
1990 2019 1835 1751 1932 1826 2218 2456 2501 1413 1106 1809 1139 1142 766 697 786 839 1020 1041 1501 1279 1546 1997 2262 2451 2536 2338 2022 1721 1808 1872 2649 2933 2949 2481 2509 2591 3107 3058 2915 2726 2590
1780 1990 1946 1708 1979 2237 1744 2114 2111 2450 1104 1744 2429 1758 1064 868 689 635 1047 1065 1557 1377 1619 1856 1888 2043 2324 2361 1923 2248 1797 1862 2148 2583 2802 2648 2296 2505 3177 2836 2702 2561 2496
1482 1596 2049 1926 2227 1656 1909 2260 2051 2063 2766 1564 1704 2167 2830 3039 1231 820 695 830 1296 1290 1600 1472 1551 1934 2323 2242 1849 1620 1568 2063 1977 2461 2601 2403 2413 2341 2998 2630 2525 2385 2269
1745 1473 2040 2046 2364 1803 2417 2260 2445 2606 1791 1929 1577 2012 2624 2415 2747 1447 678 630 885 997 1194 1394 1525 1757 2204 2568 2320 1673 1727 1759 1719 1951 2041 2175 2163 2276 2386 2359 2298 1975 1854
1877 1727 1835 2121 2202 1928 2062 1992 2473 2470 2455 2241 2046 2161 2021 2017 2029 1668 1216 1202 828 1044 1222 1365 1669 1838 2117 2383 2247 1736 1595 1530 1163 1187 1799 1919 1993 2009 2055 2228 1889 1506 1504
1634 1918 1976 2084 1865 2224 1914 1723 1909 2169 2056 1842 2279 1675 1802 1967 2347 2398 1943 1418 1028 1184 1519 1676 2007 2321 2266 2644 2740 2001 2152 1816 1771 1258 1570 1191 1514 1866 1667 1987 1475 1342 1345
1141 1621 1330 1391 1729 1784 1975 2155 1748 1465 1656 1754 1994 2367 1576 1697 1830 2054 2419 2299 1492 1320 1817 2871 2467 2571 2740 2661 2231 1888 2229 2214 1681 1461 1039 1009 1099 1182 1442 1479 1180 1206 1208
1541 1363 1081 1101 1160 1442 1837 2007 1346 1951 2105 2004 1729 1930 1858 1214 1424 1604 1997 2236 2169 1623 1575 3025 2209 2990 2436 2346 1982 2083 2313 1639 1627 1078 1025 1029 1054 1191 1288 1151 919 978 1023
1930 1406 1329 1184 1192 1307 1785 2262 1405 1657 2133 1837 1441 1499 1803 962 1255 1301 1409 1451 1757 1915 1584 1918 1919 2253 2549 2202 1584 1871 1779 1314 1205 1275 1433 1445 1248 1134 1127 787 726 692 752
1775 1961 1542 1137 1312 1134 1231 1755 1648 1556 1924 1724 1799 1745 1764 1690 1191 962 1220 1374 1212 1224 1373 1345 1769 1828 2665 2438 2312 2312 1725 1557 842 1283 1387 961 403 702 568 172 286 339 421
1793 1617 1561 1630 1614 1328 1545 1565 1497 1297 1666 1451 1199 1443 1566 976 1504 1581 1160 1763 1965 1677 1341 1813 2159 1413 2103 2088 2055 2577 1719 1026 957 540 363 300 72 28 284 124 155 133 197
1289 985 1125 1235 1396 1567 1399 1666 1990 1750 1418 1204 1240 1224 1447 1336 1594 1027 931 904 748 804 1228 1054 1081 912 1279 1836 1934 2850 1705 1812 1404 534 462 239 45 115 296 298 313 236 168
1602 1109 1176 1223 1313 1815 1724 1700 1774 1853 1668 1326 1311 1178 1080 1211 1583 1766 1988 1825 1911 1843 1875 1098 837 619 734 1478 1555 1087 669 711 1134 967 772 440 282 402 426 400 351 341 365
1246 1485 1724 1889 1908 1821 1442 1840 1592 1501 1500 1393 1373 1451 1362 1147 971 1206 1417 2086 2308 1647 909 517 621 523 621 939 1674 879 906 845 1301 1081 759 1007 439 161 129 69 68 250 217
650 1050 1254 1542 1527 1194 660 431 570 1659 1695 1700 1849 2067 1832 1175 958 772 705 685 798 2300 2062 1615 1100 1227 2639 1963 1696 1397 1312 978 1044 827 1217 605 384 325 217 248 173 255 320
268 256 428 796 404 290 147 202 286 1174 2068 2063 2021 1962 1724 814 1214 1357 1030 852 750 749 745 2486 1904 1933 2903 2915 2429 2415 2589 2054 1799 1181 1297 789 816 767 365 271 427 416 446
147 154 190 178 34 33 29 70 98 435 1402 1755 1753 1761 1956 1787 1163 1041 1686 1522 1577 1863 2184 1562 1749 2179 2671 2640 3149 2664 2674 2846 2290 1731 2051 1036 781 843 805 663 609 605 515
42 69 99 79 26 9 15 24 24 345 732 976 725 761 608 640 631 491 831 1808 1863 1821 1437 1089 1109 1049 1036 931 866 1215 1451 1361 1229 1050 1176 828 729 747 739 773 718 625 607
40 36 20 28 9 0 1 6 27 26 19 60 433 90 157 164 180 170 165 220 803 1200 685 700 838 824 1090 1473 1466 1391 1899 1761 1591 1406 1460 1617 1521 1406 1293 1015 721 733 896

GFSMA_con_mucape_099.txt.gz
CAPE
1695 1812 2199 2082 1876 2334 2501 1662 1328 1480 1408 1196 676 678 379 405 175 9 0 1168 1122 1290 1364 1165 1128 1072 1058 1100 1307 1422 1520 1689 1861 2119 2230 2182 2193 2209 2189 1872 1509 1381 1142
2466 1842 1801 2442 1416 2512 2690 1406 1752 1102 1396 608 973 805 474 456 703 217 32 407 996 986 1200 1408 1272 1338 1392 1440 1659 1912 2132 2269 2407 2557 2650 2705 2727 2707 2687 2594 2488 2031 1592
2261 2144 1946 2158 1765 1753 2060 1928 1279 1056 552 371 1025 950 745 885 1057 1153 747 790 756 1046 1170 1231 1415 1549 1596 1708 2106 2505 2664 3051 2943 2959 3240 3371 3201 3278 3182 2975 2816 2670 2457
1937 2352 1529 2224 1404 2454 1036 1412 800 725 703 784 1019 1106 880 888 1204 1375 1437 1651 1812 1362 1271 1355 1318 1532 1684 2108 2510 2756 3004 3411 3355 3272 3441 3339 3021 2841 3095 3251 3092 2920 2770
2120 2574 2921 2004 2753 1761 1239 1699 709 1758 932 749 1029 1018 1027 983 1490 1135 1891 1999 1812 2139 1817 2012 2120 1856 1884 2106 2322 2496 2681 3218 3630 3321 3412 3233 2714 2740 3144 3430 3354 3155 2939
1922 2586 1726 1683 2653 2465 1395 1779 3346 1093 1478 1259 899 883 1000 1051 1260 1390 1729 1874 2005 2140 1538 2322 2917 2242 2770 2298 2202 2129 2525 3129 3402 3320 3277 2900 2940 2750 3126 3323 3193 3104 2949
1880 2316 2196 1978 2192 3085 2770 1612 1741 2219 717 826 1948 809 713 1067 1320 1272 1502 1714 1734 1314 1694 2494 2586 2835 2714 3148 2398 1730 2114 2347 3100 3117 3014 2501 2737 2953 3324 3237 2989 2931 2814
1954 2072 2538 2078 2584 1903 2205 2140 2468 2201 718 958 1645 1347 734 924 944 955 1141 1373 1619 1118 1582 2011 2358 2723 2951 2385 2483 1861 1733 1804 2537 2904 2992 2440 2365 2667 3281 2994 2880 2727 2627
1758 2150 2206 2166 1923 3153 2194 2256 1773 2397 1921 964 2341 2791 1773 1865 874 1005 1169 1396 1691 1216 1422 1829 1774 2147 2595 2334 2744 2099 1521 1927 2518 3077 3174 2918 2341 2351 3162 2808 2629 2496 2444
1562 1770 1879 1940 2422 2686 3898 2683 1698 3403 2691 1165 804 1607 2503 2967 2725 917 747 1141 1237 1213 1347 1659 1518 2060 2294 2275 2926 1598 1285 2219 2183 2694 2911 2979 2728 2460 2702 2599 2443 2159 1852
1658 1362 1760 1888 2215 2081 2089 3511 2452 3053 1736 2639 1801 1377 2474 1510 1827 1830 1245 840 1004 871 1137 1398 1185 1345 2075 2123 2674 1812 1320 1814 1945 1806 1824 2047 2503 2716 2504 2648 2286 1879 1448
1614 1649 1770 1982 2227 2307 2269 2163 2384 2402 3597 3315 2809 2733 2148 1709 2263 2352 1225 1205 988 964 890 934 1309 1346 1407 1890 2402 1653 1795 1645 1769 1502 1229 1168 1566 1982 2619 2563 2228 1807 1294
1294 2415 1953 1880 1963 2285 1899 2072 2358 2451 2230 2752 2999 2300 1010 1574 1728 2180 2034 1722 898 959 1200 1191 1444 1605 2211 2006 2400 1740 3332 1963 1502 1357 1031 919 1031 1203 1632 2359 2320 1669 1159
852 2699 1745 1679 1631 2025 1960 1821 1586 1555 2527 1823 1986 3596 2281 1203 1508 1512 1910 1705 1864 886 1468 2375 1670 2267 1997 2401 2304 1391 1957 1822 1586 1115 875 822 888 1014 1169 1433 1916 1646 1095
1855 1402 1208 1248 1443 1571 1776 1840 1453 1507 2131 2198 2119 2073 2099 1365 929 1470 1557 1393 1501 1412 1364 1081 2665 672 1641 2143 1955 1998 2005 1397 923 1182 1162 1311 1317 1201 1199 1139 907 899 857
1395 1608 928 1096 1165 1223 1455 1833 2307 1952 1867 1849 1560 2612 1808 1400 1442 883 1104 1146 1168 1265 1210 1490 2521 2625 2694 2415 1863 2662 2197 1447 1152 977 1103 1213 785 161 270 404 556 528 547
1466 1219 1452 1348 1344 1455 1529 2215 2473 1836 2103 2066 2383 2096 1611 2518 1368 986 1526 1113 981 1003 1073 1174 1367 3133 2602 2350 2242 2760 2342 2905 1143 721 1175 905 276 83 58 119 121 203 258
1352 1373 1507 1602 1719 1499 2032 2196 1743 1478 1775 1637 1406 1341 1453 1091 2659 3020 985 2525 1404 1964 1173 2219 1718 991 2137 3091 3497 4129 2193 1339 1282 918 750 376 309 14 0 112 156 182 158
1427 1246 1506 1633 1504 2007 1958 1930 2099 1966 1571 1515 1279 1321 1249 1285 2100 1518 2309 1587 857 757 1357 993 1035 923 1053 937 1674 3165 3430 2424 1475 504 395 415 278 193 165 127 195 211 189
1345 1365 1383 1610 1491 1515 1790 1808 1828 1854 1626 1362 1367 1363 1247 1247 1776 2313 1344 3185 2240 1670 1509 1012 715 1031 889 1470 1111 1364 1016 827 829 674 531 480 440 343 224 203 219 207 201
1285 1322 1352 1456 1548 1461 838 1033 1863 1760 1912 1766 1650 1562 1719 1254 820 1191 1296 2674 2906 2144 1378 1167 602 441 447 1757 1695 913 1466 1093 1611 1261 971 787 699 478 436 62 245 207 135
1076 1278 1375 1615 1477 695 609 505 685 2083 1618 1799 1745 2025 2375 1331 984 696 542 559 695 1994 2365 1716 1174 1329 2735 2068 1580 1655 1822 1202 1031 1323 1506 1393 1088 986 670 873 110 181 255
835 771 936 575 468 452 282 290 295 253 1641 2248 2427 2375 1838 970 1135 1646 1256 801 725 621 608 2144 2032 2400 3069 3309 3432 3282 2819 2392 1901 1885 1988 2110 1577 1531 959 525 368 415 427
350 513 531 166 46 1 23 52 85 96 1015 1607 1511 1682 1933 1453 717 651 852 1736 1638 1873 1541 1536 2129 2263 2949 3271 3117 2925 3286 3055 2585 2528 2634 2292 1879 1447 1161 915 416 367 485
293 316 313 119 50 22 0 4 37 426 1069 1094 505 370 560 380 400 338 270 1257 2003 2376 1201 897 892 895 965 1008 1007 1185 1378 1020 1203 1406 1910 1700 1795 1963 1836 2065 1648 837 463
82 112 61 30 54 40 20 23 21 20 99 70 728 131 1 10 0 3 23 52 554 955 672 521 150 534 606 1105 854 998 2247 1961 2445 1657 1584 2180 1897 1905 1646 1700 1779 1871 1984

GFSMA_con_mucape_102.txt.gz
CAPE
2940 1741 789 923 753 795 1401 2339 1945 2106 2289 1606 968 661 435 568 56 36 530 1517 1329 1111 1113 993 1007 974 1006 1144 1411 1666 1889 2041 2346 2357 2525 2589 2650 2716 2702 2456 1991 1584 1493
2119 1239 641 1745 1499 1393 2518 1437 851 973 2070 1073 1616 1310 816 1002 1282 16 174 963 1709 1356 1031 1236 1114 1210 1361 1528 1828 2202 2573 2973 3246 3320 3414 3530 3402 3073 2835 2873 2616 2556 2270
1449 597 1138 1929 2556 2538 2194 3024 3033 2021 1394 1178 1696 1747 1431 1498 1514 1146 692 867 968 1820 1588 1308 1318 1466 1568 1689 2144 2706 3267 3553 3671 3585 3649 3759 3712 3560 3354 3062 2941 2934 2923
2036 1689 2306 2411 3177 3668 3533 2181 2432 2425 1834 1902 1492 1911 1800 1520 1993 2047 2030 1409 1511 1236 1892 2154 2166 2272 2058 2071 2534 2985 3141 3375 3553 3554 3566 3628 3177 3066 3363 3561 3372 2998 3106
1491 2933 1634 2288 2743 3335 868 1319 1621 2182 2200 1323 1515 1863 1905 1710 2207 1740 2295 2564 2302 1842 1521 2072 2258 2399 2492 2331 2792 2727 2665 3079 3449 3316 3286 3144 2963 2952 3273 3525 3353 3282 3113
2588 2751 2980 2895 2105 3068 1156 3062 2728 1719 3245 963 1217 1510 1901 2007 2177 2149 2381 2042 2346 2381 1999 2073 2160 2079 2635 3328 2800 2239 2346 2779 3151 3188 3039 2618 2655 2910 3264 3322 3162 3110 2975
2338 3529 3123 2948 775 1919 2883 2986 2818 3154 3110 2792 3518 2246 1653 1724 1897 1998 2179 1902 2269 2199 2080 2840 3304 2713 2258 3153 2861 1919 1913 2133 2781 3224 2933 2390 2429 2657 3155 2996 2953 2919 2809
2783 2753 2745 2750 848 2033 3435 3156 3568 3724 2228 2364 2407 2599 2125 2068 1550 1301 2033 1936 1946 1269 2109 3113 2900 2847 3006 2557 2557 1962 1499 1668 2560 3204 3211 2640 2289 2383 2963 2788 2712 2660 2619
2564 2020 2445 1737 2343 1581 2196 3388 3557 3727 2870 2031 2922 2991 2357 1687 1684 1377 1488 2037 1730 2234 2021 2211 2581 3004 2918 3234 2903 2041 1338 1617 2289 3040 3381 3176 2764 2398 2575 2887 2529 2319 2236
2305 2584 2552 2201 2052 899 1093 2856 3400 3708 3829 3066 2146 2037 3100 2400 2683 2214 1833 1677 2121 1877 2164 2524 1911 2636 3077 3007 3306 2054 1514 1614 1785 2257 2671 2940 3086 3096 2851 3017 2530 2088 1575
2595 2069 2793 2717 2642 1995 1561 1026 2603 4183 3740 3339 2703 2921 2726 3345 3235 1612 1881 1386 1700 2091 1191 1774 1642 2209 2643 2777 2780 1594 1629 1495 1517 1357 1419 1944 2325 2768 3199 2924 2805 2301 1505
2367 3000 2071 3182 3059 958 1432 2766 3246 3377 4160 3764 3634 2759 866 670 951 1323 1385 1494 1898 1719 1785 1637 1069 1979 2452 2429 2503 1809 2446 1684 1599 1312 814 740 1225 1740 2315 3185 3098 2571 1955
609 1032 2820 2361 2690 2466 2431 2535 2843 3434 3772 3474 3796 3140 891 484 327 956 2024 900 1041 1009 1086 1198 956 697 762 687 853 1524 2481 1755 1452 1091 944 813 716 846 1336 2090 2845 2768 2216
147 1117 2037 2149 2592 2586 2752 2764 2726 2589 3066 3142 3082 3270 3390 2234 1489 2675 2099 502 1017 745 448 673 298 240 67 12 460 1313 1996 1590 1287 876 907 1067 1055 994 788 955 1583 1897 1705
147 355 678 1638 2277 1832 2097 2149 2656 2538 1119 724 1788 3306 3377 2060 1363 1901 1991 2144 1458 775 638 154 42 99 6 0 796 2310 3123 2262 1561 1494 1082 943 1002 754 266 425 690 833 883
189 7 301 958 2149 1843 2402 2727 2286 2077 2100 979 1601 2285 2786 2436 2141 1509 2007 1269 1617 1251 866 419 453 579 384 1096 1303 3003 3116 1996 1972 1523 652 842 871 498 59 217 323 403 417
294 467 819 1877 1761 2613 2534 2724 2699 2184 1405 1547 2109 1975 1798 2521 2221 1835 1538 1262 1538 1487 1565 1615 970 1103 900 1267 2729 2993 3180 2713 1961 729 915 677 731 307 50 71 77 102 129
2078 2267 2652 1972 2208 1810 1920 2331 2318 2038 1949 2051 1988 2491 2265 976 2232 2881 2471 2335 2350 2260 2077 1769 1865 1973 2266 2859 3043 3903 3201 1779 1608 1207 940 821 618 368 165 149 123 32 67
2221 2184 2203 1828 1447 1977 1533 1938 2298 2109 1873 2255 2209 2121 2211 1922 1975 2094 2272 2121 1648 1500 1329 1413 1395 1064 993 1025 1066 1934 2724 2016 2362 531 475 446 456 394 301 272 243 165 103
1093 1142 1862 1652 1579 2240 1672 1627 2035 1925 2216 2128 1966 2371 2355 2267 1698 1909 1623 1872 1637 1917 1704 1702 1747 1612 1231 1314 1972 1218 1196 1913 1636 1323 727 732 470 423 293 130 262 149 132
722 1035 1312 1581 738 650 737 591 514 1081 1432 2040 1979 1800 1928 1155 714 778 1499 1881 1744 1612 1395 1205 1101 1149 1506 1640 1676 1600 1909 1295 1201 1337 908 1219 877 725 660 535 461 306 263
445 600 472 898 817 552 287 326 269 906 1335 1340 2015 2498 2703 948 935 731 495 484 328 1503 1512 2102 1829 1462 1600 1878 1801 2052 1901 1811 1784 1992 1708 1176 995 1280 1482 1030 784 348 369
161 203 520 413 257 188 142 143 175 317 1120 1390 1425 1721 1423 915 696 553 712 822 667 548 549 972 1454 1608 1899 1963 2475 2128 2106 2243 1913 1555 1304 1380 1426 1502 1377 1408 789 535 441
110 171 250 193 112 65 55 52 52 62 455 1432 1611 1749 1525 700 323 201 234 976 1837 2129 1447 1069 758 1499 2179 2205 1768 1791 1769 1675 1665 1560 1632 1636 1405 1636 1749 1791 1502 1187 998
22 204 238 96 99 52 38 8 3 116 1535 1098 193 152 269 181 105 76 55 69 421 1192 639 605 562 603 393 217 437 508 685 1194 904 1021 1259 1458 1470 1261 1481 1670 1261 1185 944
368 5 76 74 55 36 41 37 22 14 51 38 140 110 17 0 0 0 0 0 0 14 41 45 53 12 13 240 413 362 683 1013 1045 903 1583 765 323 259 190 781 912 1038 1645

GFSMA_con_mucape_105.txt.gz
CAPE
564 578 32 42 330 488 572 1060 1150 1050 1230 490 84 90 88 7 15 250 790 1084 1504 1231 921 848 908 968 1021 1179 1410 1721 1978 2163 2556 2497 2674 2769 2882 2837 2606 2495 2378 1857 1537
657 524 619 391 462 628 814 449 434 838 981 529 261 137 208 211 218 282 556 887 1800 1869 1473 1175 1091 1237 1397 1608 1784 2161 2756 3231 3423 3266 3450 3493 3397 3216 2942 2774 2701 2502 2499
221 520 750 677 937 787 1125 404 770 804 588 498 551 444 394 433 604 616 836 1209 1037 1958 1891 1706 2020 2136 1858 1786 2023 2741 3398 3392 3532 3458 3264 3362 3383 3123 3293 3114 2981 2747 2790
622 1121 1110 1065 1315 1872 1764 2032 1514 1389 713 679 554 585 686 717 904 986 1366 1304 1354 315 1418 2212 2256 2374 2525 2199 2643 3321 3066 2956 3041 3023 2997 2969 2788 2880 3298 3610 3451 3107 2986
1175 1595 1570 1249 1946 1686 657 1388 885 1194 882 785 719 732 746 912 930 1106 1428 1454 1471 1152 1064 1659 2080 2187 2314 2473 3326 3174 2866 2717 2979 2914 2815 2626 2492 2689 3101 3367 3359 3284 3106
1552 1736 1848 1301 955 1375 1247 1686 1630 2066 1816 787 1280 800 683 979 1000 1281 1496 1437 1503 1534 1372 1921 2088 1987 2174 2886 3469 2775 2560 2648 2609 2890 2753 2380 2258 2514 2933 2921 2997 3109 2969
1779 1709 1571 407 531 1453 1675 1741 1887 2116 1935 1710 1429 1287 931 876 1032 1035 1387 1352 1315 1474 1451 1869 2136 2079 2106 2382 2844 2443 2165 1995 2290 2916 2879 2424 2113 2138 2748 2486 2593 2752 2734
1424 1826 1361 1190 981 1350 1855 1815 1732 2472 1567 976 1432 1814 670 756 822 944 1129 1426 1264 1409 1468 1931 2494 2227 2092 1746 1704 2368 1397 1407 2263 2974 3219 2814 2344 2078 2270 2357 2278 2292 2356
1482 1429 1216 821 1037 1084 1275 1486 2153 2324 2394 1853 1749 1930 1517 1204 794 630 650 985 913 915 1133 1956 1765 1861 2376 2075 2248 1910 1262 1222 1708 2554 2971 3046 2843 2564 2264 2594 2116 1892 1760
1484 1501 1043 635 1150 371 296 1354 1856 2511 2310 2077 2151 1732 1675 1691 1467 520 663 724 474 781 1019 934 1570 1455 1713 1767 1512 1481 1766 1441 1281 1752 2140 2426 2648 2836 3071 2638 2348 1870 1251
1316 1336 1579 1358 1261 1010 1017 1382 1227 2209 2218 2052 1783 1123 1038 1339 711 744 799 659 610 665 511 635 1319 1108 1156 1136 831 959 1291 1457 1527 1485 1258 1444 1891 2450 2991 3261 2806 2270 1668
821 1332 1317 1313 1223 902 725 938 1738 1932 2198 2008 1575 1067 566 407 458 564 451 306 459 583 597 785 757 690 732 502 0 609 1297 1527 1363 1210 884 835 934 1487 2165 2804 3240 2750 2251
602 774 817 1289 1075 880 459 1036 1210 1324 1904 1902 1870 1226 846 1039 256 147 708 600 172 221 523 310 334 580 240 260 13 152 968 1260 1303 1341 1071 1069 960 877 799 1572 2465 2798 2437
327 432 685 970 1065 1148 1137 1286 988 1302 1290 1450 1007 1646 1537 1208 1245 1014 671 374 38 212 272 47 175 112 25 2 0 39 898 1744 1562 1450 1503 1512 931 835 747 502 973 1541 1617
297 266 439 688 846 1013 1279 1351 1041 877 1145 806 748 953 1604 1635 1402 1052 837 631 834 496 425 411 279 570 206 149 283 431 868 1587 1842 1626 1639 1470 614 717 690 119 412 709 806
177 465 316 505 542 957 996 1038 1303 1034 989 838 56 1314 1155 1129 1062 826 879 576 787 655 607 708 549 641 469 375 370 650 1111 1571 1752 1650 1657 871 734 584 636 85 102 259 346
184 0 13 527 875 1068 1194 1020 981 945 722 892 1042 1121 872 922 1372 1520 1001 1310 938 1176 918 933 678 880 814 604 560 734 1404 1823 1603 1495 1175 1029 836 504 566 292 237 167 60
438 547 710 1259 965 1031 1014 1239 1304 1293 1178 798 755 1089 933 979 730 831 919 934 976 832 625 403 785 897 628 614 994 893 1565 2319 2009 1248 474 520 423 450 489 274 208 193 215
863 1104 893 1057 962 841 841 980 1059 909 853 923 788 929 973 1062 1142 658 457 386 900 820 786 989 971 950 990 1088 880 945 1530 1456 901 1139 669 708 984 711 484 454 427 305 266
322 565 749 990 702 619 775 797 842 754 836 974 1052 1018 1030 902 727 714 682 612 862 564 543 516 550 567 832 992 1146 1166 1489 1161 1064 1379 1147 938 732 730 787 903 1199 1303 482
123 359 639 673 603 363 232 397 384 391 762 721 795 895 718 747 665 583 542 671 722 397 317 260 346 410 411 628 907 1360 1534 1361 1441 1268 1181 796 790 969 1321 1279 1390 1202 971
3 161 120 236 230 231 175 127 136 293 748 825 687 475 734 697 746 582 728 679 426 362 285 506 587 741 713 808 1101 1412 1530 1376 1443 1027 1125 999 1083 1214 1283 1441 1449 1192 572
36 49 23 7 29 41 83 107 89 163 271 397 712 929 673 487 462 309 235 464 830 644 598 709 639 563 736 744 1187 1164 1185 1340 1164 921 1105 1231 1179 1127 1122 1178 1286 854 863
33 42 21 1 4 4 58 58 46 81 209 698 632 647 534 392 277 122 73 132 430 629 480 426 502 390 409 534 217 231 568 811 894 784 619 563 1113 407 360 358 777 568 891
36 61 66 68 49 32 42 57 52 202 511 257 117 148 104 43 16 4 10 10 6 88 136 159 190 118 20 0 14 99 147 276 389 597 584 720 523 14 0 80 361 689 645
25 54 24 8 4 0 0 0 0 13 31 64 130 126 57 25 5 0 0 0 0 0 0 0 0 0 25 35 88 94 201 218 225 227 515 373 11 0 26 255 163 691 509

GFSMA_con_mucape_108.txt.gz
CAPE
569 415 0 201 353 328 422 566 726 944 1194 860 743 572 263 0 0 301 613 1333 1562 1026 829 798 907 1073 1172 1309 1510 1822 2137 2435 2642 2722 2912 2968 2892 2732 2719 2342 2398 2118 1718
488 392 213 258 393 508 529 467 508 755 828 407 38 125 212 224 287 452 348 581 1501 1451 1181 1148 1136 1265 1430 1671 1934 2222 2647 3228 3507 3305 3604 3571 3584 3301 3001 2892 2676 2448 2029
408 482 625 668 674 549 829 872 570 707 620 398 301 288 201 358 489 812 1144 380 686 1622 1402 1434 2117 2260 1807 1857 2173 2845 3563 3660 3579 3576 3395 3323 3325 3113 3113 3317 3205 2988 2706
219 561 850 746 365 319 1290 1321 1391 1426 1006 486 490 618 504 384 844 1042 1304 1358 370 1236 1533 2253 2434 2384 2215 2193 2753 3537 3572 3146 3127 3249 3060 3033 2853 2977 3153 3415 3483 3410 3157
1110 1408 1347 1177 954 1039 879 1591 1123 1412 980 651 524 581 799 849 929 987 1349 1322 1445 925 1469 1889 2154 2196 2112 2378 3481 3963 3515 2950 3013 3137 3067 2832 2533 2740 3115 3235 3194 3252 2842
1291 1688 1244 976 837 1349 1666 1684 1720 1868 1825 673 791 835 690 853 924 1023 1261 1491 1313 1464 1632 1922 2108 2038 2176 2647 2897 3538 3236 3060 2814 3002 3094 2799 2284 2331 2854 2743 2818 2966 2924
1570 1432 1443 397 888 1161 1827 1739 1689 2173 1354 874 1195 821 708 678 760 866 1266 1439 1207 1250 1186 1639 1887 2043 1962 2213 2265 2748 3185 3177 2826 2979 3158 2939 2469 2233 2371 2426 2427 2567 2533
1235 1206 1214 1056 1004 1079 1232 1624 2229 1969 1862 1989 1270 1105 516 568 629 790 844 1306 1186 1182 1236 1385 1752 2183 1932 1745 1773 2619 2528 2306 2632 3373 3324 3063 2862 2448 2119 2454 2158 2106 2053
1287 1096 911 801 766 823 930 1348 1757 2123 1639 1634 1491 1676 1198 835 797 688 804 896 1131 1114 1065 1371 1675 1732 1982 1796 1573 1119 1736 1116 2026 2484 3161 2797 2689 2721 2608 2258 2141 1803 1525
1182 1216 911 782 987 329 531 1055 1315 1921 1695 1527 1469 1478 1215 979 1110 468 534 688 675 804 923 991 1409 1533 1548 1393 1274 1086 1187 1315 1489 1459 2235 2792 2473 2493 2772 2935 2465 1840 1217
992 1438 798 836 1001 707 778 1202 1639 1705 1798 1347 977 593 682 734 568 711 594 511 493 652 707 692 862 1007 1118 796 54 290 409 1166 1476 1471 1334 1758 1989 2034 2702 3040 2865 2452 1680
739 1178 1303 1169 775 968 569 691 1424 1526 1708 1565 1061 524 616 359 338 367 503 426 339 465 588 574 546 598 598 444 156 360 208 918 1282 1356 1378 1433 1393 1135 1328 1791 2720 3071 2562
527 737 883 986 884 662 111 440 1142 1040 1273 1344 1603 1308 714 780 165 262 581 423 296 121 295 416 352 242 305 336 231 162 111 742 1071 1552 1764 1580 1674 998 754 822 1294 2296 2831
459 429 531 941 920 920 952 1056 1005 894 1034 882 744 967 1434 1188 855 774 583 543 624 510 414 390 196 277 435 110 135 228 27 403 981 1431 1662 1798 1609 1054 562 583 343 938 1545
270 233 513 580 722 800 907 1012 990 849 802 853 524 731 953 1203 827 864 618 443 680 513 436 504 424 535 384 272 309 505 680 828 1015 1227 1562 1524 1312 761 474 528 76 213 627
153 183 426 403 503 645 802 946 922 785 736 772 548 563 941 677 965 900 676 711 711 563 468 448 511 531 745 631 511 483 407 385 649 1572 1427 676 590 786 569 429 403 237 277
211 188 327 87 377 611 820 819 774 747 662 398 566 586 660 757 689 839 762 845 531 796 472 480 402 520 706 899 927 1006 956 1226 1917 1196 699 683 791 514 426 410 410 377 246
264 108 25 333 702 849 872 768 743 1055 738 845 542 641 696 852 640 607 600 464 520 602 638 259 591 833 895 934 794 820 1367 1234 907 798 1028 942 521 484 523 577 588 837 1247
424 455 594 688 791 706 711 678 773 758 772 708 743 612 693 725 691 733 468 398 531 561 541 678 615 596 711 863 982 918 1120 1038 1024 1041 1018 641 704 1011 1282 1191 1218 1305 1107
319 539 616 798 684 449 482 542 567 382 463 475 586 776 782 808 719 546 599 603 548 621 286 143 100 96 375 553 688 907 1175 1089 984 1062 877 635 984 1057 1099 1241 1353 1222 814
133 135 415 524 699 543 184 49 92 166 288 242 475 493 477 438 480 449 349 423 543 533 384 86 159 247 292 403 598 830 1019 1149 924 966 815 687 904 901 941 902 823 889 891
42 135 156 259 318 242 91 72 42 84 331 523 460 320 244 309 352 318 296 492 538 400 279 267 325 356 394 452 584 840 927 811 722 734 745 830 826 775 530 392 592 750 870
74 62 36 38 33 3 0 0 22 71 137 346 460 611 414 299 236 235 175 357 524 412 411 459 381 382 326 388 304 204 139 307 388 462 744 631 674 700 80 11 136 267 684
125 48 6 4 14 20 7 0 31 31 157 306 356 260 201 204 135 98 92 93 307 328 311 259 257 164 61 11 1 0 24 80 263 298 490 493 329 287 49 0 175 2 476
99 29 12 1 6 6 2 5 138 220 246 175 179 225 120 66 30 2 4 9 15 24 18 16 12 10 1 0 3 82 91 90 104 147 25 60 33 4 6 4 40 14 227
111 85 42 24 29 0 0 0 0 1 37 77 77 78 61 45 15 0 0 0 0 0 0 0 0 0 0 17 51 71 76 59 25 13 0 0 0 0 0 35 7 8 0

GFSMA_con_mucape_111.txt.gz
CAPE
468 258 12 49 94 204 311 410 562 642 709 570 329 863 581 70 120 325 691 1687 1694 1050 925 852 949 1145 1321 1470 1748 2058 2426 2775 3007 3053 3073 3021 2876 2710 2490 2271 2232 2176 2063
360 236 143 336 541 474 674 690 499 670 658 431 64 79 289 457 739 218 107 306 1191 1142 1164 1151 1296 1416 1595 1832 2099 2371 2685 3094 3298 3276 3477 3527 3471 3171 3105 3119 2811 2662 2344
378 293 358 438 401 366 897 1057 1105 932 1044 730 298 129 246 435 641 942 466 129 259 1159 1257 1382 1970 2430 1885 1958 2391 3054 3382 3620 3417 3378 3395 3332 3234 3227 3073 3248 3400 2870 2469
252 656 657 665 262 589 754 946 883 968 1135 507 495 458 227 387 659 1040 1104 742 1247 1409 1524 1930 2533 2635 2189 2124 2819 3796 3764 3539 3157 3316 3303 3178 2964 2978 3231 3228 2859 3071 3023
913 1171 846 707 624 997 1484 1398 1685 1544 926 483 481 614 658 596 647 761 1046 1087 1046 1103 1628 1960 1903 2178 2245 2483 3499 3699 3929 3465 3214 3158 3338 3198 2847 2568 2919 3209 2973 2800 2589
1177 1295 953 468 918 1238 1609 1544 1784 1516 1423 610 667 680 588 594 645 698 816 1031 1093 1324 1442 1665 1849 1893 1758 2056 2930 3108 3587 3504 3326 3239 3345 3267 2973 2503 2401 2838 2667 2750 2840
1235 1109 962 408 855 1225 1414 2054 1826 1349 1298 1079 1009 840 655 517 598 917 865 1059 1106 1095 1064 1296 1500 1626 1670 1714 1756 2489 2212 2456 2928 3347 3327 3250 3142 2814 2197 2374 2280 2404 2423
1225 890 973 777 765 963 1306 1831 1954 1546 1502 1522 1223 538 362 419 429 498 691 913 1092 1140 1076 1110 1304 1850 1916 1795 1522 1962 1469 1399 2316 2900 3113 2974 2879 2797 2548 2006 2249 2072 1943
1330 1016 846 705 689 697 1060 1345 1764 1539 1316 1310 1399 1094 725 667 684 475 523 559 698 915 988 1083 1324 1522 1723 1716 1518 1267 1314 1181 1417 1720 2160 2302 2538 2519 2512 2484 2225 2004 1687
957 1119 894 624 598 380 800 1049 1372 1591 1138 1090 861 911 752 747 835 362 449 582 574 594 734 950 1205 1309 1416 1410 1335 1178 1044 672 1091 1293 1395 1415 1888 2279 2511 2593 2464 1995 1683
831 1152 836 675 810 564 721 1166 1393 1438 1330 737 554 425 503 479 398 493 421 368 455 509 569 590 615 803 881 970 755 73 331 487 804 1148 1447 1531 1650 1861 1836 2518 2613 2407 2174
640 1096 1128 827 771 774 586 863 1300 1403 1280 1029 566 622 464 212 248 239 295 242 334 334 328 440 391 407 426 388 390 432 410 252 722 1091 1177 1229 1391 1653 1520 1235 1697 2470 2895
379 643 976 1104 766 614 342 147 975 897 1082 1166 1110 750 586 268 186 424 466 312 319 135 113 239 316 240 300 214 120 269 202 79 698 932 996 1333 1596 1539 1224 735 978 1109 2386
335 444 576 1034 703 491 428 819 894 813 941 766 575 973 1068 691 552 553 461 411 527 443 304 423 222 468 375 256 321 480 495 569 704 685 1330 904 854 1146 844 456 535 336 947
432 287 384 701 780 754 773 845 920 610 627 681 618 444 889 824 546 516 436 308 401 286 344 334 387 383 616 531 540 538 541 564 521 1243 1041 763 659 856 747 565 506 439 315
213 128 255 411 500 561 597 839 919 772 594 577 596 168 782 618 756 702 615 605 552 582 377 471 528 477 486 782 887 1118 1110 1243 1551 1154 780 645 522 520 539 511 468 445 490
240 59 160 376 296 381 453 715 684 720 644 397 363 530 412 629 504 577 530 734 444 539 486 284 194 389 714 719 642 714 933 980 788 828 955 614 688 875 981 889 894 1077 1233
183 3 34 235 7 438 770 703 698 670 620 510 432 370 520 596 761 561 620 518 323 518 491 246 244 525 677 767 776 630 918 880 757 877 801 538 1005 1253 1296 1294 1296 1157 974
246 287 327 287 654 694 692 696 661 657 753 794 643 611 564 644 704 637 515 463 425 504 470 439 359 400 247 297 489 508 808 817 847 787 803 597 936 1123 1233 1297 989 926 733
377 443 461 594 726 545 442 368 373 520 528 443 552 609 659 674 674 525 411 421 535 502 513 295 285 0 128 183 329 508 575 679 791 611 711 587 677 804 960 786 673 672 808
105 155 401 451 503 495 435 234 87 174 202 263 420 470 452 284 267 217 175 228 222 382 379 325 171 225 242 280 411 514 637 555 289 736 495 514 671 488 220 338 436 730 549
30 96 116 201 180 234 321 175 89 52 120 247 333 285 240 152 160 269 225 152 335 445 304 219 185 232 224 297 303 279 302 113 124 426 351 498 344 253 43 10 0 125 175
60 78 98 79 60 38 5 0 0 34 107 258 400 366 239 134 160 144 120 226 243 185 203 247 182 82 46 83 16 21 0 18 66 222 400 541 142 106 0 0 115 0 0
118 77 57 56 26 19 21 26 3 2 31 157 223 303 256 174 116 78 67 74 173 144 108 90 63 23 2 0 0 43 69 52 28 247 79 77 25 4 0 7 30 0 0
137 79 54 30 12 11 31 45 127 145 148 149 147 148 154 133 83 41 23 28 20 14 12 11 0 0 0 0 0 0 13 29 30 61 3 0 0 0 0 9 0 0 0
158 109 65 38 29 19 1 2 0 47 101 94 71 77 83 74 65 43 20 1 0 0 0 0 0 0 0 0 0 0 0 5 9 0 0 0 0 0 0 0 0 0 0

GFSMA_con_mucape_114.txt.gz
CAPE
351 159 27 72 178 351 418 445 478 475 475 309 131 646 402 62 47 171 535 1195 1340 1362 978 862 949 1161 1394 1626 1940 2267 2546 2864 3105 3045 3250 3224 3122 3025 3038 3058 2524 2382 2388
360 197 198 453 464 347 689 669 502 526 690 457 42 156 465 519 98 60 225 198 1355 1054 1114 1111 1314 1496 1660 1906 2210 2568 3040 2927 2921 3101 3046 3034 3127 3189 3037 3176 3307 3194 2709
335 240 259 359 321 598 796 698 654 765 899 683 154 141 290 437 705 523 49 176 282 731 1091 1243 1599 2281 1999 1981 2323 3171 3641 3413 3246 3300 3334 3245 3059 3262 2917 2837 3210 3189 3150
311 523 407 354 444 794 1186 940 1157 758 839 527 339 311 240 451 672 777 830 1051 1149 1388 1454 1275 2206 2582 2043 2254 2856 3636 3720 3249 3008 3169 3384 3349 3325 3122 2937 2372 2901 3000 2892
681 895 687 554 766 1274 1345 1367 1502 1196 693 439 544 519 453 434 525 619 769 834 813 1217 1450 1615 1616 1622 1772 2514 3036 3373 3532 2944 2859 2848 3055 3313 3302 3064 2862 2479 2655 2577 2727
1096 1148 741 446 953 1358 1664 1531 1208 1361 706 548 573 532 449 495 534 537 579 770 921 1057 1198 1331 1441 1463 1534 1832 2539 2589 3142 2868 2490 2813 2993 3011 3029 3065 2762 2575 2557 2597 2553
1047 1006 764 497 1098 1101 1701 1667 1325 1141 1238 724 834 635 622 465 546 558 619 777 937 1056 1028 990 1154 1264 1402 1563 1772 2009 1901 2221 2839 2966 2790 2676 2673 2560 2676 2390 2343 2310 2145
1028 690 563 496 864 876 1435 1591 1477 1178 1113 836 1097 365 315 362 403 630 728 792 820 890 1000 1229 1432 1583 1855 1757 1617 2150 1511 1089 1905 2415 2333 2185 2357 2166 2219 2411 2168 2257 1864
948 917 784 672 638 651 1043 1306 1493 1194 1230 1064 955 851 614 522 488 459 459 528 633 709 882 1140 1533 1731 1786 1695 1638 1469 1532 1113 931 1102 1776 1745 1740 2230 1838 2130 2432 2226 1873
950 886 817 593 394 356 863 1050 1260 1294 854 1056 658 625 525 659 717 500 415 468 520 522 569 707 886 1018 1121 1202 1200 1160 409 682 667 988 1179 1188 1259 1945 2417 1815 2243 2361 1945
616 974 898 549 522 285 736 1096 1174 1382 1149 500 443 388 408 381 362 449 535 376 383 430 541 577 507 548 622 655 898 440 422 484 582 1002 1009 1128 1430 1621 2085 1990 1911 2243 2415
548 825 980 448 674 439 452 890 1068 1133 1086 562 462 443 375 208 260 364 360 242 210 411 292 373 452 479 693 402 310 436 500 303 393 801 1049 1304 1240 1356 1353 1654 1308 1705 2807
366 497 869 831 784 534 361 281 738 805 944 1116 734 506 518 205 301 448 491 394 368 381 281 482 524 383 377 239 359 444 444 368 549 744 957 699 715 896 909 1069 910 995 1499
302 265 537 828 849 602 285 49 687 563 713 747 472 793 788 501 419 406 392 348 662 408 371 532 298 347 477 459 528 641 677 715 695 865 671 468 534 702 868 512 452 537 681
328 267 267 544 783 564 548 604 738 393 431 419 333 351 851 780 474 343 301 170 695 694 638 475 322 339 440 713 945 1082 1139 1234 905 721 776 581 629 561 544 562 491 457 443
284 336 282 272 579 575 480 572 687 734 563 451 451 291 555 567 600 568 569 459 406 471 658 304 441 290 329 657 516 877 905 812 697 852 653 487 812 1012 960 887 867 928 1046
232 170 144 139 309 296 370 432 578 651 550 429 342 371 592 379 398 480 569 504 364 328 430 433 253 222 437 683 895 784 1069 1293 1133 846 515 624 983 1078 1136 1125 1122 1000 1035
195 168 101 168 302 172 476 534 493 675 634 567 415 311 365 448 542 498 367 615 424 217 392 389 206 520 490 508 543 886 979 956 1186 730 583 508 854 959 1105 1132 964 809 739
233 200 102 12 96 495 573 596 542 479 732 706 754 577 638 518 626 560 556 387 325 322 359 317 388 213 185 250 659 646 899 1043 784 560 498 514 594 741 844 850 618 528 558
190 198 250 338 408 575 547 538 426 294 314 470 616 658 663 844 768 624 442 377 300 370 366 369 248 150 52 188 269 581 961 749 546 722 368 502 504 263 304 362 255 225 247
121 109 196 247 355 453 344 304 238 116 148 224 367 625 464 362 318 173 336 264 246 408 267 236 216 133 209 255 460 487 650 314 233 685 495 758 933 553 18 6 24 10 16
117 72 85 103 137 137 168 205 186 72 0 61 308 402 290 180 131 105 109 135 162 221 244 181 141 320 299 284 219 9 113 74 128 135 299 957 247 22 11 0 17 0 0
73 78 38 13 66 85 70 13 4 7 11 53 172 220 133 107 122 60 71 82 106 124 114 138 186 91 31 29 7 0 9 41 115 70 92 734 48 1 2 0 0 0 0
54 66 56 66 59 40 27 22 13 3 5 13 80 75 97 104 82 70 59 93 129 120 90 63 29 3 3 0 0 4 9 0 96 64 41 10 2 4 6 0 0 0 0
143 131 80 52 44 36 32 31 23 19 18 27 79 86 73 70 47 56 64 64 52 24 7 0 0 0 0 0 0 0 0 0 13 22 0 0 0 0 0 0 0 0 0
130 110 85 55 41 26 0 0 0 1 44 55 68 71 68 34 28 52 34 30 31 19 8 0 0 0 0 0 0 0 0 0 2 0 0 0 6 7 6 0 0 0 0

GFSMA_con_mucape_117.txt.gz
CAPE
1080 302 810 949 1229 1429 1566 1531 1232 1252 1435 891 615 1324 682 388 176 27 229 880 1200 1352 1169 1014 1057 1328 1585 1854 2121 2412 2712 2972 3179 3082 2976 2944 2903 2910 2774 2971 3071 3040 3068
1363 736 600 1390 1527 1483 1721 1759 1658 1664 1778 802 652 747 846 339 197 109 152 296 1294 1480 1058 1150 1387 1729 1881 2034 2217 2556 3013 3385 3469 3175 3274 3349 3207 2967 2827 2883 2881 3146 3290
1167 1389 784 1431 1051 703 2176 1897 1945 1972 1630 745 872 586 456 530 386 118 200 253 339 487 942 1212 1549 1906 1997 2206 2394 3010 3904 3865 3618 3450 3521 3610 3525 3325 3061 2797 2641 2489 2884
1356 1264 1405 1355 889 1584 2291 2309 2193 1711 1342 1090 1072 673 542 551 645 748 951 1067 1189 1282 1303 1258 1183 1644 1873 2169 2718 3640 3824 3710 3215 3271 3373 3550 3696 3589 3271 3039 2753 2458 2540
1269 1425 1616 1616 2159 2572 2713 2446 2567 2009 1346 1100 888 869 893 949 697 611 724 750 804 1067 1186 1218 1336 1390 1403 2179 3143 3500 3243 3340 2863 2898 3255 3406 3223 3264 3244 2940 2787 2465 2434
1541 2302 1907 1573 2349 2674 2820 2428 2609 2217 1574 1425 783 945 1142 1130 1106 1317 1276 1181 1260 1168 1348 1624 1655 1542 1184 1451 2626 2942 2932 2830 2622 2998 3045 2982 2928 2886 3028 2843 2566 2542 2359
2208 2311 1725 1202 2275 2465 2991 2866 2302 2712 2270 1752 1802 1357 1287 1137 1117 1067 1171 1308 1488 1713 1944 2030 2376 2102 1974 1447 1789 2039 2136 1900 2842 2896 2705 2444 2667 2427 2342 2521 2336 2411 2280
2258 2108 1877 1381 2160 1798 2858 3058 2856 2234 2188 2161 1896 1122 951 1022 1135 1070 1375 1435 1586 1497 1587 1989 2328 2621 2881 2823 2372 1894 2164 1654 1416 1231 1642 2176 2132 2288 1840 1876 2281 2237 2314
2167 2117 1945 1900 1913 1126 1993 2812 2709 2766 2084 1721 2042 1838 1316 993 1455 1312 1528 1452 1660 1722 1814 1970 2204 2435 2615 2640 2382 2044 1290 914 906 782 938 1714 1824 2012 2208 1477 1807 2299 2284
2087 1927 1789 1446 1589 457 1932 2398 2476 2478 2557 1982 1446 1211 1786 2261 1530 1200 1332 1296 1280 1337 1598 1579 1520 1656 1917 1866 1304 1003 486 625 735 497 780 975 1493 1451 2400 1774 1506 1782 2245
1895 1864 1745 1552 1052 894 1958 2547 2546 2787 1968 1388 1424 1476 1343 1022 1173 1384 1042 1100 823 705 868 1316 1355 1267 1263 1151 1024 825 516 497 444 437 783 1000 1030 1436 1849 2182 1323 1381 2131
1369 1927 1983 1428 1633 1493 1649 2132 2539 2581 2322 1531 1188 1297 1209 983 981 852 940 1217 1224 1195 729 572 757 988 1174 1054 640 392 387 376 304 604 765 601 767 1159 1419 2035 1383 1348 1618
1657 1821 2278 1538 1730 1846 1426 1020 2121 2316 2451 2197 2095 1503 1159 342 669 1394 1340 1269 1061 1075 855 1248 1013 963 970 1017 1140 563 717 634 504 680 616 448 534 619 791 1323 1244 1340 1079
1208 1417 1567 1955 2111 1592 1310 889 1096 1692 1778 1979 2065 2138 1925 994 839 1375 1243 961 1011 1225 1310 1693 1225 878 1074 1369 1176 1209 1902 915 795 632 531 452 585 508 489 576 550 665 755
1109 1241 1128 1383 1793 1720 1369 1456 1064 1693 1741 1725 1464 1306 1843 1890 1027 1069 1149 883 898 610 645 949 893 1190 1149 1595 1152 2123 1794 765 631 733 499 640 891 946 911 837 716 522 418
1056 1273 1041 1112 1529 1724 1786 1753 1979 1891 1961 1590 1205 813 1369 1594 1608 1442 1377 1166 1083 1119 748 858 856 1242 1303 1415 1008 1529 1373 968 605 547 338 766 883 880 850 950 932 836 812
1067 938 1007 1025 1185 1255 1259 1515 1761 1751 1886 1616 1472 1330 1542 1830 1255 1164 1386 1386 1307 1279 902 568 1051 882 1544 1770 1825 1471 1052 1318 1047 555 321 679 716 696 901 921 944 703 699
967 990 877 765 752 974 880 1258 1420 1255 1588 1631 1517 1472 1402 1051 1650 2145 1364 1458 1351 1358 1076 1212 1159 995 1466 1340 1288 1491 1157 834 1264 467 350 383 499 491 605 979 679 439 391
891 647 416 336 861 727 705 1285 1803 1755 1457 1520 1429 1506 1430 1364 1799 1113 2312 2115 1462 1141 1494 1252 1215 1080 967 666 865 1206 1602 1490 430 500 466 330 189 188 164 214 248 208 154
751 875 865 869 701 860 1525 1677 1310 1320 1336 1304 1329 1540 1705 1637 1679 1591 1586 1826 1365 1875 1909 1698 1473 1007 779 1017 1068 1215 945 908 532 972 483 138 112 62 30 8 0 0 0
453 495 546 701 992 925 677 525 698 788 856 938 1097 1347 1354 370 291 230 507 1458 1430 1713 2000 1806 1959 1271 1750 789 1382 959 544 525 944 244 1105 186 37 9 0 0 0 0 0
191 459 275 48 52 49 73 114 114 125 184 320 859 1049 252 94 55 48 39 51 106 1139 1515 1613 1511 1198 1208 836 584 107 214 359 457 77 812 69 15 0 0 0 0 0 0
73 187 80 53 54 47 42 65 40 17 7 229 658 1262 123 58 36 37 23 22 30 46 57 891 1037 688 152 196 0 98 438 521 494 52 69 1226 0 4 0 0 0 0 0
76 79 46 43 21 15 41 39 52 57 48 9 11 117 100 8 0 14 10 4 22 30 29 24 15 0 0 0 0 47 233 274 0 34 49 87 14 0 12 0 0 0 0
70 60 55 58 72 72 66 55 58 69 49 27 4 4 42 29 25 7 0 3 5 4 0 0 0 0 0 0 0 2 0 4 158 13 0 0 0 21 25 8 0 0 0
78 93 102 118 109 82 70 59 41 30 45 53 29 47 61 42 36 25 8 16 0 0 0 0 0 0 0 0 0 0 0 0 11 0 3 19 9 0 0 0 0 0 0

GFSMA_con_mucape_120.txt.gz
CAPE
861 762 1115 1021 1238 1304 1371 1493 1334 1434 1141 718 904 576 299 294 202 372 513 695 1007 1213 1367 1286 1334 1522 1774 2030 2300 2570 2871 3172 3574 3224 3103 3071 2954 2927 2830 2899 3024 3167 3272
1285 1086 1439 1271 1463 1622 1470 1436 1499 1338 749 777 1101 761 386 316 327 448 630 735 1342 1573 1221 1253 1499 1767 2039 2172 2397 2611 3030 3431 3802 3590 3708 3367 3270 2883 2777 2730 2807 2746 3017
1781 1975 1377 1467 1373 1705 2529 2007 1685 1289 740 652 947 1066 925 695 495 509 611 678 712 641 1024 1357 1580 1860 2059 2139 2479 2852 3807 4080 3888 3677 3723 3748 3698 3155 2596 2760 2684 2473 2439
2013 2085 1449 1456 1839 2380 1842 1366 1063 776 874 762 717 594 876 903 1142 1039 924 1055 1156 1052 1162 1197 1229 1268 1487 1965 2539 3369 3880 3681 3662 3501 3499 3635 3295 3198 2864 2917 2668 2396 2352
1960 1871 1331 1821 2787 2394 2428 1914 1511 1127 900 716 708 907 871 886 1269 972 1387 1488 1427 1387 1455 1476 1183 1265 1264 1720 2523 3268 3343 3447 3267 3175 3477 3341 3336 3124 3104 3022 2770 2533 2314
2096 2448 1589 2087 2699 2205 2231 2286 2196 1891 1440 1157 632 1007 1020 883 1119 1416 1482 1309 1713 2045 1824 2209 2345 2122 1817 1721 1930 2258 2495 2744 2935 3317 3089 2807 2730 3010 3107 3222 2738 2560 2313
2526 2671 1517 1789 2326 2314 2837 2660 2442 2613 1876 2095 1441 1182 1207 1153 1044 1092 1196 1264 1477 1552 1575 2093 2754 2481 2405 2159 2107 1898 2098 1578 1805 1785 2116 2197 2381 2501 2784 2664 2583 2371 2335
2276 2288 2323 1661 2539 1900 3014 2858 2815 1742 1675 2094 1542 984 674 795 598 961 1335 1441 1551 1637 1632 1966 2404 2895 3273 2846 2907 1792 1971 1678 1470 1348 1534 1594 1931 2047 2148 2665 2049 2298 2326
2082 2461 2297 1827 2309 2086 1816 3008 2822 2721 1514 2176 2874 1971 769 740 993 1266 1637 1530 2022 1825 1908 2050 2282 2652 2890 2688 2672 2534 1608 1031 717 986 1031 1249 1509 1764 2012 2704 1940 1893 2341
1792 2092 2036 2090 2335 1559 2112 2172 2308 3072 3148 1684 1797 1643 2615 2849 1222 1064 1395 1388 1605 1651 1748 1823 1650 1743 2093 1916 1488 1383 581 440 689 755 792 1022 1279 1524 1852 2684 2368 1551 2185
1929 1521 2224 2262 2030 1368 1851 2643 2572 3060 2195 1911 1385 1635 1914 1456 1644 1328 959 1175 1174 1158 992 1244 1389 1308 1566 1459 1326 917 359 359 463 449 557 787 954 1309 1889 2355 2899 1832 1614
1365 1995 1970 2322 2015 1803 1736 2092 2653 2564 2816 2402 1866 1715 1380 1216 991 1091 943 1124 1189 1063 1005 913 918 1194 1318 1287 853 468 464 373 360 374 542 438 509 855 1573 2183 2351 1687 1209
1152 1551 1955 2090 1714 2218 1913 1775 2566 2530 2425 2320 2463 1765 1552 1101 1019 1306 1178 895 990 923 897 1162 1167 1336 1220 1484 1557 974 1302 718 532 461 419 362 484 419 646 1259 1795 1613 1425
934 1021 1349 1477 1547 1872 1809 1913 1436 1593 1523 1939 2226 2393 1501 1433 1282 1395 1394 1185 709 692 888 1447 992 1036 1328 1556 1392 1516 1532 660 533 534 463 516 729 737 639 452 379 418 476
2043 1700 1685 1524 1323 1456 1460 1616 1269 1388 1784 2004 1600 2010 1791 862 1160 999 1073 984 747 275 136 803 494 1654 1203 1137 1246 1700 1661 472 406 378 363 680 656 607 693 741 689 629 686
1698 1592 1789 1736 1707 1766 1861 2157 1417 1647 1751 1455 1167 1268 1789 900 1195 1203 988 841 816 722 500 326 512 833 1506 1117 770 1483 1517 880 844 422 313 602 479 474 675 813 842 515 576
1889 1869 2035 1917 1824 1804 1859 2179 1977 1486 1765 1650 1602 1488 1625 1785 1316 690 630 736 736 802 775 404 452 738 1440 1289 1373 1401 1089 1248 1171 451 304 381 340 288 418 812 733 464 306
1982 2032 1951 1811 1568 1687 1731 1910 1908 1280 1508 1502 1339 1391 1294 985 1482 1732 1032 1257 1131 1386 994 1005 1099 832 1235 1376 1302 1561 1219 683 1021 459 303 166 112 116 137 223 263 240 164
1786 1463 1490 1557 1508 1492 1527 1582 1699 1475 1481 1412 1251 1355 1310 1358 1515 1530 1875 1287 998 1442 1675 1443 1099 1229 1127 1047 1029 1382 1754 1533 920 271 399 246 52 43 42 29 0 0 0
1689 1595 1615 1547 1388 1175 1297 1537 1434 1395 1358 1276 1460 1348 1318 1374 1561 1683 1617 1686 1012 2118 2200 1344 1567 1484 1297 1022 1188 1016 712 854 703 784 202 103 32 32 5 0 0 0 0
1238 1169 1171 1150 1402 1433 1074 1430 1486 1373 1335 1389 1459 1546 1119 894 586 765 2001 1603 1327 1283 731 674 878 1151 2075 751 1654 1215 653 659 2375 190 2753 60 70 3 0 0 0 0 0
943 936 906 977 996 551 109 19 42 360 963 1122 1159 1126 1364 132 136 117 61 27 158 1384 1322 2037 1710 1169 1623 2188 1782 494 346 536 1075 175 1945 176 9 0 0 0 0 0 0
1037 838 798 702 186 40 35 1 25 49 199 459 945 1191 1285 198 118 281 27 13 7 13 37 229 1590 1683 1289 926 219 499 1020 1170 1068 17 182 525 140 2 0 0 0 0 0
287 389 351 232 118 46 45 38 23 27 157 356 223 797 1062 150 15 5 11 0 5 3 17 25 101 60 16 3 56 229 608 746 139 11 6 776 32 71 0 0 0 0 0
191 55 46 27 29 43 33 7 9 83 44 64 58 73 18 7 2 42 16 143 0 1 11 3 0 0 0 0 0 1 83 34 1309 358 28 0 1 14 15 0 0 0 0
83 58 47 50 66 65 76 66 60 175 170 120 59 65 37 73 49 45 38 20 2 0 0 0 0 0 0 0 0 0 0 0 19 97 0 0 0 0 4 38 0 0 0

GFSMA_con_mucape_123.txt.gz
CAPE
932 899 992 905 1886 467 676 692 971 1142 836 898 504 248 228 238 311 398 379 738 865 1183 1478 1445 1537 1694 1949 2208 2431 2636 2890 3243 3844 3601 3398 3434 3418 3357 3206 2881 2656 3128 3291
1286 1136 1279 1027 846 876 715 770 1419 1278 682 594 449 270 238 326 483 488 582 565 1086 1274 1416 1389 1582 1798 2060 2253 2449 2787 3100 3755 4057 3907 3894 3674 3210 2854 3279 2821 2529 2659 2662
1913 1417 1100 1903 815 1506 1586 1112 1424 1137 564 344 719 649 449 452 651 780 689 805 910 1729 1572 1545 1745 1896 2092 2230 2501 2907 3926 4225 4022 3862 3733 3211 3025 2960 2951 2879 2597 2520 2391
1861 2459 1304 1352 1408 1712 1066 784 1065 889 635 413 459 651 615 661 882 903 797 945 1031 1165 1464 2240 2299 2311 1833 1936 2311 2909 3847 3645 3691 3413 3631 3572 3434 3153 3001 2838 2790 2568 2315
1894 2266 1804 1729 2625 1238 1261 1542 872 784 701 455 432 479 540 703 988 851 1065 1265 1137 1004 1474 1756 2213 2013 1814 1858 2558 3093 3199 3405 3284 3209 3370 3025 2888 2984 3136 3079 2899 2667 2351
1868 2686 1660 1912 3285 1219 2409 3319 4087 1356 1334 649 564 595 551 522 710 894 1138 1071 1008 1252 1467 1948 2214 2320 2265 2851 2922 2487 2458 2620 2383 2832 2723 2390 2350 2541 2451 2609 2456 2620 2519
2104 2660 1681 2160 2534 2716 2393 2012 2193 2577 2020 1165 917 680 699 567 514 655 631 707 1137 855 1147 1372 2439 2935 2193 2948 2834 2253 2222 2220 1792 2202 2649 2368 2040 2135 2120 2531 2339 2380 2500
2140 2048 2883 1675 2810 1869 2919 2475 2760 2592 1189 1345 2460 773 635 272 158 238 558 610 783 987 856 1357 1999 2320 3177 2738 3577 2523 2128 2026 1830 1698 1973 2000 1861 2052 1981 1995 2578 2045 2377
2043 2162 2180 2447 2298 2986 2597 2468 2979 2715 1156 1303 2484 1865 1616 1058 890 401 583 600 1001 1046 1084 1180 1602 2148 2686 2546 2839 2947 1962 1266 829 1037 1438 1805 1906 2088 2126 2251 2536 2270 2236
1805 1818 1956 2126 2491 2527 3009 1933 1714 3402 3359 2436 1077 859 2009 2024 1464 1096 258 269 878 1181 1462 1293 1273 1557 1835 1878 1346 1860 779 405 696 664 835 1137 1694 1685 1908 2463 2735 2532 1890
1834 1366 1928 2051 2224 1725 2003 2729 2509 2496 2762 1656 1233 1760 1512 953 1307 665 600 438 313 527 881 798 789 1017 1313 1592 1485 851 301 300 475 618 522 755 1048 1426 1899 2455 2920 2888 1619
1524 1611 1672 2110 2207 2007 2026 2150 2416 2549 2840 2983 2229 1860 828 1061 785 952 477 959 498 834 887 670 878 1150 1264 1251 1176 681 942 721 477 283 335 353 690 1126 1302 1642 2358 2636 1807
1184 2884 2343 2185 2028 2345 2252 2071 2347 2710 2409 2320 3012 1983 1216 840 749 754 688 493 642 386 310 576 535 1573 1000 2594 1497 1591 1355 531 427 354 312 398 589 586 725 892 1072 1507 1693
870 1953 1956 1733 1808 2003 1957 2054 1736 1568 2453 1434 2081 2710 1665 957 773 647 566 446 287 189 242 1322 801 780 994 1130 1263 1077 1062 791 282 265 270 479 383 397 560 589 507 478 500
1115 1607 1605 1857 1817 1702 1727 2017 1687 1600 1548 1968 1583 2217 1919 619 167 325 304 222 169 92 35 610 416 1381 926 410 1234 1354 1112 952 452 545 278 328 209 239 484 616 470 356 431
1947 1741 1946 1724 1876 1782 1861 2575 2112 2552 1786 1571 1188 2173 2124 1059 1055 808 445 477 511 950 360 203 253 1173 1595 812 373 1239 920 1032 589 556 184 146 105 114 195 498 488 342 192
1916 1921 2130 2184 2051 1893 1898 2584 2240 2615 2283 1875 1854 1595 1591 1907 1146 616 998 1246 559 209 473 905 682 1764 1411 808 1221 1402 921 1141 556 532 263 43 0 15 104 171 216 244 176
2445 2655 2215 2212 2068 2045 2315 2259 2107 1718 1820 1476 1656 2318 1379 1011 2420 2312 926 2176 1939 2216 1212 2475 1695 774 2232 1797 1326 1411 1520 636 849 334 77 106 13 0 0 0 0 1 3
1895 1598 1908 2153 2085 1708 1759 1906 2025 1890 1684 1472 1586 1718 1552 2043 2559 1313 1790 1235 1000 1297 2336 1959 1062 1497 874 619 1693 2249 2248 2565 753 447 155 195 17 3 0 0 0 0 0
1872 1604 1654 1624 1606 1313 1314 1564 1675 1749 1532 1536 2058 1470 1571 1858 1684 1351 2439 2764 2377 1623 526 1009 1428 1055 1190 1420 241 601 390 566 279 251 174 75 41 0 0 0 0 0 0
1512 1296 1172 1294 1489 1310 894 1339 1386 1524 1478 1416 1352 1453 1746 1254 792 544 782 1838 1487 736 539 634 725 736 737 917 848 487 882 1284 1427 525 469 114 32 29 0 0 0 0 0
1484 1374 1680 1071 1331 987 252 437 311 534 937 1100 1067 1120 1271 750 168 80 74 123 263 1360 1685 2243 1604 1607 2036 2210 2257 1443 846 1383 1165 725 1650 1340 22 0 0 0 0 0 0
1845 1371 1132 745 651 416 210 53 1 5 530 749 911 1138 1240 855 297 609 54 16 0 3 0 6 1135 1448 707 211 140 1138 1366 1991 2004 96 442 1538 130 25 40 4 0 0 0
1059 967 348 179 225 159 69 36 49 36 136 271 187 155 1058 731 148 137 228 77 1 2 0 0 119 70 14 9 8 237 1061 1239 798 126 65 846 179 23 0 0 0 0 0
602 149 89 61 85 46 26 25 21 117 132 37 31 39 31 34 34 16 18 63 30 0 0 1 3 1 0 0 0 0 49 564 1454 1612 95 38 237 78 24 0 0 0 0
110 44 58 17 32 6 37 30 42 11 153 71 38 16 23 35 55 43 29 227 155 53 15 10 0 0 0 0 0 0 0 5 10 81 28 25 0 0 0 1 0 0 0